[[{"header":{"parameterUnit":"m.s-1","parameterCategory":1,"la1":30.6,"la2":28.766,"lo1":-90.7593,"lo2":-88.6598,"dy":0.0162,"dx":0.0183,"nx":116,"ny":114,"refTime":"2023-02-28T06:00:00:Z","depth":0,"parameterNumber":2,"parameterNumberName":"U-component_of_WINDS"},"data":[0.0,0.0,0.0,0.0,0.0,0.0,0.0,0.0,0.0,0.0,0.0,0.0,0.0,0.0,0.0,0.0,0.0,0.0,0.0,0.0,0.0,0.0,0.0,0.0,0.0,0.0,0.0,0.0,0.0,0.0,0.0,0.0,0.0,0.0,0.0,0.0,0.0,0.0,0.0,0.0,0.0,0.0,0.0,0.0,0.0,0.0,0.0,0.0,0.0,0.0,0.0,0.0,0.0,0.0,0.0,0.0,0.0,0.0,0.0,0.0,0.0,0.0,0.0,0.0,0.0,0.0,0.0,0.0,0.0,0.0,0.0,0.0,0.0,0.0,0.0,0.0,0.0,0.0,0.0,0.0,0.0,0.0,0.0,0.0,0.0,0.0,0.0,0.0,0.0,0.0,0.0,0.0,0.0,0.0,0.0,0.0,0.0,0.0,0.0,0.0,0.0,0.0,0.0,0.0,0.0,0.0,0.0,0.0,0.0,0.0,0.0,0.0,0.0,0.0,0.0,0.0,0.0,0.0,0.0,0.0,0.0,0.0,0.0,0.0,0.0,0.0,0.0,0.0,0.0,0.0,0.0,0.0,0.0,0.0,0.0,0.0,0.0,0.0,0.0,0.0,0.0,0.0,0.0,0.0,0.0,0.0,0.0,0.0,0.0,0.0,0.0,0.0,0.0,0.0,0.0,0.0,0.0,0.0,0.0,0.0,0.0,0.0,0.0,0.0,0.0,0.0,0.0,0.0,0.0,0.0,0.0,0.0,0.0,0.0,0.0,0.0,0.0,0.0,0.0,0.0,0.0,0.0,0.0,0.0,0.0,0.0,0.0,0.0,0.0,0.0,0.0,0.0,0.0,0.0,0.0,0.0,0.0,0.0,0.0,0.0,0.0,0.0,0.0,0.0,0.0,0.0,0.0,0.0,0.0,0.0,0.0,0.0,0.0,0.0,0.0,0.0,0.0,0.0,0.0,0.0,0.0,0.0,0.0,0.0,0.0,0.0,0.0,0.0,0.0,0.0,0.0,0.0,0.0,0.0,0.0,0.0,0.0,0.0,0.0,0.0,0.0,0.0,0.0,0.0,0.0,0.0,0.0,0.0,0.0,0.0,0.0,0.0,0.0,0.0,0.0,0.0,0.0,0.0,0.0,0.0,0.0,0.0,0.0,0.0,0.0,0.0,0.0,0.0,0.0,0.0,0.0,0.0,0.0,0.0,0.0,0.0,0.0,0.0,0.0,0.0,0.0,0.0,0.0,0.0,0.0,0.0,0.0,0.0,0.0,0.0,0.0,0.0,0.0,0.0,0.0,0.0,0.0,0.0,0.0,0.0,0.0,0.0,0.0,0.0,0.0,0.0,0.0,0.0,0.0,0.0,0.0,0.0,0.0,0.0,0.0,0.0,0.0,0.0,0.0,0.0,0.0,0.0,0.0,0.0,0.0,0.0,0.0,0.0,0.0,0.0,0.0,0.0,0.0,0.0,0.0,0.0,0.0,0.0,0.0,0.0,0.0,0.0,0.0,0.0,0.0,0.0,0.0,0.0,0.0,0.0,0.0,0.0,0.0,0.0,0.0,0.0,0.0,0.0,0.0,0.0,0.0,0.0,0.0,0.0,0.0,0.0,0.0,0.0,0.0,0.0,0.0,0.0,0.0,0.0,0.0,0.0,0.0,0.0,0.0,0.0,0.0,0.0,0.0,0.0,0.0,0.0,0.0,0.0,0.0,0.0,0.0,0.0,0.0,0.0,0.0,0.0,0.0,0.0,0.0,0.0,0.0,0.0,0.0,0.0,0.0,0.0,0.0,0.0,0.0,0.0,0.0,0.0,0.0,0.0,0.0,0.0,0.0,0.0,0.0,0.0,0.0,0.0,0.0,0.0,0.0,0.0,0.0,0.0,0.0,0.0,0.0,0.0,0.0,0.0,0.0,0.0,0.0,0.0,0.0,0.0,0.0,0.0,0.0,0.0,0.0,0.0,0.0,0.0,0.0,0.0,0.0,0.0,0.0,0.0,0.0,0.0,0.0,0.0,0.0,0.0,0.0,0.0,0.0,0.0,0.0,0.0,0.0,0.0,0.0,0.0,0.0,0.0,0.0,0.0,0.0,0.0,0.0,0.0,0.0,0.0,0.0,0.0,0.0,0.0,0.0,0.0,0.0,0.0,0.0,0.0,0.0,0.0,0.0,0.0,0.0,0.0,0.0,0.0,0.0,0.0,0.0,0.0,0.0,0.0,0.0,0.0,0.0,0.0,0.0,0.0,0.0,0.0,0.0,0.0,0.0,0.0,0.0,0.0,0.0,0.0,0.0,0.0,0.0,0.0,0.0,0.0,0.0,0.0,0.0,0.0,0.0,0.0,0.0,0.0,0.0,0.0,0.0,0.0,0.0,0.0,0.0,0.0,0.0,0.0,0.0,0.0,0.0,0.0,0.0,0.0,0.0,0.0,0.0,0.0,0.0,0.0,0.0,0.0,0.0,0.0,0.0,0.0,0.0,0.0,0.0,0.0,0.0,0.0,0.0,0.0,0.0,0.0,0.0,0.0,0.0,0.0,0.0,0.0,0.0,0.0,0.0,0.0,0.0,0.0,0.0,0.0,0.0,0.0,0.0,0.0,0.0,0.0,0.0,0.0,0.0,0.0,0.0,0.0,0.0,0.0,0.0,0.0,0.0,0.0,0.0,0.0,0.0,0.0,0.0,0.0,0.0,0.0,0.0,0.0,0.0,0.0,0.0,0.0,0.0,0.0,0.0,0.0,0.0,0.0,0.0,0.0,0.0,0.0,0.0,0.0,0.0,0.0,0.0,0.0,0.0,0.0,0.0,0.0,0.0,0.0,0.0,0.0,0.0,0.0,0.0,0.0,0.0,0.0,0.0,0.0,0.0,0.0,0.0,0.0,0.0,0.0,0.0,0.0,0.0,0.0,0.0,0.0,0.0,0.0,0.0,0.0,0.0,0.0,0.0,0.0,0.0,0.0,0.0,0.0,0.0,0.0,0.0,0.0,0.0,0.0,0.0,0.0,0.0,0.0,0.0,0.0,0.0,0.0,0.0,0.0,0.0,0.0,0.0,0.0,0.0,0.0,0.0,0.0,0.0,0.0,0.0,0.0,0.0,0.0,0.0,0.0,0.0,0.0,0.0,0.0,0.0,0.0,0.0,0.0,0.0,0.0,0.0,0.0,0.0,0.0,0.0,0.0,0.0,0.0,0.0,0.0,0.0,0.0,0.0,0.0,0.0,0.0,0.0,0.0,0.0,0.0,0.0,0.0,0.0,0.0,0.0,0.0,0.0,0.0,0.0,0.0,0.0,0.0,0.0,0.0,0.0,0.0,0.0,0.0,0.0,0.0,0.0,0.0,0.0,0.0,0.0,0.0,0.0,0.0,0.0,0.0,0.0,0.0,0.0,0.0,0.0,0.0,0.0,0.0,0.0,0.0,0.0,0.0,0.0,0.0,0.0,0.0,0.0,0.0,0.0,0.0,0.0,0.0,0.0,0.0,0.0,0.0,0.0,0.0,0.0,0.0,0.0,0.0,0.0,0.0,0.0,0.0,0.0,0.0,0.0,0.0,0.0,0.0,0.0,0.0,0.0,0.0,0.0,0.0,0.0,0.0,0.0,0.0,0.0,0.0,0.0,0.0,0.0,0.0,0.0,0.0,0.0,0.0,0.0,0.0,0.0,0.0,0.0,0.0,0.0,0.0,0.0,0.0,0.0,0.0,0.0,0.0,0.0,0.0,0.0,0.0,0.0,0.0,0.0,0.0,0.0,0.0,0.0,0.0,0.0,0.0,0.0,0.0,0.0,0.0,0.0,0.0,0.0,0.0,0.0,0.0,0.0,0.0,0.0,0.0,0.0,0.0,0.0,0.0,0.0,0.0,0.0,0.0,0.0,0.0,0.0,0.0,0.0,0.0,0.0,0.0,0.0,0.0,0.0,0.0,0.0,0.0,0.0,0.0,0.0,0.0,0.0,0.0,0.0,0.0,0.0,0.0,0.0,0.0,0.0,0.0,0.0,0.0,0.0,0.0,0.0,0.0,0.0,0.0,0.0,0.0,0.0,0.0,0.0,0.0,0.0,0.0,0.0,0.0,0.0,0.0,0.0,0.0,0.0,0.0,0.0,0.0,0.0,0.0,0.0,0.0,0.0,0.0,0.0,0.0,0.0,0.0,0.0,0.0,0.0,0.0,0.0,0.0,0.0,0.0,0.0,0.0,0.0,0.0,0.0,0.0,0.0,0.0,0.0,0.0,0.0,0.0,0.0,0.0,0.0,0.0,0.0,0.0,0.0,0.0,0.0,0.0,0.0,0.0,0.0,0.0,0.0,0.0,0.0,0.0,0.0,0.0,0.0,0.0,0.0,0.0,0.0,0.0,0.0,0.0,0.0,0.0,0.0,0.0,0.0,0.0,0.0,0.0,0.0,0.0,0.0,0.0,0.0,0.0,0.0,0.0,0.0,0.0,0.0,0.0,0.0,0.0,0.0,0.0,0.0,0.0,0.0,0.0,0.0,0.0,0.0,0.0,0.0,0.0,0.0,0.0,0.0,0.0,0.0,0.0,0.0,0.0,0.0,0.0,0.0,0.0,0.0,0.0,0.0,0.0,0.0,0.0,0.0,0.0,0.0,0.0,0.0,0.0,0.0,0.0,0.0,0.0,0.0,0.0,0.0,0.0,0.0,0.0,0.0,0.0,0.0,0.0,0.0,0.0,0.0,0.0,0.0,0.0,0.0,0.0,0.0,0.0,0.0,0.0,0.0,0.0,0.0,0.0,0.0,0.0,0.0,0.0,0.0,0.0,0.0,0.0,0.0,0.0,0.0,0.0,0.0,0.0,0.0,0.0,0.0,0.0,0.0,0.0,0.0,0.0,0.0,0.0,0.0,0.0,0.0,0.0,0.0,0.0,0.0,0.0,0.0,0.0,0.0,0.0,0.0,0.0,0.0,0.0,0.0,0.0,0.0,0.0,0.0,0.0,0.0,0.0,0.0,0.0,0.0,0.0,0.0,0.0,0.0,0.0,0.0,0.0,0.0,0.0,0.0,0.0,0.0,0.0,0.0,0.0,0.0,0.0,0.0,0.0,0.0,0.0,0.0,0.0,0.0,0.0,0.0,0.0,0.0,0.0,0.0,0.0,0.0,0.0,0.0,0.0,0.0,0.0,0.0,0.0,0.0,0.0,0.0,0.0,0.0,0.0,0.0,0.0,0.0,0.0,0.0,0.0,0.0,0.0,0.0,0.0,0.0,0.0,0.0,0.0,0.0,0.0,0.0,0.0,0.0,0.0,0.0,0.0,0.0,0.0,0.0,0.0,0.0,0.0,0.0,0.0,0.0,0.0,0.0,0.0,0.0,0.0,0.0,0.0,0.0,0.0,0.0,0.0,0.0,0.0,0.0,0.0,0.0,0.0,0.0,0.0,0.0,0.0,0.0,0.0,0.0,0.0,0.0,0.0,0.0,0.0,0.0,0.0,0.0,0.0,0.0,0.0,0.0,0.0,0.0,0.0,0.0,0.0,0.0,0.0,0.0,0.0,0.0,0.0,0.0,0.0,0.0,0.0,0.0,0.0,0.0,0.0,0.0,0.0,0.0,0.0,0.0,0.0,0.0,0.0,0.0,0.0,0.0,0.0,0.0,0.0,0.0,0.0,0.0,0.0,0.0,0.0,0.0,0.0,0.0,0.0,0.0,0.0,0.0,0.0,0.0,0.0,0.0,0.0,0.0,0.0,0.0,0.0,0.0,0.0,0.0,0.0,0.0,0.0,0.0,0.0,0.0,0.0,0.0,0.0,0.0,0.0,0.0,0.0,0.0,0.0,0.0,0.0,0.0,0.0,0.0,0.0,0.0,0.0,0.0,0.0,0.0,0.0,0.0,0.0,0.0,0.0,0.0,0.0,0.0,0.0,0.0,0.0,0.0,0.0,0.0,0.0,0.0,0.0,0.0,0.0,0.0,0.0,0.0,0.0,0.0,0.0,0.0,0.0,0.0,0.0,0.0,0.0,0.0,0.0,0.0,0.0,0.0,0.0,0.0,0.0,0.0,0.0,0.0,0.0,0.0,0.0,0.0,0.0,0.0,0.0,0.0,0.0,0.0,0.0,0.0,0.0,-0.3748,-0.4036,0.0,0.0,0.0,0.0,0.0,0.0,0.0,0.0,0.0,0.0,0.0,0.0,0.0,0.0,0.0,0.0,0.0,0.0,0.0,0.0,0.0,0.0,0.0,0.0,0.0,0.0,0.0,0.0,0.0,0.0,0.0,0.0,0.0,0.0,0.0,0.0,0.0,0.0,0.0,0.0,0.0,0.0,0.0,0.0,0.0,0.0,0.0,0.0,0.0,0.0,0.0,0.0,0.0,0.0,0.0,0.0,0.0,0.0,0.0,0.0,0.0,0.0,0.0,0.0,0.0,0.0,0.0,0.0,0.0,0.0,0.0,0.0,0.0,0.0,0.0,0.0,0.0,0.0,0.0,0.0,0.0,0.0,0.0,0.0,0.0,0.0,0.0,0.0,0.0,0.0,0.0,0.0,0.0,0.0,0.0,0.0,0.0,0.0,0.0,0.0,0.0,0.0,0.0,0.0,0.0,0.0,0.0,0.0,0.0,0.0,0.0,0.0,0.0,0.0,-0.6384,-0.6406,0.0,0.0,0.0,0.0,0.0,0.0,0.0,0.0,0.0,0.0,0.0,0.0,0.0,0.0,0.0,0.0,0.0,0.0,0.0,0.0,0.0,0.0,0.0,0.0,0.0,0.0,0.0,0.0,0.0,0.0,0.0,0.0,0.0,0.0,0.0,0.0,0.0,0.0,0.0,0.0,0.0,0.0,0.0,0.0,0.0,0.0,0.0,0.0,0.0,0.0,0.0,0.0,0.0,0.0,0.0,0.0,0.0,0.0,0.0,0.0,0.0,0.0,0.0,0.0,0.0,0.0,0.0,0.0,0.0,0.0,0.0,0.0,0.0,0.0,0.0,0.0,0.0,0.0,0.0,0.0,0.0,0.0,0.0,0.0,0.0,0.0,0.0,0.0,0.0,0.0,0.0,0.0,0.0,0.0,0.0,0.0,0.0,0.0,0.0,0.0,0.0,0.0,0.0,0.0,0.0,0.0,0.0,0.0,-0.8536,-0.8445,-0.8445,-0.8339,-0.8306,-0.8132,-0.8119,-0.7938,-0.7721,-0.7556,0.0,0.0,0.0,0.0,0.0,0.0,0.0,0.0,0.0,0.0,0.0,0.0,0.0,0.0,0.0,0.0,0.0,0.0,0.0,0.0,0.0,0.0,0.0,0.0,0.0,0.0,0.0,0.0,0.0,0.0,0.0,0.0,0.0,0.0,0.0,0.0,0.0,0.0,2.3924,2.3061,2.2104,2.1297,2.3578,0.0,0.0,0.0,0.0,0.0,0.0,0.0,0.0,0.0,0.0,0.0,0.0,0.0,0.0,0.0,0.0,0.0,0.0,0.0,0.0,0.0,0.0,0.0,0.0,0.0,0.0,0.0,0.0,0.0,0.0,0.0,0.0,0.0,0.0,0.0,0.0,0.0,0.0,0.0,0.0,0.0,0.0,0.0,1.341,1.2974,0.0,0.0,0.0,0.0,0.0,0.0,0.0,0.0,0.0,0.0,0.0,0.0,0.0,-1.0297,-1.1007,-1.1106,-1.1199,-1.1204,-1.1293,-1.1381,-1.1381,-1.1381,-1.0715,-0.9669,-0.9743,0.0,-0.7811,-0.777,0.0,0.0,0.0,0.0,0.0,0.0,0.0,0.0,0.0,0.0,0.0,0.0,0.0,0.0,0.0,0.0,0.0,0.0,0.0,0.0,0.0,0.0,0.0,0.0,0.0,0.0,0.0,0.0,0.0,0.0,0.0,0.0,0.0,0.0,0.0,0.0,2.3388,2.2656,2.1723,2.0059,1.9015,1.8481,1.91,1.9656,2.0154,1.9647,0.0,0.0,0.0,0.0,0.0,0.0,0.0,0.0,0.0,0.0,0.0,0.0,0.0,0.0,0.0,0.0,0.0,0.0,0.0,0.0,0.0,0.0,0.0,0.0,0.0,0.0,0.0,0.0,0.0,0.0,0.0,0.0,0.0,0.0,0.0,0.0,0.0,0.0,0.0,1.2632,1.1212,1.21,0.8477,0.5385,0.0,0.0,0.0,0.0,0.0,0.0,0.0,0.0,0.0,-1.0582,-1.0586,-1.0812,-1.1268,-1.1369,-1.1326,-1.1326,-1.1422,-1.1472,-1.1472,-1.1472,-1.1189,-1.0622,-1.0622,-0.9819,-0.863,-0.8062,-0.7736,-0.7611,0.0,0.0,0.0,0.0,-0.7506,-0.7536,0.0,0.0,0.0,0.0,0.0,0.0,0.0,0.0,0.0,0.0,0.0,0.0,0.0,0.0,0.0,3.0731,0.0,0.0,0.0,0.0,0.0,0.0,0.0,0.0,0.0,0.0,0.0,2.1463,2.0997,2.0207,1.9193,1.7321,1.6301,1.587,1.4674,1.5313,1.7321,1.6972,1.6183,0.0,0.0,0.0,0.0,0.0,0.0,0.0,0.0,0.0,0.0,0.0,0.0,0.0,0.0,0.0,0.0,0.0,0.0,0.0,0.0,0.0,0.0,0.0,0.0,0.0,0.0,0.0,0.0,0.0,0.0,0.0,0.0,0.0,0.0,0.0,0.0,0.0,0.0,1.0267,0.8306,0.8838,0.4831,0.1108,0.0,0.0,0.0,0.0,0.0,0.0,-1.0194,-1.0731,-1.1148,-1.1389,-1.1389,-1.1563,-1.2097,-1.2097,-1.2097,-1.2097,-1.2097,-1.2097,-1.2097,-1.2097,-1.1914,-1.1543,-1.1543,-1.0721,-0.9262,-0.846,-0.8041,-0.7746,-0.7641,-0.76,-0.7604,-0.7641,-0.7655,-0.7678,0.0,0.0,0.0,0.0,0.0,0.0,0.0,0.0,0.0,0.0,0.0,0.0,0.0,0.0,2.8712,2.8742,2.8143,2.7754,0.0,0.0,0.0,0.0,0.0,0.0,0.0,0.0,0.0,2.0068,1.9855,1.8611,1.646,1.5602,1.4513,1.3296,1.2182,1.2846,1.4831,1.3792,1.3183,1.28,0.0,0.0,0.0,0.0,0.0,0.0,0.0,0.0,0.0,0.0,0.0,0.0,0.0,0.0,0.0,0.0,0.0,0.0,0.0,0.0,0.0,0.0,0.0,0.0,0.0,0.0,0.0,0.0,0.0,0.0,0.0,0.0,0.0,0.0,0.0,0.0,0.0,0.0,0.0,0.1132,0.048,0.0,0.0,0.0,0.0,-1.2503,-1.1674,-1.1145,-1.1258,-1.0975,-1.1489,-1.2808,-1.2904,-1.3465,-1.4777,-1.4777,-1.4777,-1.4777,-1.4777,-1.4777,-1.4777,-1.4777,-1.4128,-1.2922,-1.2922,-1.1548,-0.925,-0.9262,-0.8625,-0.7611,-0.7604,-0.76,-0.7614,-0.775,-0.7801,-0.7821,0.0,0.0,0.0,0.0,0.0,0.0,0.0,0.0,0.0,0.0,0.0,0.0,0.0,2.937,2.922,2.922,2.8577,2.813,2.8263,0.0,0.0,0.0,0.0,0.0,0.0,0.0,1.9076,1.8237,1.6439,1.5173,1.4311,1.2018,1.0702,1.0299,0.9199,0.9127,1.0125,1.1605,1.1559,1.0605,1.032,0.9561,0.0,0.0,0.0,0.0,0.0,0.0,0.0,0.0,0.0,0.0,0.0,0.0,0.0,0.0,0.0,0.0,0.0,0.0,0.0,0.0,0.0,0.0,0.0,0.0,0.0,0.0,0.0,0.0,0.0,0.0,0.0,0.0,0.0,0.0,0.0,0.0,0.0,-0.4577,-0.5979,0.0,-0.7989,-0.9828,-1.1074,-1.1488,-1.2046,-1.2557,-1.3163,-1.3203,-1.3654,-1.4672,-1.4097,-1.395,-1.4402,-1.4402,-1.4402,-1.4402,-1.4402,-1.4402,-1.4402,-1.4402,-1.413,-1.3684,-1.3684,-1.2353,-1.014,-1.014,-0.9133,-0.76,-0.76,-0.76,-0.7604,-0.7655,-0.7675,-0.7682,0.0,0.0,0.0,0.0,0.0,0.0,0.0,0.0,0.0,0.0,0.0,2.9101,2.9535,2.9579,2.949,2.9265,2.8552,2.8052,2.7897,0.0,0.0,0.0,0.0,0.0,0.0,1.8203,1.7432,1.6545,1.4253,1.2959,1.2505,0.9886,0.8627,0.8611,0.7537,0.7153,0.7399,0.9397,0.9677,0.8889,0.9013,0.846,0.7533,0.0,0.0,0.0,0.0,0.0,0.0,0.0,0.0,0.0,0.0,0.0,0.0,0.0,0.0,0.0,0.0,0.0,0.0,0.0,0.0,0.0,0.0,0.0,0.0,0.0,0.0,0.0,0.0,0.0,0.0,0.0,0.0,0.0,0.0,-0.0765,-0.417,-0.7422,-0.9271,-1.0193,-1.0239,-1.1263,-1.1946,-1.2243,-1.3367,-1.4291,-1.4767,-1.4891,-1.5191,-1.5703,-1.465,-1.4088,-1.4088,-1.4088,-1.4088,-1.4088,-1.4088,-1.4088,-1.4088,-1.4088,-1.4088,-1.4088,-1.4088,-1.2778,-1.0611,-1.0611,-0.938,-0.7448,-0.7502,-0.7553,-0.76,-0.76,-0.76,-0.76,0.0,0.0,0.0,0.0,0.0,0.0,0.0,0.0,0.0,0.0,2.919,2.9594,2.9609,2.9594,2.931,2.8667,2.7964,2.7255,2.6563,2.5783,0.0,0.0,0.0,0.0,1.8008,1.707,1.607,1.5163,1.3414,1.2069,1.1105,0.919,0.8412,0.859,0.7428,0.7004,0.7143,0.7299,0.7451,0.7587,0.7597,0.7597,0.7577,0.0,0.0,0.0,0.0,0.0,0.0,0.0,0.0,0.0,0.0,0.0,0.0,0.0,0.0,0.0,0.0,0.0,0.0,0.0,0.0,0.0,0.0,0.0,0.0,0.0,0.0,0.0,0.0,0.0,0.0,0.0,0.0,0.0,0.0285,-0.4745,-0.7876,-0.7543,-0.9075,-1.0449,-1.1079,-1.2316,-1.3556,-1.484,-1.5676,-1.6082,-1.6082,-1.5868,-1.5696,-1.5696,-1.465,-1.4088,-1.4088,-1.4082,-1.4075,-1.4075,-1.4068,-1.4062,-1.4062,-1.4062,-1.4062,-1.4062,-1.4055,-1.2753,-1.059,-1.0504,-0.9209,-0.7143,-0.7302,-0.7455,-0.7587,-0.7587,-0.7587,-0.7587,0.0,0.0,0.0,0.0,0.0,0.0,0.0,0.0,0.0,0.0,2.9475,2.9759,3.0193,2.9849,2.931,2.8667,2.7483,2.6721,2.651,0.0,0.0,0.0,0.0,0.0,1.6991,1.6079,1.5092,1.4099,1.1515,1.0062,0.9774,0.7882,0.7035,0.7089,0.6996,0.6949,0.6997,0.7143,0.7227,0.7285,0.7509,0.7533,0.7431,0.0,0.0,0.0,0.0,0.0,0.0,0.0,0.0,0.0,0.0,0.0,0.0,0.0,0.0,0.0,0.0,0.0,0.0,0.0,0.0,0.0,0.0,0.0,0.0,0.0,0.0,0.0,0.0,0.0,0.0,0.0,0.4194,0.1501,0.0095,-0.4544,-0.809,-0.8991,-1.0231,-1.1273,-1.2137,-1.3328,-1.4193,-1.4342,-1.5233,-1.5831,-1.5831,-1.5748,-1.5696,-1.5696,-1.465,-1.4088,-1.4088,-1.3874,-1.3768,-1.3761,-1.3554,-1.3454,-1.3454,-1.3454,-1.3454,-1.3373,-1.2706,-1.1537,-1.0038,-0.9299,-0.8146,-0.6848,-0.7105,-0.7227,-0.7265,-0.7265,-0.7265,-0.7265,0.0,0.0,0.0,0.0,0.0,0.0,0.0,0.0,0.0,0.0,2.9579,2.9819,3.0432,3.0178,2.9714,2.9071,2.772,2.6791,2.6451,0.0,0.0,0.0,0.0,1.8803,1.6627,1.5649,1.4506,1.3063,1.0553,0.9069,0.8618,0.7118,0.6417,0.6478,0.6658,0.681,0.6932,0.7017,0.7085,0.7156,0.7336,0.7394,0.737,0.737,0.737,0.737,0.737,0.737,0.7471,0.8074,0.0,0.0,0.0,0.0,0.0,0.0,0.0,0.0,0.0,0.0,0.0,0.0,0.0,0.0,0.0,0.0,0.0,0.0,0.0,0.0,0.0,0.0,0.0,0.0,0.1392,-0.2991,-0.2996,-0.5638,-0.7984,-0.938,-1.0428,-1.1505,-1.2406,-1.3627,-1.4269,-1.4102,-1.5054,-1.5636,-1.5509,-1.5494,-1.5434,-1.5292,-1.4267,-1.3721,-1.3721,-1.3547,-1.346,-1.346,-1.3287,-1.3213,-1.3213,-1.3213,-1.2969,-1.2559,-1.1988,-1.0761,-0.9208,-0.8642,-0.7753,-0.6719,0.0,0.0,0.0,0.0,-0.6956,-0.6956,0.0,0.0,0.0,0.0,0.0,0.0,0.0,0.0,0.0,0.0,0.0,2.9903,3.0648,3.0608,3.0253,2.9639,2.84,2.7281,0.0,0.0,0.0,2.0733,2.0624,1.9312,1.6489,1.5658,1.4132,1.2011,1.0179,0.877,0.7783,0.6795,0.6329,0.6451,0.6464,0.6624,0.6878,0.6915,0.7,0.7115,0.7132,0.7221,0.7346,0.7346,0.7356,0.7373,0.7552,0.7549,0.784,0.9163,0.0,0.0,0.0,0.0,0.0,0.0,0.0,0.0,0.0,0.0,0.0,0.0,0.0,0.0,0.0,0.0,0.0,0.0,0.0,0.0,0.0,0.0,0.0,0.0,-0.1027,-0.6801,-0.7021,-0.7184,-0.7756,-0.8964,-1.0107,-1.117,-1.214,-1.3334,-1.4021,-1.3995,-1.5029,-1.5464,-1.51,-1.5165,0.0,0.0,0.0,-1.3213,-1.3213,-1.3173,-1.316,-1.316,-1.3126,-1.3106,-1.3106,-1.3106,-1.2542,-1.1573,-1.1494,-1.0279,-0.8337,-0.8175,-0.7535,-0.6654,-0.6688,-0.6702,-0.6702,-0.6702,-0.6702,-0.6702,0.0,0.0,0.0,0.0,0.0,0.0,0.0,0.0,0.0,3.0151,2.991,3.0286,3.1989,3.1197,3.0253,2.9639,2.886,2.7788,0.0,0.0,2.304,2.1316,2.0803,1.8961,1.5579,1.5305,1.3845,1.1075,0.989,0.877,0.7783,0.6795,0.6352,0.6305,0.642,0.6505,0.6576,0.6824,0.6946,0.698,0.7095,0.7156,0.7183,0.7183,0.7261,0.7552,0.8442,0.88,0.8984,1.0187,1.0646,1.0821,1.1043,0.0,0.0,0.0,0.0,0.0,0.0,0.0,0.0,0.0,0.0,0.0,0.0,0.0,0.0,0.0,0.0,0.0,0.0,0.0,0.0,0.1897,-0.1806,-0.4858,-0.6546,-0.6886,-0.7439,-0.8752,-0.9984,-1.1016,-1.1873,-1.3042,-1.3634,-1.3394,-1.4374,-1.4582,-1.3684,-1.4438,-1.4487,-1.3516,-1.3286,-1.3213,-1.3213,-1.2959,-1.2916,-1.2909,-1.2592,0.0,-1.2478,-1.2478,-1.1941,-1.0942,-1.0111,-0.9038,-0.7888,-0.704,-0.6577,-0.6369,-0.6607,-0.6702,-0.6702,-0.6702,-0.6702,-0.6702,0.0,0.0,0.0,0.0,0.0,0.0,0.0,0.0,0.0,0.0,2.9335,2.9621,3.0967,3.0458,2.9924,2.9609,2.8912,0.0,0.0,2.5548,2.4444,2.3155,2.195,2.0043,1.7305,1.6079,1.4306,1.1859,1.017,0.877,0.7783,0.6795,0.6338,0.6264,0.6335,0.6407,0.6488,0.6715,0.6858,0.6943,0.7085,0.7139,0.7139,0.7753,0.807,0.8333,0.9481,0.9961,1.0159,1.1436,1.2013,1.2193,1.2831,1.3105,1.3152,0.0,0.0,0.0,0.0,0.0,0.0,0.0,0.0,0.0,0.0,0.0,0.0,0.0,0.0,0.7255,0.7122,0.0,0.4877,-0.1998,-0.3295,-0.414,-0.6345,-0.6746,-0.726,-0.851,-0.9606,-1.0647,-1.1694,-1.2762,-1.3367,-1.322,-1.3666,-1.3747,-1.3064,-1.3502,-1.3502,-1.2759,-1.2759,-1.2759,-1.2759,-1.2605,-1.2525,-1.2518,-1.2371,-1.207,-1.1545,-1.1545,-1.0714,-0.9286,-0.8765,-0.8008,-0.7022,-0.649,-0.6338,-0.6274,-0.6424,-0.6481,-0.6481,-0.6481,-0.6481,-0.6481,0.0,0.0,0.0,0.0,0.0,0.0,0.0,0.0,0.0,0.0,2.8696,2.8899,2.9704,2.9672,2.9535,0.0,0.0,0.0,0.0,2.6445,2.589,2.4975,2.3266,2.1439,1.9605,1.7579,1.5511,1.3615,1.1181,0.9499,0.8507,0.7415,0.6868,0.6868,0.6868,0.6939,0.707,0.7267,0.7446,0.7617,0.7807,0.7901,0.8108,0.9257,0.9389,0.9082,1.0553,1.1056,1.1352,1.2713,1.3267,1.3489,1.4596,1.4917,1.4897,1.4543,1.4609,0.0,0.0,0.0,0.0,0.0,0.0,0.0,0.0,0.7587,0.6949,0.7114,0.6817,0.6319,0.5829,0.5715,0.3049,-0.5119,-0.4925,-0.4382,-0.6312,-0.6605,-0.6969,-0.7898,-0.8918,-1.009,-1.1187,-1.2232,-1.2857,-1.3039,-1.3033,-1.2926,-1.2748,-1.2735,-1.247,-1.2009,-1.1996,-1.1922,-1.17,-1.17,-1.17,-1.17,-1.17,-1.1323,-1.049,-1.049,-0.9513,-0.7783,-0.7557,-0.7022,-0.6338,-0.6338,-0.6264,-0.6264,-0.6264,-0.6285,-0.6308,-0.6278,-0.6264,-0.6264,0.0,0.0,0.0,0.0,0.0,0.0,0.0,0.0,0.0,0.0,0.0,0.0,0.0,0.0,0.0,0.0,0.0,0.0,2.8111,2.7298,2.6413,2.5557,2.4093,2.2479,2.0646,1.9483,1.7962,1.6022,1.3683,1.1993,1.0983,0.9596,0.8993,0.8993,0.8993,0.9008,0.8975,0.9368,0.9741,1.006,1.0474,1.084,1.1106,1.2298,1.1143,0.9152,1.1327,1.2112,1.2289,1.3553,1.4177,1.4388,1.4482,1.475,1.4856,1.4295,0.0,1.4048,1.3259,1.1676,1.0259,1.0358,0.8551,0.6885,0.0,0.7303,0.7014,0.7493,0.58,0.3662,0.1244,0.079,-0.0959,-0.616,-0.6424,-0.6114,-0.6499,-0.6515,-0.6531,-0.6556,-0.7729,-0.89,-0.9665,-1.0762,-1.1686,-1.235,-1.2405,-1.2392,-1.2351,-1.2351,-1.1955,-1.1013,-1.0938,-1.0565,-0.9674,-0.9599,-0.9599,-0.9599,-0.9599,-0.9599,-0.9448,-0.9448,-0.8841,-0.7783,-0.6872,-0.6412,-0.6338,-0.6338,-0.6268,-0.6278,-0.6278,-0.6284,-0.6311,-0.6329,-0.6278,-0.6278,0.0,0.0,0.0,0.0,0.0,0.0,0.0,0.0,0.0,0.0,0.0,0.0,0.0,0.0,0.0,0.0,0.0,0.0,2.9042,2.895,2.8726,2.8359,2.6726,2.5257,2.4011,2.2184,2.038,1.8536,1.6088,1.4426,1.339,1.2203,1.1698,1.1698,1.1698,1.1325,1.0751,1.1014,1.0902,1.066,1.0989,1.1256,1.1639,1.2751,1.2779,1.2238,1.3076,1.3193,0.0,0.0,1.3908,1.4068,1.4409,1.4489,1.4402,1.4162,1.4088,1.3893,1.3206,1.1517,1.0055,1.0449,0.8677,0.7146,0.7831,0.7354,0.6814,0.6967,0.5269,0.3029,0.0432,-0.0,-0.0622,-0.2685,-0.5085,-0.6676,-0.6428,-0.6417,-0.6367,-0.6291,-0.6831,-0.7509,-0.844,-0.9964,-1.1063,-1.1397,-1.1996,-1.2305,-1.2305,-1.2305,-1.1842,-1.0858,-1.0783,-1.034,-0.9296,-0.9296,-0.9296,-0.9296,-0.9296,-0.8993,-0.8466,-0.8466,-0.7859,-0.6872,-0.649,-0.6264,-0.6271,-0.6271,-0.6278,-0.6136,-0.493,-0.4419,-0.4617,-0.5873,-0.5491,-0.4401,0.0,0.0,0.0,0.0,0.0,0.0,0.0,0.0,0.0,0.0,0.0,0.0,0.0,0.0,0.0,0.0,0.0,0.0,0.0,2.99,3.0096,3.0315,2.8766,2.763,2.7087,2.508,2.327,2.17,1.9316,1.7631,1.6665,1.5271,1.4622,1.4622,1.4344,1.3818,1.308,1.338,1.322,1.2851,1.3197,1.3495,1.3811,1.4488,1.5028,1.5248,1.4663,1.4455,0.0,0.0,1.3911,1.3906,1.4105,1.4015,1.3828,1.3741,1.3661,1.349,1.2909,1.1657,1.0418,1.0469,0.8974,0.7635,0.7862,0.7286,0.6749,0.6702,0.5565,0.3571,0.0517,-0.0,-0.0,-0.0,-0.2903,-0.5201,-0.5548,-0.5984,-0.6274,-0.6261,-0.6274,-0.6617,-0.733,-0.8983,-1.011,-1.034,-1.1093,-1.1477,-1.1477,-1.1477,-1.1019,-1.0034,-0.9959,-0.9513,-0.8466,-0.8466,-0.8466,-0.8466,-0.8466,-0.8084,-0.7403,-0.7407,-0.6949,-0.6268,-0.6271,-0.6274,-0.6281,-0.5643,-0.5733,-0.6159,-0.4588,-0.3583,-0.336,-0.5468,-0.5344,-0.3775,0.0,0.0,0.0,0.0,0.0,0.0,0.0,0.0,0.0,0.0,0.0,0.0,0.0,0.0,0.0,0.0,0.0,0.0,0.0,2.9418,2.9635,3.024,2.9442,2.8925,2.8925,2.7864,2.6958,2.6102,2.3711,2.205,2.1135,1.881,1.7761,1.7696,1.6715,1.6295,1.6337,1.6995,1.7524,1.7836,1.8543,1.9044,1.9232,1.8791,1.823,1.7503,1.599,0.0,0.0,0.0,1.4584,1.4435,1.355,1.324,0.0,1.295,1.2585,0.0,1.2719,1.2114,1.1237,1.0403,0.9456,0.8406,0.7355,0.7021,0.6966,0.7034,0.689,0.5305,0.0824,-0.0,-0.0,-0.0,-0.0093,-0.1013,-0.3399,-0.5164,-0.6297,-0.6312,-0.6335,-0.6275,-0.6352,-0.7249,-0.8313,-0.9296,-0.9372,-0.9372,-0.9372,-0.9372,-0.8917,-0.7931,-0.7855,-0.7403,-0.6412,-0.6416,-0.6416,-0.6416,-0.6416,-0.6338,-0.6338,-0.6349,-0.6355,-0.6278,-0.6291,-0.6295,-0.6136,-0.4068,-0.4392,-0.6264,-0.6247,-0.4969,-0.3381,-0.5551,-0.6297,-0.5655,0.0,0.0,0.0,0.0,0.0,0.0,0.0,0.0,0.0,0.0,0.0,0.0,0.0,0.0,0.0,0.0,0.0,0.0,0.0,3.0933,3.1542,3.1774,3.1546,3.1144,3.0513,2.9789,2.8611,2.7076,2.6248,2.5438,2.4467,2.3137,2.2512,2.2441,2.1513,2.0883,2.0525,2.0093,1.988,1.9727,1.9276,1.9445,1.9937,1.9154,1.9092,1.9188,0.0,0.0,0.0,0.0,0.0,0.0,1.5104,0.0,0.0,1.3637,0.0,0.0,0.0,0.0,1.1506,1.0429,1.0054,0.9628,0.8287,0.8068,0.8039,0.7228,0.7062,0.6509,0.4975,0.2167,-0.0,-0.0,-0.0,-0.0291,-0.1133,-0.1747,-0.2676,-0.4044,-0.5393,-0.6273,-0.6284,-0.7173,-0.7936,-0.8313,-0.8917,-0.9296,-0.9296,-0.9296,-0.8841,-0.7859,-0.7783,-0.7326,-0.6338,-0.6338,-0.6338,-0.6338,-0.6271,-0.6274,-0.6274,-0.6285,-0.5491,-0.4144,-0.4146,-0.5023,-0.6247,-0.553,-0.4025,-0.2099,-0.2099,-0.1711,-0.1123,-0.1854,-0.2125,-0.1934,0.0,0.0,0.0,0.0,0.0,0.0,0.0,0.0,0.0,0.0,0.0,0.0,0.0,0.0,0.0,0.0,0.0,0.0,0.0,0.0,3.1885,3.2075,3.2132,3.1902,3.1343,3.088,2.9842,2.8118,2.8339,2.7872,2.6778,2.6118,2.5741,2.5753,2.4683,2.4062,2.3698,2.2871,2.2413,2.2134,2.1438,2.1428,2.18,2.1016,2.0795,0.0,0.0,0.0,0.0,0.0,0.0,0.0,0.0,0.0,0.0,0.0,0.0,0.0,0.0,1.2343,1.196,1.1073,1.0979,1.0841,0.9661,0.9209,0.8922,0.8178,0.7649,0.7359,0.7269,0.4808,0.2438,0.1454,0.1281,0.1286,0.1446,0.0563,-0.0457,-0.1508,-0.4411,-0.6002,-0.5194,-0.5734,-0.6424,-0.7188,-0.7868,-0.8241,-0.8237,-0.8241,-0.794,-0.7249,-0.7249,-0.6949,-0.6338,-0.6264,-0.6271,-0.6274,-0.6281,-0.5886,-0.5168,-0.598,-0.5584,-0.4155,-0.266,-0.2756,-0.4071,-0.4053,-0.2454,-0.0,-0.0,-0.0,0.0175,0.1871,0.2516,0.2336,0.0,0.0,0.0,0.0,0.0,0.0,0.0,0.0,0.0,0.0,0.0,0.0,0.0,0.0,0.0,0.0,0.0,0.0,0.0,0.0,0.0,3.1422,3.1438,3.1454,3.1454,3.1406,3.0701,2.9286,2.9968,2.9507,2.8111,2.7786,2.7615,2.7538,2.6305,2.5733,2.5829,2.5378,2.5115,2.5137,2.4971,2.4882,2.4815,2.4357,0.0,0.0,0.0,0.0,0.0,0.0,0.0,0.0,0.0,0.0,0.0,0.0,0.0,1.3908,1.4231,1.3665,1.2828,1.2213,1.2212,1.2122,1.1377,1.0395,0.977,0.9867,0.8852,0.7801,0.7517,0.7627,0.6804,0.4189,0.3766,0.3915,0.4114,0.1988,0.0554,0.1012,-0.3028,-0.5011,-0.2943,-0.2766,-0.3706,-0.5761,-0.6136,-0.6281,-0.6106,-0.6271,-0.6274,-0.6264,-0.6264,-0.6264,-0.6264,-0.6193,-0.6126,-0.6136,-0.6217,-0.5257,-0.3359,-0.5118,-0.6009,-0.5767,-0.173,-0.0,-0.0,-0.0,0.0165,0.0338,0.0346,0.0261,0.0699,0.5272,0.6952,0.6496,0.0,0.0,0.0,0.0,0.0,0.0,0.0,0.0,0.0,0.0,0.0,0.0,0.0,0.0,0.0,0.0,0.0,0.0,0.0,0.0,0.0,0.0,0.0,0.0,0.0,0.0,0.0,0.0,3.0989,3.066,2.9847,2.9122,2.877,2.882,2.7832,2.7867,2.8678,2.7798,2.7254,2.6954,0.0,2.5605,2.5338,0.0,0.0,0.0,0.0,0.0,0.0,0.0,0.0,0.0,0.0,1.799,1.7539,0.0,0.0,1.6029,1.5381,1.5483,1.5397,1.4223,1.4494,1.461,1.2686,1.2337,1.2186,1.1208,0.9969,0.8999,0.8686,0.8045,0.7276,0.6759,0.666,0.6611,0.6711,0.6109,0.5007,0.3106,0.1815,0.1316,0.1804,0.1453,0.0507,-0.1152,-0.438,-0.5595,-0.3986,-0.541,-0.6291,-0.6288,-0.6288,-0.6288,-0.6288,-0.4696,-0.3908,-0.391,-0.5511,-0.5999,-0.5358,-0.2829,-0.157,-0.1572,-0.048,-0.0,-0.0,-0.0,0.2061,0.5289,0.5315,0.4184,0.2838,0.4016,0.556,0.693,0.0,0.0,0.0,0.0,0.0,0.0,0.0,0.0,0.0,0.0,0.0,0.0,0.0,0.0,0.0,0.0,0.0,0.0,0.0,0.0,0.0,0.0,0.0,0.0,0.0,0.0,0.0,0.0,0.0,0.0,3.0914,3.0758,3.0669,3.0726,3.0102,3.0026,3.0289,2.9345,0.0,0.0,0.0,0.0,0.0,0.0,0.0,0.0,0.0,0.0,0.0,0.0,0.0,2.055,2.0339,1.9971,1.9304,1.7881,0.0,1.6964,1.6439,1.6287,1.6174,1.5755,1.6098,1.6163,1.4509,1.4002,1.3573,1.2379,1.1002,1.0003,0.9894,0.8954,0.8225,0.8344,0.7948,0.7664,0.7664,0.7624,0.6989,0.541,0.5228,0.5166,0.511,0.483,0.426,0.3406,-0.1811,-0.4355,-0.3176,-0.4256,-0.4867,-0.4859,-0.4859,-0.5341,-0.6312,-0.511,-0.3604,-0.1721,-0.2984,-0.354,-0.3461,-0.1099,-0.0,0.008,0.2184,0.3128,0.3025,0.1978,0.3143,0.5654,0.6723,0.629,0.5099,0.5097,0.6,0.7094,0.0,0.0,0.0,0.0,0.0,0.0,0.0,0.0,0.0,0.0,0.0,0.0,0.0,0.0,0.0,0.0,0.0,0.0,0.0,0.0,0.0,0.0,0.0,0.0,0.0,0.0,0.0,0.0,0.0,0.0,0.0,0.0,0.0,0.0,0.0,0.0,0.0,0.0,0.0,0.0,0.0,0.0,0.0,0.0,0.0,0.0,0.0,0.0,0.0,0.0,2.4835,2.3108,2.2266,2.1592,2.091,1.9475,1.8469,1.789,1.789,1.7189,1.6641,1.7141,1.7405,1.7311,1.64,1.5474,1.4517,1.3493,1.2082,1.0982,1.0952,1.0162,0.9447,0.9125,0.8464,0.8004,0.7811,0.7684,0.7649,0.7657,0.7612,0.7535,0.7535,0.7446,0.7309,0.7097,0.1585,-0.187,-0.2263,-0.2306,-0.2277,-0.2262,-0.2262,-0.3207,-0.5042,-0.5042,-0.3219,0.0392,0.0392,0.0392,0.0392,0.0472,0.0479,0.0732,0.4839,0.6836,0.691,0.488,0.4045,0.4287,0.6278,0.7098,0.7094,0.7084,0.7081,0.7078,0.0,0.0,0.0,0.0,0.0,0.0,0.0,0.0,0.0,0.0,3.5504,3.5182,0.0,0.0,0.0,0.0,0.0,0.0,0.0,0.0,0.0,0.0,0.0,0.0,0.0,0.0,0.0,0.0,0.0,0.0,0.0,0.0,0.0,0.0,0.0,0.0,0.0,0.0,0.0,0.0,0.0,0.0,0.0,0.0,0.0,0.0,0.0,0.0,0.0,0.0,2.6735,2.4197,2.3921,2.3523,2.2956,2.1915,2.1432,2.1352,2.1352,2.0871,2.0249,1.9466,1.9173,1.8711,1.7237,1.6362,0.0,1.4918,1.3283,1.1986,1.178,1.1076,1.0239,0.9368,0.9198,0.8864,0.7907,0.8506,0.889,0.8861,0.9544,1.0019,1.0019,0.9157,0.8177,0.7162,0.5978,0.4376,0.2105,0.2013,0.1991,0.2029,0.2027,0.1872,0.1482,0.1482,0.1873,0.2578,0.2578,0.2578,0.2581,0.2872,0.2986,0.3003,0.3882,0.5266,0.7083,0.6656,0.6526,0.6542,0.6907,0.7078,0.7061,0.7058,0.7058,0.7058,0.0,0.0,0.0,0.0,0.0,0.0,0.0,3.5622,3.5622,3.5622,3.5622,3.5487,3.5115,3.5081,3.4945,0.0,0.0,0.0,0.0,0.0,0.0,0.0,0.0,0.0,0.0,0.0,3.3515,3.3825,0.0,0.0,0.0,3.3539,3.3591,0.0,0.0,0.0,0.0,0.0,0.0,0.0,0.0,0.0,0.0,0.0,0.0,0.0,0.0,0.0,0.0,0.0,2.8659,2.725,2.6247,2.5419,2.4568,2.333,2.2793,2.2579,2.2579,2.2406,2.2125,2.1818,2.1237,2.0361,1.8834,0.0,0.0,1.5827,1.502,1.4377,1.3689,1.3021,1.2192,1.1171,1.0643,1.0126,0.9566,0.9868,1.0071,0.9975,1.0309,1.0611,1.0611,1.0096,0.9566,0.8935,0.8884,0.775,0.5136,0.4846,0.4757,0.4781,0.4779,0.4779,0.4779,0.4779,0.4779,0.4779,0.4779,0.4779,0.4784,0.5063,0.5317,0.5388,0.5389,0.6031,0.7088,0.7143,0.7514,0.8036,0.8036,0.8372,0.8965,0.8965,0.8965,0.8965,0.0,0.0,0.0,0.0,0.0,0.0,0.0,3.5622,3.5622,3.5622,3.5622,3.5622,3.5622,3.5622,3.5622,0.0,0.0,0.0,0.0,0.0,0.0,0.0,0.0,0.0,0.0,0.0,0.0,3.4826,3.441,0.0,0.0,0.0,0.0,0.0,3.4783,3.4544,0.0,0.0,0.0,0.0,0.0,0.0,0.0,0.0,0.0,0.0,0.0,0.0,0.0,0.0,3.02,3.0153,2.8673,2.7323,2.6081,2.4932,2.4107,2.3675,2.3675,2.3534,2.3413,2.3716,2.3073,2.1945,2.0602,1.938,1.8131,1.6661,1.643,1.6256,1.5487,1.5047,1.4406,1.3299,1.2503,1.1912,1.1637,1.1494,1.1476,1.1811,1.1738,1.1798,1.2043,1.1781,1.1696,1.1696,1.1182,0.9817,0.7488,0.7081,0.6979,0.6979,0.6747,0.6747,0.6979,0.6747,0.6747,0.6979,0.6979,0.6979,0.6983,0.727,0.7523,0.7666,0.7765,0.7835,0.7863,0.7845,0.8448,0.9235,0.9235,0.9836,1.0611,1.0611,1.0611,1.0611,0.0,0.0,0.0,0.0,0.0,0.0,0.0,3.5622,3.5622,3.5622,3.5622,3.5622,3.5622,3.5622,3.5622,0.0,0.0,0.0,0.0,0.0,0.0,0.0,0.0,0.0,0.0,0.0,0.0,3.6923,3.6847,0.0,0.0,0.0,0.0,0.0,0.0,3.547,3.5362,0.0,0.0,0.0,0.0,0.0,0.0,0.0,0.0,0.0,0.0,0.0,0.0,0.0,0.0,3.0956,3.0432,2.917,2.7808,2.7446,0.0,0.0,2.6158,2.5508,2.4803,2.485,2.412,2.3123,2.2037,2.0419,1.8955,1.7938,1.6652,1.5815,1.6059,1.628,1.6149,1.5105,1.492,1.4413,1.3355,1.3218,1.3736,1.5043,1.5162,1.5598,1.6585,1.5778,1.5165,1.5165,1.2868,1.0917,0.97,0.9228,0.8998,0.8998,0.8165,0.8089,0.8998,0.8089,0.8089,0.8998,0.8998,0.8998,0.9013,0.9414,0.9604,0.9648,1.0059,1.025,1.0269,1.0265,1.0351,1.0438,1.0438,1.0524,1.0611,1.0611,1.0611,1.0611,0.0,0.0,0.0,0.0,0.0,0.0,3.5622,3.5622,3.5622,3.5622,3.5622,3.5622,3.5622,3.5622,3.5739,3.6054,0.0,0.0,0.0,0.0,0.0,0.0,0.0,0.0,0.0,0.0,3.7323,3.7614,3.7323,0.0,0.0,0.0,0.0,0.0,0.0,3.5898,3.5577,0.0,0.0,0.0,0.0,0.0,0.0,0.0,0.0,0.0,0.0,0.0,3.1511,0.0,0.0,0.0,3.1123,3.0229,0.0,0.0,2.8784,2.8066,2.8478,2.7639,2.665,2.665,2.529,2.3758,2.3049,2.1642,2.0264,1.9626,1.9235,1.8824,1.8337,1.8156,1.773,1.6602,1.6038,1.5504,1.5001,1.5195,1.566,1.6229,1.6532,1.6846,1.7261,1.6895,1.6635,1.6635,1.5253,1.4171,1.3712,1.0889,0.9296,0.9296,0.8917,0.8922,0.9296,0.8922,0.8922,0.9296,0.9296,0.9367,0.9581,0.9802,1.0009,1.0238,1.0474,1.0611,1.0611,1.0611,1.1037,1.1638,1.1638,1.2077,1.2693,1.2693,1.2693,1.2693,0.0,0.0,0.0,0.0,0.0,3.5622,3.5622,3.5622,3.5622,3.5622,3.5622,3.5622,3.5622,3.5622,3.5898,3.658,3.6498,0.0,0.0,0.0,0.0,0.0,0.0,0.0,0.0,0.0,3.7826,3.815,3.7826,3.756,0.0,0.0,3.7135,3.6661,0.0,0.0,0.0,0.0,0.0,0.0,0.0,0.0,0.0,0.0,0.0,0.0,0.0,0.0,0.0,0.0,0.0,0.0,0.0,0.0,0.0,0.0,2.9984,2.9384,2.9633,2.907,2.8331,2.8157,2.6672,2.5186,2.4703,2.322,2.1858,2.1423,2.116,2.0853,2.0194,1.9813,1.9383,1.861,1.7916,1.7578,1.7578,1.7516,1.7739,1.8158,1.8199,1.8344,1.8852,1.9049,1.9122,1.9122,1.8118,1.737,1.7164,1.3467,1.1323,1.1057,1.0473,1.0335,1.0634,1.0335,1.0185,1.0196,1.049,1.0621,1.0645,1.0806,1.105,1.1377,1.1544,1.1649,1.1649,1.1649,1.2077,1.2851,1.3178,1.362,1.4173,1.4496,1.4412,1.4173,0.0,0.0,0.0,0.0,0.0,0.0,3.5622,3.5622,3.5622,3.5622,3.5622,3.5622,3.5622,3.5622,3.6054,3.7097,3.6724,0.0,0.0,0.0,0.0,0.0,0.0,0.0,0.0,0.0,3.8676,3.8707,3.8676,3.8415,3.7893,3.7893,3.7649,3.7173,0.0,0.0,0.0,0.0,0.0,0.0,0.0,0.0,0.0,0.0,0.0,0.0,0.0,0.0,0.0,0.0,0.0,0.0,0.0,0.0,0.0,0.0,3.0142,2.9827,2.9168,2.9508,2.9813,2.9154,2.8484,2.7817,2.7272,2.5406,2.3603,2.3113,2.1744,2.0747,2.1085,2.1174,2.1174,2.1174,2.1174,2.1174,2.1174,2.0236,2.0123,2.1636,2.086,2.0807,2.2517,2.3089,2.3441,2.3441,2.1646,2.0153,1.9328,1.7367,1.5992,1.5155,1.3179,1.2677,1.3673,1.2684,1.2178,1.2298,1.3237,1.3336,1.2759,1.3066,1.3287,1.3579,1.3955,1.4088,1.4088,1.4088,1.4088,1.4166,1.5213,1.5061,1.425,1.5296,1.497,1.425,0.0,0.0,0.0,0.0,0.0,0.0,0.0,3.5622,3.5622,3.5622,3.5622,3.5622,3.5622,3.5622,3.6054,3.7097,3.702,0.0,0.0,0.0,0.0,0.0,0.0,0.0,0.0,0.0,3.8707,3.8707,3.8707,3.8627,3.8465,3.8465,3.8183,3.7685,3.7685,3.7396,0.0,0.0,0.0,0.0,0.0,0.0,0.0,0.0,0.0,0.0,0.0,0.0,0.0,0.0,0.0,0.0,0.0,0.0,0.0,0.0,0.0,0.0,3.1302,3.0488,2.9505,2.9245,2.798,2.6703,2.6569,2.5687,2.4842,2.4654,2.4257,2.3949,2.406,2.3573,2.3188,2.3188,2.2665,2.2273,2.2273,2.2651,2.3078,2.3555,2.397,2.4462,2.4953,2.4637,2.4412,2.4412,2.2657,2.1428,2.115,1.9977,1.7986,1.5305,1.4577,1.4434,1.4736,1.4434,1.4283,1.4307,1.4593,1.4895,1.5156,1.5196,1.5568,1.6126,1.6234,1.6281,1.6281,1.6281,1.6281,1.6281,1.6683,1.6609,1.6363,1.6683,1.6609,1.6363,0.0,0.0,0.0,0.0,0.0,0.0,0.0,3.5622,3.5622,3.5622,3.5622,3.5622,3.5622,3.5783,3.6249,3.7097,3.736,0.0,0.0,0.0,0.0,0.0,0.0,0.0,3.8707,3.8707,3.8707,3.8707,3.8707,3.8707,3.8707,3.8707,3.8515,3.8183,3.8183,3.7929,0.0,0.0,0.0,0.0,0.0,0.0,3.556,0.0,0.0,0.0,0.0,0.0,0.0,0.0,0.0,0.0,0.0,0.0,0.0,0.0,0.0,0.0,0.0,3.1499,3.0702,2.9957,2.8612,2.7399,2.7157,0.0,0.0,0.0,2.5563,2.5398,2.5398,2.4953,2.4617,2.4617,2.4165,2.3845,2.4125,2.4753,2.5262,2.5471,2.6509,2.7205,2.6948,2.6588,2.6392,2.6392,2.488,2.3724,2.3073,2.2046,2.0169,1.7328,1.6582,1.6244,1.6244,1.5922,1.5579,1.5234,1.5732,1.6032,1.6228,1.6368,1.6764,1.7342,1.7342,1.7342,0.0,1.7342,1.7342,1.7334,1.7747,1.7658,1.7342,1.7738,1.7666,1.7334,0.0,0.0,0.0,0.0,0.0,0.0,0.0,3.5622,3.5622,3.5622,3.5622,3.5622,3.5622,3.6097,3.662,3.7135,0.0,0.0,0.0,0.0,0.0,0.0,0.0,0.0,3.8707,3.8707,3.8707,3.8707,3.8707,3.8707,3.8707,3.8707,3.8707,3.8707,3.8707,3.8382,0.0,0.0,0.0,0.0,0.0,0.0,0.0,0.0,0.0,0.0,0.0,0.0,0.0,0.0,0.0,0.0,0.0,0.0,0.0,0.0,0.0,0.0,0.0,3.2501,3.2987,3.1112,3.0193,2.9546,2.8884,0.0,0.0,0.0,0.0,0.0,2.57,2.5659,2.5659,2.57,2.57,2.591,2.6582,2.6807,2.7059,2.7593,2.8757,2.9232,2.8549,2.8878,2.915,2.9108,2.7917,2.6539,2.495,2.3809,2.2518,2.1014,1.9183,1.8188,1.8054,1.7288,1.6498,1.5683,1.6839,1.7087,1.6565,1.6926,1.7296,1.7496,1.7496,1.7496,1.7496,1.7496,1.7496,1.7666,1.8718,1.847,1.7666,1.8718,1.847,1.7658,0.0,0.0,0.0,0.0,0.0,0.0,0.0,0.0,0.0,0.0,3.5622,3.5622,3.5622,3.6097,3.662,0.0,0.0,0.0,0.0,0.0,0.0,0.0,0.0,0.0,3.8707,3.8707,3.8707,3.8707,3.8707,3.8707,3.8707,3.8707,3.8707,3.8707,3.8707,3.8382,0.0,0.0,0.0,0.0,0.0,0.0,0.0,0.0,0.0,0.0,3.5622,3.5622,0.0,0.0,0.0,0.0,0.0,0.0,0.0,0.0,3.4382,0.0,3.3323,0.0,3.2688,3.2218,3.1618,3.0923,0.0,0.0,0.0,0.0,0.0,0.0,0.0,2.8097,2.7917,2.837,2.845,2.8731,2.9448,3.0444,3.1176,3.1244,3.206,3.2263,3.1554,3.1054,3.0529,3.0,2.8264,2.6809,2.5918,2.5189,2.467,2.4257,2.2698,2.1237,1.9966,1.9781,1.9756,1.9963,1.9486,1.9606,2.0132,1.9524,1.9439,1.9835,1.9835,1.9835,1.9835,1.9835,1.9835,1.9835,2.0079,2.0079,1.9835,2.0157,2.0079,1.9835,0.0,0.0,0.0,0.0,0.0,0.0,0.0,0.0,0.0,0.0,0.0,3.5622,3.5622,3.6291,0.0,0.0,0.0,0.0,0.0,0.0,0.0,0.0,0.0,3.8707,3.8707,3.8707,3.8707,3.8707,3.8707,3.8707,3.8707,3.8707,3.8707,3.8707,3.8707,3.8546,3.8267,3.8267,0.0,0.0,3.7506,0.0,0.0,0.0,0.0,0.0,3.5694,3.5622,0.0,3.5622,3.5622,3.5622,0.0,0.0,0.0,0.0,3.5052,3.5005,3.4609,3.4007,3.3389,3.2771,3.2352,3.1807,3.0764,0.0,0.0,0.0,0.0,0.0,0.0,2.9614,2.9694,2.9454,3.0359,3.1155,3.1271,3.2158,3.2718,3.251,3.3324,3.3632,3.3088,3.2635,3.2044,3.1365,2.9984,2.8586,2.7265,2.6648,2.6065,2.5398,2.4869,2.3739,2.2088,2.1358,2.1239,2.1733,2.141,2.1572,2.2082,2.1723,2.1657,2.1897,2.1897,2.1897,2.1897,2.1897,2.1897,2.1897,2.1897,2.1897,2.1897,2.1897,2.1897,2.1897,0.0,0.0,0.0,0.0,0.0,0.0,0.0,0.0,0.0,0.0,0.0,0.0,0.0,0.0,0.0,0.0,0.0,0.0,0.0,0.0,0.0,0.0,3.8707,3.8707,3.8707,3.8707,3.8707,3.8707,3.8707,3.8707,3.8707,3.8707,3.8707,3.8707,3.8707,3.8707,3.8707,3.8707,3.8433,3.8013,3.8013,0.0,0.0,0.0,0.0,0.0,0.0,0.0,0.0,3.5667,3.565,3.5694,3.5622,0.0,0.0,0.0,0.0,0.0,3.5739,3.5441,3.4828,3.3405,3.3048,3.2676,3.1283,0.0,0.0,0.0,0.0,0.0,0.0,3.0705,3.1032,3.0185,3.1933,3.323,3.2813,3.3296,3.3489,3.3092,3.4008,3.4448,3.3843,3.3728,3.337,3.2515,3.1759,3.0542,2.8622,2.8011,2.7202,2.6059,2.6455,2.6034,2.4674,2.3095,2.2511,2.2912,2.3133,2.3256,2.3217,2.3408,2.3514,2.3514,2.3514,2.3514,2.3514,2.3514,2.3514,2.3514,2.3514,2.3514,2.3514,2.3514,2.3514,2.3514,0.0,0.0,0.0,0.0,0.0,0.0,0.0,0.0,0.0,0.0,0.0,0.0,0.0,0.0,0.0,0.0,0.0,0.0,0.0,0.0,0.0,3.8707,3.8707,3.8707,3.8707,3.8707,3.8707,3.8707,3.8707,3.8707,3.8707,3.8707,3.8707,3.8707,3.8707,3.8707,3.8707,3.8707,3.8658,3.8596,3.8596,0.0,0.0,0.0,0.0,0.0,0.0,0.0,0.0,3.5898,3.5898,3.6224,3.5739,0.0,0.0,0.0,0.0,0.0,3.6266,3.7015,3.7393,3.5571,3.5148,3.4762,3.3285,3.2949,0.0,0.0,0.0,0.0,0.0,3.2001,3.1891,3.2896,3.3863,3.4726,3.532,3.606,3.6289,3.5556,3.6233,3.6162,3.4766,3.4379,3.3638,3.2278,3.1157,3.0193,2.9309,2.9166,2.8998,2.8885,2.8368,2.8236,2.8446,2.7056,2.6321,2.6194,2.541,2.4913,2.4673,2.3857,2.3514,2.3514,2.3514,2.3514,2.3514,2.3514,2.3514,2.3514,2.3514,2.3514,2.3514,2.3514,2.3514,2.3514,0.0,0.0,0.0,0.0,0.0,0.0,0.0,0.0,0.0,0.0,0.0,0.0,0.0,0.0,0.0,0.0,0.0,0.0,0.0,0.0,3.8707,3.8707,3.8707,3.8707,3.8707,3.8707,3.8707,3.8707,3.8707,3.8707,3.8707,3.8707,3.8707,3.8707,3.8707,3.8707,3.8707,3.8707,3.8707,3.8707,0.0,0.0,0.0,0.0,0.0,0.0,0.0,0.0,0.0,0.0,3.6643,3.6803,3.6563,0.0,0.0,0.0,0.0,0.0,3.6843,3.7284,3.7556,3.669,3.6793,3.6707,3.5144,3.4797,0.0,0.0,0.0,0.0,3.3283,3.3766,3.4609,3.6352,3.5788,3.5508,3.6566,3.6656,3.6522,3.6305,3.629,3.6043,3.5456,3.4653,3.375,3.2676,3.1884,3.0964,2.9941,3.025,3.0338,3.0054,3.0083,3.0236,3.0558,2.9884,2.9043,2.8021,2.7571,2.7249,2.7139,2.6177,2.5763,2.5775,2.5322,2.5134,2.5134,2.5134,2.5134,2.5134,2.5134,2.5134,2.5134,2.5134,2.5134,2.5134,0.0,0.0,0.0,0.0,0.0,0.0,0.0,0.0,0.0,0.0,0.0,0.0,0.0,0.0,0.0,0.0,0.0,0.0,0.0,3.8707,3.8707,3.8707,3.8707,3.8707,3.8707,3.8707,3.8707,3.8707,3.8707,3.8707,3.8707,3.8707,3.8707,3.8707,3.8707,3.8707,3.8707,3.8707,3.8707,3.8707,0.0,0.0,0.0,0.0,0.0,0.0,0.0,0.0,0.0,0.0,0.0,0.0,0.0,0.0,0.0,3.719,3.7285,3.736,3.736,3.7576,3.7739,3.7363,0.0,3.7512,3.6289,3.59,3.5527,0.0,0.0,3.4357,3.4375,3.5454,3.6846,3.8376,3.7045,3.6203,3.7359,3.685,3.6427,3.6614,3.6146,3.5802,3.5803,3.4818,3.384,3.3106,3.2614,3.1941,3.0974,3.1475,3.1609,3.1237,3.1752,3.2044,3.206,3.2011,3.1087,2.9317,2.9317,2.9192,2.9002,2.8298,2.7986,2.7986,2.7351,2.7095,2.7095,2.7095,2.7095,2.7095,2.685,2.6658,2.6533,2.6533,2.6533,2.6533,0.0,0.0,0.0,0.0,0.0,0.0,0.0,0.0,0.0,0.0,0.0,0.0,0.0,0.0,0.0,0.0,0.0,0.0,0.0,3.8707,3.8707,3.8707,3.8707,3.8707,3.8707,3.8707,3.8707,3.8707,3.8707,3.8707,3.8707,3.8707,3.8707,3.8707,3.8707,3.8707,3.8707,3.8707,3.8707,3.8707,3.8707,0.0,0.0,0.0,0.0,0.0,0.0,0.0,0.0,0.0,0.0,0.0,0.0,0.0,3.719,3.719,3.7506,3.7859,3.7859,3.8761,3.9328,3.7857,3.678,3.6074,3.6023,3.5681,0.0,3.5286,0.0,3.6298,3.6285,3.6686,3.7084,3.7219,3.7103,3.7265,3.8112,3.7544,3.7032,3.7047,3.6789,3.6333,3.5602,3.4827,3.406,3.3268,3.277,3.2582,3.2807,3.2855,3.3019,3.3277,3.3332,3.3405,3.3467,3.3463,3.2369,3.0208,3.0208,2.9766,2.9002,2.8939,2.8939,2.8876,2.8876,2.8812,2.8812,2.8812,2.8812,2.8748,2.792,2.7162,2.6533,2.6533,2.6533,2.6533,0.0,0.0,0.0,0.0,0.0,0.0,0.0,0.0,0.0,0.0,0.0,0.0,0.0,0.0,0.0,0.0,0.0,0.0,0.0,3.8707,3.8707,3.8707,3.8707,3.8707,3.8707,3.8707,3.8707,3.8707,3.8707,3.8792,3.8933,3.8792,3.8773,3.8933,3.8792,3.8707,3.8707,3.8707,3.8707,3.8707,3.8707,3.8707,0.0,0.0,0.0,0.0,0.0,0.0,0.0,0.0,3.8234,3.835,0.0,0.0,3.8135,3.8135,3.8267,3.8382,3.8382,3.8879,3.9137,3.8044,3.7193,0.0,0.0,3.704,3.6833,3.6508,3.7093,3.7589,3.7253,3.7986,3.8553,3.821,3.8154,3.8268,3.8571,3.7887,3.7356,3.7356,3.6672,3.6012,3.5565,3.4539,3.3702,3.3232,3.2777,3.2668,3.2968,3.3415,3.3802,3.4114,3.4154,3.4216,3.4235,3.3786,3.3203,3.2369,3.1916,3.1319,3.0524,3.0011,2.9827,2.9766,2.9254,2.9002,2.9002,2.9002,2.9002,2.9002,2.862,2.8298,2.8051,2.8051,2.8051,2.8051,0.0,0.0,0.0,0.0,0.0,0.0,0.0,0.0,0.0,0.0,0.0,0.0,0.0,0.0,0.0,0.0,0.0,0.0,3.8707,3.8707,3.8707,3.8707,3.8707,3.8707,3.8707,3.8707,3.8707,3.8707,3.8707,3.8844,3.9099,3.8815,3.8844,3.9099,3.8815,3.8707,3.8707,3.8707,3.8707,3.8707,3.8707,3.8707,0.0,0.0,0.0,0.0,0.0,0.0,0.0,0.0,0.0,0.0,0.0,0.0,0.0,0.0,3.8946,3.925,3.925,3.9231,3.9151,3.8602,0.0,0.0,3.8051,3.8009,3.7849,3.801,3.84,3.8613,3.8206,3.8899,3.9317,3.8667,3.8551,3.8437,3.8169,3.7405,3.6869,3.6869,3.6159,3.5584,3.5393,3.4426,3.3721,3.3533,3.313,3.3158,3.3758,3.4284,3.4697,3.5096,3.5116,3.5111,3.4941,3.4447,3.4153,3.3937,3.3443,3.2734,3.1853,3.1276,3.0925,3.0644,3.0072,2.9766,2.9766,2.9766,2.9628,2.938,2.938,2.9254,2.9002,2.9002,2.9002,2.9002,0.0,0.0,0.0,0.0,0.0,0.0,0.0,0.0,0.0,0.0,0.0,0.0,0.0,0.0,0.0,0.0,0.0,0.0,3.8707,3.8707,3.8707,3.8707,3.8707,3.8707,3.8707,3.8707,3.8707,3.8707,3.8707,3.8844,3.9099,3.8815,3.8844,3.9099,3.8815,3.8707,3.8707,3.8707,3.8707,3.8707,3.8707,3.8707,3.8707,0.0,0.0,0.0,0.0,0.0,0.0,0.0,0.0,0.0,0.0,0.0,0.0,3.8707,3.9486,4.0374,4.0383,4.0002,3.9622,3.9664,0.0,0.0,3.8613,3.823,3.8079,3.9757,3.9727,3.9369,3.933,3.9345,3.909,3.8161,3.8007,3.77,3.6834,3.6007,3.5493,3.5493,3.5273,3.5105,3.5105,3.4555,3.42,3.42,3.3979,3.4319,3.5457,3.5515,3.5776,3.6364,3.6416,3.6139,3.5622,3.5622,3.527,3.4624,3.4624,3.3887,3.2602,3.2602,3.2216,3.1539,3.1539,3.1539,3.1482,3.1482,3.1029,3.0329,3.0329,2.9766,2.9002,2.9002,2.9002,2.9002,0.0,0.0,0.0,0.0,0.0,0.0,0.0,0.0,0.0,0.0,0.0,0.0,0.0,0.0,0.0,0.0,0.0,0.0,3.8707,3.8707,3.8707,3.8707,3.8707,3.8707,3.8707,3.8707,3.8707,3.8707,3.8884,3.9144,3.9438,3.9144,3.9144,3.9432,3.8913,3.8707,3.8707,3.8707,3.8707,3.8707,3.8707,3.8707,3.8707,0.0,0.0,0.0,0.0,0.0,0.0,0.0,0.0,0.0,0.0,0.0,3.875,3.8923,3.9203,3.9394,3.9027,3.9422,3.9658,3.846,0.0,0.0,0.0,3.8912,0.0,0.0,4.0031,3.9527,3.9508,3.9979,3.9923,3.8464,3.82,3.7911,3.7031,3.6147,3.5584,3.5584,3.5451,3.5304,3.5122,3.4944,3.4656,3.4223,3.468,3.5146,3.5475,3.6038,3.6522,3.6964,3.662,3.6333,3.6182,3.5783,3.5515,3.5316,3.5316,3.4592,3.3287,3.3287,3.2933,3.2272,3.2272,3.1951,3.1482,3.1482,3.1351,3.1161,3.1161,3.097,3.0777,3.0777,3.0777,3.0777,0.0,0.0,0.0,0.0,0.0,0.0,0.0,0.0,0.0,0.0,0.0,0.0,0.0,0.0,0.0,0.0,0.0,0.0,0.0,3.8707,3.8707,3.8707,3.8707,3.8707,3.8707,3.8707,3.8707,3.8707,3.899,3.9264,3.9599,3.9257,3.9264,3.9576,3.897,3.8707,3.8707,3.8707,3.8707,3.8707,3.8707,3.8707,3.8707,0.0,0.0,0.0,0.0,0.0,0.0,0.0,0.0,0.0,0.0,0.0,3.8968,3.9454,3.9776,3.9967,4.0,4.0176,4.0173,3.9465,3.9372,3.9576,3.9961,3.9865,3.9928,4.0649,4.0467,4.0133,4.009,4.0235,3.9917,3.852,3.8001,3.7479,3.6609,3.5968,3.5611,3.5597,3.5545,3.5432,3.5273,3.5155,3.4907,3.4423,3.5091,3.5584,3.583,3.6567,3.7151,3.7488,3.6981,3.662,3.6374,3.5854,3.5622,3.5622,3.5622,3.5161,3.4399,3.4137,3.3495,3.2586,3.2272,3.2064,3.191,3.164,3.1482,3.1482,3.1482,3.1482,3.1482,3.1482,3.1482,3.1482,0.0,0.0,0.0,0.0,0.0,0.0,0.0,0.0,0.0,0.0,0.0,0.0,0.0,0.0,0.0,0.0,0.0,0.0,0.0,3.8707,3.8707,3.8707,3.8707,3.8707,3.8707,3.8707,3.8707,3.8707,3.8999,3.9308,3.9552,3.9264,3.9289,3.9529,3.8942,3.8707,3.8707,3.8707,3.8707,3.8707,3.8707,3.8707,3.8707,3.8707,0.0,0.0,0.0,0.0,0.0,0.0,0.0,0.0,3.8719,3.8894,3.9275,4.012,4.0835,4.1474,4.2144,4.1585,4.0981,4.1613,4.0746,3.9947,4.0823,4.0906,4.0824,4.0831,4.0934,4.0984,4.0852,4.0226,3.9408,3.8481,3.7591,3.6722,3.5846,3.5682,3.5621,3.5611,3.5565,3.5526,3.5493,3.5289,3.5035,3.4773,3.5304,3.585,3.6315,3.7158,3.7729,3.7962,3.7506,3.702,3.6522,3.5985,3.565,3.565,3.5605,3.5622,3.5577,3.4988,3.3987,3.2734,3.2007,3.2048,3.2641,3.1894,3.1582,3.1582,3.1524,3.1482,3.1482,3.1482,3.1482,3.1482,0.0,0.0,0.0,0.0,0.0,0.0,0.0,0.0,0.0,0.0,0.0,0.0,0.0,0.0,0.0,0.0,0.0,0.0,0.0,3.8707,3.8707,3.8707,3.8707,3.8707,3.8707,3.8707,3.8707,3.8707,3.9223,3.9389,3.9212,3.9389,3.9389,3.9186,3.8844,3.8707,3.8707,3.8707,3.8707,3.8707,3.8707,3.8707,3.8707,3.8707,3.8707,0.0,0.0,0.0,0.0,0.0,0.0,0.0,3.8933,3.9044,3.9223,3.9958,4.0779,4.1245,4.0336,4.0931,4.1533,4.0393,4.0409,4.0738,4.095,4.0976,4.098,4.1094,4.1136,4.115,4.1123,4.0428,3.957,3.8685,3.7805,3.6926,3.6067,3.589,3.5807,3.5689,3.5622,3.5565,3.5526,3.5446,3.5304,3.5034,3.6113,3.6723,3.6623,3.7771,3.8475,3.8546,3.8032,3.7685,3.7578,3.6666,3.6224,3.6224,3.5827,3.5622,3.5577,3.547,3.4958,3.4137,3.3427,3.3235,3.3339,3.2641,3.2382,3.2327,3.1739,3.1482,3.1482,3.1482,3.1482,3.1556,0.0,0.0,0.0,0.0,0.0,0.0,0.0,0.0,0.0,0.0,0.0,0.0,0.0,0.0,0.0,0.0,0.0,0.0,0.0,0.0,3.8707,3.8707,3.8707,3.8707,3.8707,3.8707,3.8707,3.8707,3.9301,3.951,3.9339,3.9529,3.9505,3.9314,3.8902,3.8707,3.8707,3.8707,3.8707,3.8707,3.8707,3.8707,3.8707,3.8707,3.8707,3.8707,3.8707,0.0,0.0,0.0,0.0,0.0,0.0,0.0,3.9532,4.0399,4.0578,4.0516,4.0611,4.0793,4.0842,4.039,4.0638,4.097,4.0917,4.0905,4.093,4.0982,4.1062,4.1113,4.1191,4.0156,3.9121,3.8672,3.7519,3.6523,3.6055,3.5937,3.587,3.5788,3.5673,3.5603,3.5565,3.5526,3.5383,3.5122,3.6464,3.7125,3.6733,3.809,3.8844,3.8707,3.8183,3.7893,3.7893,3.7173,3.6764,3.6764,3.6249,3.5854,3.5577,3.527,3.5098,3.5005,3.4037,3.3786,3.4037,3.3339,3.3093,3.3039,3.268,3.2516,3.2461,3.216,3.2007,3.2057,0.0,0.0,0.0,0.0,0.0,0.0,0.0,0.0,0.0,0.0,0.0,0.0,0.0,0.0,0.0,0.0,0.0,0.0,0.0,0.0,0.0,3.8707,3.8707,3.8707,3.8707,3.8707,3.8719,3.8762,3.9327,3.9599,3.9599,3.9599,3.9576,3.9505,3.8942,3.8707,3.8707,3.8707,3.8707,3.8707,3.8707,3.8707,3.8707,3.8707,3.8707,3.8707,3.8707,3.8707,3.8707,3.8707,0.0,0.0,0.0,0.0,3.9867,4.0863,4.0436,3.9931,4.1239,4.0655,3.9902,4.0776,4.0966,4.094,4.081,4.0771,4.0773,4.0773,4.0871,4.0991,4.1108,3.9839,3.8726,3.8571,3.7226,3.6133,3.5996,3.5937,3.5918,3.5898,3.5749,3.5635,3.5597,3.5565,3.5475,3.5381,3.6705,3.7373,3.7074,3.835,3.8999,3.8792,3.8281,3.8032,3.8032,3.7542,3.7323,3.7323,3.6803,3.6249,3.5739,3.5157,3.5174,3.5532,3.4447,3.4235,3.4736,3.4037,3.3786,3.3735,3.3633,3.3582,3.3531,3.2986,3.2788,3.2804,0.0,0.0,0.0,0.0,0.0,0.0,0.0,0.0,0.0,0.0,0.0,0.0,0.0,0.0,0.0,0.0,0.0,0.0,0.0,0.0,0.0,3.8707,3.8707,3.8707,3.8707,3.8707,3.8815,3.9063,3.9432,3.9599,3.9599,3.9599,3.9457,3.9133,3.8844,3.8707,3.8707,3.8707,3.8707,3.8707,3.8707,3.8707,3.8707,3.8707,3.8707,3.8707,3.8707,3.8707,3.8707,3.8707,3.8855,0.0,0.0,0.0,4.012,4.0488,4.0608,4.0506,4.0043,3.9802,3.9913,4.0781,4.0908,4.0808,4.0718,4.0708,4.0716,4.0716,4.0768,4.0838,4.0857,4.0091,3.9221,3.8455,3.7561,3.6719,3.6016,3.5957,3.5976,3.5918,3.5876,3.5788,3.5618,3.5603,3.5839,3.6445,3.7116,3.7795,3.8479,3.8882,3.9072,3.9063,3.8737,3.8578,3.8578,3.8065,3.779,3.779,3.7323,3.6803,3.6308,3.619,3.595,3.5577,3.5407,3.5362,3.5407,3.4736,3.4479,3.4431,3.3836,3.3582,3.3582,3.3495,3.3495,3.3618,0.0,0.0,0.0,0.0,0.0,0.0,0.0,0.0,0.0,0.0,0.0,0.0,0.0,0.0,0.0,0.0,0.0,0.0,0.0,0.0,0.0,3.8707,3.8707,3.8707,3.8707,3.8707,3.8844,3.9099,3.9457,3.9709,0.0,3.969,3.9414,3.9099,3.8815,3.8707,3.8707,3.8707,3.8707,3.8707,3.8707,3.8964,3.9313,3.8872,3.8982,3.9313,3.8854,3.8707,3.8707,3.8707,3.8884,3.9178,3.9486,0.0,0.0,0.0,4.0046,3.9339,3.9115,3.9363,3.9877,4.0696,4.0812,4.0716,4.062,4.06,4.06,4.06,4.0615,4.068,4.0776,4.0145,3.9313,3.8446,3.7617,3.6812,3.6014,3.5957,3.5996,3.5957,3.5918,3.584,3.5669,3.5623,3.5911,3.6642,3.736,3.807,3.8747,3.9169,3.9289,3.9125,3.8844,3.8707,3.8707,3.8465,3.8183,3.7911,3.7685,3.7323,3.6843,3.6539,3.6097,3.5622,3.5622,3.5622,3.5577,3.5253,3.5161,3.5144,3.4864,3.4704,3.4657,3.4284,3.4186,3.4347,0.0,0.0,0.0,0.0,0.0,0.0,0.0,0.0,0.0,0.0,0.0,0.0,0.0,0.0,0.0,0.0,0.0,0.0,0.0,0.0,0.0,0.0,3.8707,3.8707,3.8707,3.8707,3.8873,3.9231,3.9481,3.9731,3.9982,3.9731,3.9383,3.8999,3.8773,3.8707,3.8707,3.8707,3.8707,3.8726,3.8927,3.935,3.9845,3.946,3.968,4.0102,3.9294,3.9001,3.8964,3.8781,3.8923,3.9264,3.9529,3.9882,0.0,0.0,0.0,3.8001,3.8183,3.8622,3.9237,4.0192,4.0389,4.0369,4.0485,4.0489,4.0489,4.0489,4.0489,4.0562,4.0696,4.0239,3.955,3.8681,3.7921,3.7119,3.6303,3.6073,3.5996,3.5996,3.5957,3.5947,3.6028,3.5983,3.6339,3.7296,3.7969,3.8585,3.9201,3.9477,3.9505,3.9238,3.8884,3.8707,3.8707,3.8707,3.8496,3.8099,3.8099,3.7843,3.736,3.6981,3.6481,3.6011,3.5739,3.5622,3.5622,3.5622,3.5622,3.5622,3.5622,3.5622,3.5515,3.5052,3.5079,3.5611,0.0,0.0,0.0,0.0,0.0,0.0,0.0,0.0,0.0,0.0,0.0,0.0,3.8707,3.8707,3.8707,3.8707,3.8707,3.8707,3.8707,3.8707,3.8707,3.8707,3.8707,0.0,3.8707,3.8707,3.8998,3.9576,3.9599,0.0,3.9622,3.9599,3.9294,3.8719,3.8707,3.8707,3.8707,3.8707,3.8707,3.8781,3.9533,3.9845,3.9974,4.0708,4.102,4.0946,4.012,3.9827,3.9717,3.8964,3.9073,3.9576,3.9599,4.0004,4.0335,0.0,0.0,0.0,3.7249,3.721,3.7517,3.9083,3.9427,3.9565,4.0315,4.0489,4.0489,4.0489,4.0489,4.0489,4.0508,4.0469,4.0181,3.9373,3.8695,3.7932,3.7058,3.6404,3.5996,3.5996,3.5996,3.6237,3.6864,3.6926,3.755,3.9046,3.92,3.9585,4.0358,3.9886,3.9599,3.9576,3.9027,3.8707,3.8707,3.8707,3.8676,3.8658,3.8658,3.8382,3.7859,3.7825,3.7578,3.7058,3.6054,3.5622,3.5622,3.5622,3.5622,3.5622,3.5622,3.5622,3.5577,3.556,3.6489,3.7858,0.0,0.0,0.0,0.0,0.0,0.0,0.0,0.0,0.0,0.0,0.0,0.0,0.0,3.8707,3.8707,3.8707,3.823,3.7698,3.7184,3.7165,3.7165,3.7165,3.7165,3.7165,3.7165,3.7165,3.735,3.7735,3.8259,3.8619,3.8848,3.912,3.9152,3.8961,3.8792,3.8707,3.8707,3.8707,3.8707,3.8781,3.957,4.0212,4.0653,4.0414,4.0965,4.1699,4.0359,0.0,3.9845,3.957,3.9547,3.9505,3.8935,3.9204,3.9469,3.8204,3.7482,3.7148,3.7198,3.7102,3.7266,3.8353,3.8965,3.9373,3.9662,4.0123,4.0489,4.0489,4.0489,4.0489,4.0489,4.0489,4.0254,3.9484,3.9219,3.9047,3.8771,3.8122,3.7871,3.8437,3.8008,3.7733,3.787,3.785,3.8266,3.9292,3.933,3.9642,4.045,4.0139,3.9922,3.9922,3.9301,3.8884,3.8707,3.8707,3.8707,3.8707,3.8707,3.8596,3.8382,3.8065,3.779,3.7614,3.6925,3.644,3.6097,3.6097,3.5898,3.5622,3.5622,3.5622,3.574,3.6721,3.7432,3.821,0.0,0.0,0.0,0.0,0.0,0.0,0.0,0.0,0.0,3.8465,0.0,0.0,0.0,0.0,3.8114,3.7698,3.7038,3.6479,3.609,3.6072,3.615,3.6285,3.6303,3.6303,3.6303,3.6303,3.6427,3.6702,3.7243,3.7605,3.784,3.8147,3.8393,3.8554,3.8368,3.845,0.0,0.0,0.0,3.8799,3.9863,4.0469,4.0708,4.0708,4.1203,4.1772,4.0689,0.0,3.9913,4.0001,3.9834,3.9471,3.8707,3.8441,3.8238,3.7267,3.685,3.6718,3.6754,3.6659,3.6766,3.7555,3.8099,3.8584,3.9161,3.97,4.0162,4.0431,4.0489,4.0489,4.0489,4.0489,4.0446,4.0235,4.0092,4.0127,4.0459,3.9916,3.9687,4.0273,3.9824,3.9414,3.9297,3.919,3.9334,3.9807,3.9754,3.9931,4.0469,4.0251,4.0002,3.9775,3.9339,3.8971,3.8707,3.8707,3.8707,3.8707,3.8707,3.8707,3.8707,3.8332,3.8183,3.815,3.7826,3.7285,3.6643,3.6457,3.6182,3.5854,3.565,3.5622,3.5808,3.7347,3.8227,3.9005,0.0,0.0,0.0,0.0,0.0,0.0,0.0,0.0,3.8465,3.798,0.0,0.0,0.0,0.0,0.0,3.5679,3.5162,3.5077,3.5507,3.5539,3.5732,3.6211,3.6229,3.6229,3.6229,3.6229,3.6353,3.6603,3.664,3.664,3.664,3.6677,3.6978,3.7441,3.7441,3.79,3.8634,0.0,3.8707,3.8836,4.0469,4.0616,4.0065,4.1662,4.1791,0.0,4.1075,4.0561,3.9908,4.0205,3.9944,3.9418,3.8898,3.7781,3.6685,3.6901,3.6364,3.5722,0.0,0.0,0.0,3.667,3.6771,3.7161,3.8834,3.9258,3.9508,4.0296,4.0469,4.0489,4.0489,4.0489,4.0777,4.17,4.1277,4.1143,4.2043,4.1654,4.1289,4.1308,4.1289,4.1211,4.1094,4.0959,4.0859,4.0785,4.0639,4.0527,4.0527,4.0269,3.9819,3.9133,3.9125,3.8999,3.8719,3.8689,3.8707,3.8707,3.8707,3.8707,3.8707,3.8707,3.8707,3.8707,3.8707,3.8135,3.721,3.6684,3.6416,3.6374,3.5854,3.5667,3.5808,3.7381,3.887,4.0341,0.0,0.0,0.0,0.0,0.0,3.7738,3.8065,3.7808,3.7826,0.0,0.0,0.0,3.6604,3.6014,3.54,3.4772,3.4618,3.4353,3.39,3.4149,3.4357,3.4486,3.4486,3.4486,3.4486,3.4486,3.4522,3.4592,3.52,3.5468,3.5468,3.6122,3.649,3.6615,3.6615,3.6762,3.7037,3.8212,0.0,3.8836,4.0469,4.0616,4.001,0.0,0.0,0.0,0.0,3.9717,3.9154,4.002,3.904,3.7427,3.711,3.6303,3.5602,3.5907,3.5852,3.5702,3.5757,0.0,0.0,0.0,0.0,0.0,3.7334,3.8392,3.9354,3.9585,4.0085,4.0489,4.0489,4.0489,4.1024,4.2544,4.2217,4.228,4.3821,4.3455,4.3242,4.3867,4.3398,4.2988,4.2969,4.2788,4.2673,4.2637,4.1893,4.145,4.145,4.0768,4.0232,3.9859,3.9819,3.9552,3.8999,3.8999,3.8894,3.8707,3.8707,3.8707,3.8707,3.8707,3.8707,3.8707,3.8707,3.8546,3.8234,3.7703,3.7268,3.6943,3.6843,3.6522,3.6492,3.9095,4.0061,4.0493,0.0,0.0,0.0,0.0,0.0,3.736,3.7825,3.738,3.713,0.0,0.0,0.0,3.5833,3.4323,3.3371,3.3326,3.3156,3.2945,3.2634,3.2854,3.3039,3.3255,3.3255,3.3343,3.355,3.355,3.3634,3.3807,3.4284,3.4504,3.4523,3.5018,3.544,3.5771,3.5771,3.5973,3.6358,0.0,0.0,0.0,3.946,0.0,0.0,4.0175,4.0396,0.0,0.0,0.0,3.886,3.9946,3.8768,3.6878,3.6806,3.602,3.5157,3.5508,3.5628,3.5682,3.5753,3.5801,3.5795,3.5749,0.0,0.0,3.7209,3.8118,3.9061,3.9792,4.0581,4.1174,4.1174,4.1463,4.2171,4.3593,4.35,4.3747,4.5157,4.5018,4.4961,4.5488,4.5098,4.4648,4.4277,4.4055,4.3788,4.3429,4.2742,4.2335,4.2335,4.1527,4.091,4.0616,4.0272,3.9859,3.9314,3.916,3.9008,3.8855,3.8762,3.8707,3.8707,3.8707,3.8707,3.8707,3.8707,3.8707,3.8676,3.8382,3.7946,3.747,3.7303,3.7232,3.7545,4.0013,4.0913,4.1289,0.0,0.0,3.6274,3.6187,3.6584,3.7051,3.7433,3.6823,3.6237,0.0,3.5909,3.5496,3.4258,3.2367,3.1351,3.1752,3.147,3.1411,3.1789,3.1861,3.2057,3.2484,3.2484,3.2681,3.3105,3.3184,3.3379,3.3734,3.378,3.3807,3.3807,3.3807,3.4192,3.4862,3.4862,3.5312,3.6009,0.0,0.0,3.6342,3.7959,3.818,0.0,0.0,3.9375,3.8842,3.9528,3.9239,3.8713,3.9555,3.8677,3.7184,3.73,3.6405,3.5353,3.5532,3.5661,3.5751,3.5838,3.5799,3.5742,3.5859,3.5749,0.0,3.7654,3.8097,3.8651,4.0198,4.1292,4.1947,4.1947,4.2568,4.3389,4.4279,4.4596,4.507,4.5967,4.6227,4.6308,4.6308,4.6308,4.5996,4.5213,4.4967,4.4517,4.3742,4.3395,4.3181,4.3104,4.2374,4.181,4.1514,4.0807,4.0231,3.98,3.9446,3.9227,3.9099,3.8815,3.8707,3.8707,3.8707,3.8707,3.8707,3.8707,3.8707,3.8707,3.8707,3.8415,3.7946,3.7506,3.782,3.8663,4.042,4.1551,4.2445,0.0,0.0,3.5596,3.4967,3.4951,3.5005,3.4938,3.4419,3.4298,3.5031,3.4306,3.3336,3.2406,3.1631,3.1351,3.1752,3.1733,3.1733,3.1771,3.2161,3.2417,3.2484,3.2484,3.255,3.2648,3.3014,3.3243,3.3302,3.3634,3.3807,3.3807,3.3807,3.388,3.4027,3.4027,3.4137,0.0,0.0,0.0,3.5808,3.7429,3.7941,3.7912,3.8878,3.9166,3.9017,3.8958,3.8414,3.7672,3.7216,3.7367,3.7555,3.654,3.6436,3.6557,3.5737,3.6059,3.6504,3.5844,3.5766,3.584,3.5762,3.5795,0.0,3.6137,3.7284,3.8388,3.871,3.9946,4.0978,4.0978,4.1112,4.1528,4.2471,4.3312,4.438,4.589,4.6227,4.6308,4.6308,4.6308,4.6223,4.6053,4.5827,4.5595,4.5428,4.4586,4.3778,4.3124,4.2931,4.2819,4.2748,4.2595,4.2009,4.0974,4.0692,4.0065,3.9099,3.8815,3.8707,3.8707,3.8707,3.8707,3.8707,3.8707,3.8707,3.8707,3.8707,3.8627,3.8546,3.8433,3.864,3.9211,4.1465,4.2477,4.3102,0.0,3.4314,3.4404,3.4015,3.3947,3.4023,3.4177,3.364,3.3382,3.3932,3.2936,3.207,3.1841,3.1449,3.1291,3.147,3.1507,3.1507,3.1507,3.1714,3.186,3.186,3.186,3.195,3.2144,3.24,3.2727,3.3214,3.339,3.3606,3.3807,3.3807,3.4009,3.4394,3.3972,3.4027,0.0,0.0,3.4201,3.4963,3.6488,0.0,3.7981,3.8627,3.8902,3.8884,3.8732,3.8432,3.8028,3.7624,3.7329,0.0,3.6926,3.6712,3.6419,0.0,3.6339,3.6617,3.5815,3.5658,0.0,3.5797,3.5801,0.0,0.0,3.7761,3.8615,3.9559,4.071,4.1546,4.1555,4.1914,4.2342,4.2827,4.3691,4.4452,4.4851,4.5711,4.6308,4.6308,4.6309,4.626,4.621,4.6026,4.5867,4.5772,4.524,4.4759,4.4374,4.3932,4.3701,4.3701,4.3316,4.2804,4.22,4.1471,4.0802,4.0207,3.9488,3.9045,3.8894,3.8894,3.8815,3.8707,3.8707,3.8707,3.8707,3.8707,3.8707,3.8707,3.8707,3.9278,4.0231,4.154,4.2875,4.415,0.0,0.0,3.3212,3.3203,3.3186,3.3301,3.3593,3.308,3.2683,3.272,3.1961,3.1533,3.1883,3.1713,3.1613,3.1613,3.1613,3.1562,3.141,3.141,3.141,3.141,3.1275,3.1419,3.1903,3.1821,3.2161,3.2934,3.3105,3.3361,3.368,3.3762,3.4156,3.4761,3.4266,0.0,0.0,0.0,0.0,3.489,0.0,3.6909,3.7673,3.8256,3.8571,3.8709,3.8748,3.8792,3.8743,3.8554,3.7606,3.6636,3.7254,3.6953,0.0,0.0,0.0,3.6757,0.0,0.0,0.0,0.0,3.5906,3.6363,0.0,0.0,0.0,4.0638,4.1582,4.2131,4.2128,4.2714,4.3192,4.318,4.3923,4.4258,4.3551,4.4805,4.5801,4.5801,4.6091,4.6186,4.5909,4.5777,4.566,4.5601,4.547,4.5451,4.5586,4.4932,4.4547,4.4547,4.3912,4.3508,4.3335,4.2298,4.1627,4.1283,4.0306,3.9631,3.9186,3.9125,3.8971,3.8792,3.8719,3.8707,3.8707,3.8707,3.8707,3.8707,3.8707,3.968,4.1137,4.1452,4.3116,4.521,3.2052,3.2557,0.0,3.2428,3.2408,3.2229,3.1608,3.1477,3.1426,3.1426,3.1839,3.2195,3.2258,3.2788,3.3152,3.3152,3.3152,3.2865,3.2205,3.2195,3.2195,3.2195,3.1546,3.1534,3.2241,3.1967,3.1844,3.1951,3.2809,3.3214,3.3273,3.3634,3.3844,3.3972,3.4596,0.0,0.0,0.0,3.5914,0.0,3.6968,3.6797,0.0,3.7338,3.8116,3.8814,3.8995,3.9044,3.8897,3.7945,3.7496,3.7198,3.6103,3.6864,3.774,3.5797,0.0,0.0,0.0,0.0,0.0,3.5618,3.6241,3.6935,3.7282,0.0,3.9644,3.998,0.0,4.1152,4.1166,0.0,0.0,4.1311,4.2089,4.2651,4.2558,4.3379,4.4004,4.4004,4.5368,4.5988,4.5192,4.5004,4.5117,4.5584,4.4991,4.4914,4.5566,4.5509,4.5451,4.5451,4.5355,4.4951,4.4162,4.379,4.283,4.1283,4.0934,4.0316,3.9529,3.9257,3.9072,3.9036,3.8803,3.8707,3.8707,3.8707,3.8707,3.8707,3.8707,3.968,4.117,4.1925,4.3739,4.5883,2.9785,3.047,0.0,3.0615,3.0924,3.1049,3.0749,3.0975,3.119,3.119,3.1461,3.1647,3.1647,0.0,0.0,0.0,0.0,3.2611,0.0,3.2313,3.2087,3.1664,3.1046,3.0989,3.1647,3.1179,3.121,3.1789,3.2196,3.2533,3.2809,3.2965,3.3448,3.4175,3.4491,0.0,3.5514,0.0,3.637,0.0,0.0,3.705,0.0,3.8175,3.8963,3.9261,3.9373,3.9389,3.9302,3.8664,3.7803,3.7081,3.7295,3.7054,0.0,3.6342,0.0,0.0,0.0,0.0,3.5937,3.5671,3.6286,3.711,3.7705,3.8404,3.9258,4.0312,0.0,0.0,0.0,0.0,0.0,0.0,4.1836,4.2246,4.1777,4.2827,4.3663,4.371,4.4354,4.4805,4.482,4.5098,4.5355,4.5566,4.5316,4.5278,4.5566,4.5586,4.5586,4.5586,4.5586,4.5413,4.5047,4.444,4.3751,4.3023,4.1953,4.113,4.0566,3.9962,3.9576,3.9364,3.9082,3.8933,3.8923,3.8762,3.8707,3.8707,3.8707,3.968,4.1148,4.1497,4.3442,4.5957,2.7715,0.0,0.0,0.0,2.9761,3.0123,3.0251,3.0518,3.0838,3.1151,3.1223,3.1318,3.1495,3.185,0.0,0.0,3.3068,3.3102,0.0,3.2696,3.2442,3.2121,3.0933,3.0701,3.1523,3.0734,3.0649,3.1401,3.1662,3.1951,3.2316,3.2451,3.3048,3.4099,0.0,3.5125,3.6385,0.0,3.6901,3.7067,3.7768,3.7942,3.7882,3.9052,3.9652,3.9842,3.9757,3.9754,3.963,3.8995,3.8007,3.7147,3.7816,3.7193,3.6267,0.0,0.0,0.0,3.5785,3.5954,3.6169,3.5603,3.6152,3.7098,3.8055,3.8481,3.9099,4.0628,4.1052,0.0,0.0,0.0,4.1189,4.1156,0.0,4.18,4.1177,4.2099,4.2865,4.2949,4.313,4.3529,4.4228,4.4723,4.5086,4.522,4.5278,4.5393,4.5586,4.5586,4.5586,4.5586,4.5586,4.5586,4.5586,4.497,4.4528,4.4297,4.3066,4.2117,4.1418,4.075,4.0191,3.9731,3.9364,3.9186,3.9072,3.8884,3.8762,3.8707,3.8707,3.968,4.1148,4.1368,4.3332,4.592,2.639,2.7615,0.0,0.0,0.0,2.9629,3.0208,2.9805,2.9892,3.1055,3.13,0.0,0.0,0.0,0.0,0.0,0.0,3.5199,3.4472,0.0,3.3677,3.4353,3.1774,3.0995,3.2442,3.1061,3.0293,3.0335,3.1325,3.1825,3.1825,3.2282,3.2763,3.3286,3.4063,3.4814,3.5613,3.6641,3.7771,3.884,3.9122,3.97,4.0296,3.9569,3.9781,4.0441,4.0177,4.0081,3.9849,3.8439,3.7914,3.7687,3.6675,3.7045,3.7664,3.6912,3.744,3.7879,3.6316,3.6083,3.6117,3.5314,3.5917,3.6969,3.7964,3.8811,3.9637,4.0613,4.0906,4.1016,4.1016,4.1113,4.1163,4.1029,4.1031,0.0,0.0,4.0859,4.0946,4.1075,4.172,4.2451,4.3181,4.3376,4.3724,4.4297,4.4453,4.4857,4.5547,4.5586,4.5586,4.5586,4.5586,4.5586,4.5586,4.5566,4.5124,4.4297,4.4239,4.3355,4.178,4.1418,4.0825,4.0081,3.9731,3.9389,3.9099,3.9099,3.8933,3.8707,3.8707,3.968,4.1203,4.1974,4.3809,4.6012,0.0,0.0,0.0,0.0,0.0,2.9012,2.9629,2.954,2.9895,0.0,3.1388,0.0,0.0,3.3474,3.3964,0.0,0.0,3.4776,3.4506,3.3812,0.0,3.3761,3.1155,3.0566,3.232,3.0247,2.9717,3.0878,3.0828,3.101,3.1411,3.1562,3.2021,3.2781,3.3565,3.4958,0.0,0.0,0.0,0.0,0.0,3.945,3.9719,3.9988,4.0258,4.0489,4.0389,4.0356,4.0264,3.958,3.8848,3.8225,3.817,3.7553,3.6943,3.7355,3.7243,3.6954,3.6746,3.7017,3.7092,3.5927,3.6311,3.711,3.767,3.8051,3.8734,4.0391,4.0812,4.0878,4.0869,4.0905,4.0909,4.0888,4.0874,4.0838,0.0,4.0765,4.0725,4.0673,4.1489,4.2121,4.2387,4.3374,4.4068,4.4278,4.4874,4.5336,4.5586,4.5586,4.5586,4.5586,4.5586,4.5586,4.5586,4.5586,4.5451,4.5143,4.4586,4.372,4.2643,4.1944,4.1161,4.0356,4.0062,3.988,3.9731,3.9289,3.9063,3.8933,3.8762,4.001,4.1937,4.2194,4.3828,4.6085,2.4711,0.0,0.0,0.0,0.0,2.8367,2.9012,2.9088,0.0,0.0,3.1391,0.0,3.3263,0.0,3.3981,0.0,3.4742,3.4776,3.4506,3.4066,0.0,3.3795,3.1693,3.1204,0.0,3.0619,3.0089,3.1264,3.0816,3.0838,3.119,3.119,3.1657,3.2502,3.3031,3.4736,3.723,3.7756,3.8652,0.0,0.0,3.9719,3.9777,4.0296,4.0315,4.0104,4.0392,4.0489,4.0457,4.0195,3.9621,3.9031,3.9088,3.8275,3.7414,3.8016,3.769,3.7161,3.721,3.7567,3.7648,3.6588,3.7003,3.7792,3.8131,3.8454,3.9146,4.0758,4.0927,4.0945,4.1552,4.1197,4.0886,4.1186,4.0971,4.0754,0.0,4.0658,4.06,4.0508,4.1066,4.1585,4.1893,4.2874,4.3701,4.4259,4.4855,4.5316,4.5586,4.5586,4.5586,4.5586,4.5586,4.5586,4.5586,4.5586,4.5586,4.5586,4.5028,4.4182,4.3085,4.2527,4.1623,4.0489,4.0321,4.0177,4.0081,3.9622,3.9333,3.9109,3.9209,4.0522,4.2323,4.2616,4.4433,4.6911,2.38,0.0,0.0,0.0,2.6982,0.0,0.0,0.0,2.9249,0.0,3.149,3.2021,3.3339,3.4134,3.4539,3.4539,3.5199,3.5318,3.459,3.4506,0.0,0.0,3.3223,3.2871,3.3644,0.0,0.0,0.0,3.123,3.119,3.119,3.119,3.1657,3.2484,3.2484,0.0,3.7149,3.7192,3.848,4.0489,4.0489,4.0469,4.0431,4.0469,3.9988,3.9411,4.02,4.0489,4.0457,4.0195,4.0101,3.9982,3.9339,3.9107,3.9063,3.8792,3.8707,3.8524,3.7753,3.7757,3.7821,3.7284,3.7978,3.8918,3.9253,3.9954,4.0816,4.1681,4.1296,4.1293,4.2848,4.187,4.1101,4.1816,4.1219,4.0658,4.0508,4.0489,4.0489,4.0489,4.0527,4.0873,4.1662,4.1931,4.2662,4.4124,4.4395,4.4818,4.5547,4.5566,4.5547,4.5586,4.5586,4.5586,4.5586,4.5586,4.5586,4.5586,4.5586,4.472,4.3104,4.3104,4.2143,4.0489,4.0489,4.0356,4.012,4.0101,3.9712,3.9227,4.002,4.1193,4.2573,4.3385,4.5645,4.8306,2.133,2.253,2.3428,0.0,2.5494,2.6811,0.0,0.0,0.0,0.0,3.2433,3.3578,3.4874,3.5216,3.5334,3.5334,3.5504,0.0,0.0,0.0,0.0,3.5301,3.3506,3.3067,3.4219,3.1937,3.1172,3.2092,0.0,3.074,3.119,3.119,3.1487,3.1986,3.2332,3.3942,3.6411,3.6979,3.848,4.0489,4.0489,4.0142,3.9662,4.0258,3.9988,3.9411,4.02,4.0489,4.0489,4.0406,4.025,4.0022,3.9599,3.9289,3.9063,3.8792,3.8707,3.8652,3.845,3.8437,3.8375,3.7828,3.8415,3.9232,3.9757,4.0557,4.1473,4.2552,4.2624,4.2412,4.22,4.1816,4.1393,4.095,4.07,4.0543,4.0489,4.0489,4.0489,4.0489,4.1066,4.1296,4.0873,4.2047,4.2989,4.3374,4.4088,4.4818,4.5547,4.5068,4.503,4.5566,4.5586,4.5586,4.5586,4.5586,4.5586,4.5586,4.5586,4.472,4.3104,4.3104,4.2143,4.0489,4.0489,4.0457,4.0372,4.0177,4.0002,3.9914,4.05,4.2464,4.5001,4.5856,4.7095,4.8306,2.0398,0.0,0.0,2.2433,0.0,0.0,2.686,2.7639,0.0,3.0905,3.1999,0.0,3.4576,3.5268,3.5622,3.5622,3.5622,0.0,3.5148,0.0,0.0,3.5131,3.4298,3.4214,3.4979,3.3167,0.0,3.278,3.17,3.118,3.119,3.119,3.1411,3.1825,0.0,3.362,3.5634,3.7254,3.8726,4.0008,4.0354,4.0008,0.0,3.9835,3.9488,3.8796,3.9277,3.9892,4.0489,4.0489,4.0389,4.0213,3.9735,3.9462,3.9231,3.8833,3.8707,3.8707,3.8707,3.8707,3.8711,3.8644,3.9546,4.0532,4.0788,4.1779,4.2868,4.3492,4.3335,4.3162,4.3412,4.2547,4.1508,4.0642,4.0489,4.0489,4.0489,4.0489,4.0489,4.0489,4.0931,4.1046,4.0546,4.2101,4.314,4.3104,4.3607,4.4088,4.4489,4.4509,4.4682,4.5122,4.5526,4.5719,4.5699,4.5699,4.5643,4.5586,4.5586,4.472,4.3104,4.3104,4.2143,4.0489,4.0489,4.0489,4.0489,4.0339,4.0405,4.0786,4.2404,4.4398,4.6468,4.7708,4.8338,4.8568,2.0139,0.0,0.0,0.0,0.0,0.0,0.0,2.7219,0.0,3.0428,0.0,3.2222,3.3554,3.476,3.5515,3.5577,3.5622,3.5351,3.4692,3.525,3.5318,3.4675,3.5267,3.5622,3.5622,3.4878,3.4134,3.3406,3.2645,3.1901,3.119,3.119,3.1389,3.1752,0.0,0.0,0.0,3.7652,3.891,3.9354,3.9931,3.9758,3.9142,3.9204,3.8719,3.8012,3.8084,3.8988,4.0162,4.0162,4.0239,4.0233,3.9671,3.9528,3.9481,3.8931,3.8719,3.8707,3.8707,3.8707,3.8833,3.9383,4.0777,4.2025,4.1912,4.3188,4.4416,4.447,4.3912,4.3835,4.5182,4.3528,4.1681,4.0796,4.0758,4.0835,4.0835,0.0,0.0,0.0,4.0758,0.0,4.0508,4.2024,4.2986,4.2931,4.3008,4.3107,4.3258,4.3968,4.4449,4.466,4.5461,4.588,4.5822,4.5794,4.5757,4.5624,4.5624,4.4739,4.3104,4.3104,4.2162,4.0489,4.0489,4.0489,4.0508,4.0623,4.1065,4.1971,4.483,4.6455,4.7337,4.904,4.9416,4.9043,1.8405,0.0,0.0,0.0,0.0,2.4922,2.702,2.9212,3.0874,3.1347,3.244,3.3532,3.433,3.4605,3.4988,3.556,3.5622,0.0,0.0,0.0,0.0,3.5419,3.5554,3.5622,3.5622,3.4878,3.4134,3.3406,3.2645,3.1901,3.119,3.119,3.123,0.0,0.0,0.0,3.6817,3.7227,3.8156,3.9238,3.8661,3.8392,3.83,3.8319,3.8234,3.8089,3.8092,3.8253,3.843,3.843,3.8911,3.9442,3.9071,3.9229,3.9529,3.9125,3.8884,3.8707,3.8707,3.8707,3.8792,3.9117,4.0437,4.183,4.2328,4.3768,4.5052,4.532,4.5259,4.5028,4.4605,4.3624,4.2585,4.172,4.2181,4.2643,4.2643,4.2643,0.0,0.0,4.222,4.2085,4.0642,4.1431,4.2047,4.2027,4.2143,4.2758,4.4028,4.3758,4.4198,4.5526,4.5783,4.589,4.5871,4.5877,4.5873,4.5853,4.5853,4.4913,4.3165,4.3179,4.2197,4.0489,4.0489,4.0489,4.0546,4.1277,4.2453,4.3976,4.5937,4.7203,4.8124,4.985,5.0249,4.9827,0.0,0.0,0.0,0.0,0.0,0.0,2.7987,3.0199,3.1399,3.1089,3.1567,3.241,3.342,3.4153,3.4894,3.5515,3.5622,3.5622,3.5622,3.5622,3.5622,3.5622,3.5622,3.5622,3.5622,3.5267,3.4523,3.3406,3.3034,3.229,3.119,3.119,3.119,3.1269,0.0,3.4321,0.0,3.6956,3.7599,3.795,3.7988,3.7757,3.7387,3.7486,3.7212,3.676,3.6832,3.6796,3.6834,3.7719,3.8277,3.8574,3.8229,3.8209,3.8346,3.8432,3.8284,3.8175,3.8597,3.8707,3.8854,3.9547,4.0663,4.1838,4.274,4.4072,4.5159,4.5302,4.5476,4.5316,4.4451,4.3643,4.297,4.2547,4.245,4.2585,4.3047,4.3104,4.2931,0.0,0.0,0.0,4.1258,4.1143,4.1316,4.1777,4.1912,4.2508,4.366,4.3596,4.4075,4.5288,4.583,4.6074,4.5996,4.6001,4.5969,4.5906,4.5906,4.4983,4.3305,4.3216,4.2252,4.0639,4.1008,4.1162,4.1277,4.2566,4.3566,4.4509,4.6682,4.7759,4.8317,5.0048,5.0584,5.0358,0.0,1.8582,0.0,0.0,2.4469,2.6356,2.8984,3.0601,3.1345,3.0791,3.0713,3.1258,3.265,3.3746,3.4688,3.5515,3.5622,3.5622,3.5622,3.5622,3.5622,3.5622,3.5622,3.5622,3.5622,3.5622,3.4962,3.3643,3.3491,3.273,3.1427,3.1258,3.1291,3.1542,3.3208,3.4318,3.5054,3.6463,3.6919,3.6757,3.7257,3.7065,3.6496,3.6667,3.6207,3.5545,3.5661,3.5622,3.5699,3.7026,3.7584,3.7689,3.7419,3.7224,3.7178,3.7611,3.7618,3.7624,3.8267,3.8579,3.8934,3.9981,4.0866,4.18,4.2919,4.4126,4.5011,4.5074,4.5381,4.5316,4.4451,4.3932,4.3566,4.3393,4.2931,4.2854,4.3528,4.3624,4.3566,0.0,0.0,0.0,4.2085,4.145,4.1335,4.2027,4.2008,4.2332,4.3156,4.3419,4.395,4.4839,4.561,4.5976,4.5879,4.6055,4.608,4.5988,4.5988,4.5085,4.3454,4.3518,4.2618,4.1024,4.1758,4.2181,4.2431,4.3758,4.4528,4.5066,4.7259,4.8221,4.8567,5.0125,5.0702,5.0644,0.0,0.0,0.0,0.0,0.0,2.8176,2.9246,3.0601,3.1452,3.1377,3.1435,3.1942,3.3332,3.3601,3.4202,3.547,3.5622,3.5622,3.5622,3.5622,3.5622,3.5622,3.5622,3.5622,3.5622,3.5622,3.5216,3.4387,3.3728,3.2983,3.2171,3.1495,3.162,3.2417,3.2827,3.406,3.5773,3.5474,3.5867,3.6642,3.5988,3.5718,3.5718,3.5784,3.5726,3.5603,3.568,3.5622,3.5512,3.568,3.6219,3.682,3.6786,3.6916,3.7109,3.7162,3.7329,3.7514,3.7569,3.8138,3.8891,3.9743,4.0551,4.1438,4.2571,4.3772,4.4732,4.5052,4.5381,4.5316,4.4451,4.4874,4.5105,4.4316,4.4778,4.5259,4.5336,4.5355,4.5066,4.4278,0.0,0.0,4.3047,4.2893,4.2893,4.297,4.2258,4.222,4.3156,4.3338,4.3854,4.4795,4.5013,4.5117,4.5098,4.5898,4.6269,4.6268,4.6268,4.5311,4.3609,4.4397,4.3692,4.1912,4.2717,4.3448,4.4085,4.4239,4.524,4.6759,4.7721,4.8586,4.9394,5.0337,5.0702,5.0683,2.1246,0.0,2.3405,2.5665,2.7168,2.87,3.0411,3.1172,3.1482,3.1482,3.1482,3.2048,3.3443,3.3582,3.4153,3.547,3.5622,3.5622,3.5622,3.5622,3.5622,3.5622,3.5898,3.6097,3.6097,3.6416,3.6162,3.5418,3.4392,3.351,3.2775,3.25,3.2897,3.3882,3.4211,3.4736,3.5438,3.5873,3.6032,3.5949,3.5641,3.5526,3.5565,3.5622,3.5603,3.5565,3.5622,3.5584,3.5493,3.5493,3.5718,3.5988,3.5988,3.5946,3.5989,3.6483,3.646,3.6414,3.6887,3.7505,3.8285,3.957,4.0506,4.1503,4.3144,4.4093,4.4701,4.503,4.5381,4.549,4.5143,4.4932,4.4874,4.5047,4.4932,4.4989,4.5528,4.5586,4.547,4.5124,4.4624,4.4162,4.3855,4.3374,4.3104,4.3104,4.2813,4.2852,4.3299,4.3903,4.445,4.491,4.5475,4.5781,4.5781,4.6641,4.707,4.709,4.7617,4.6933,4.5234,4.5499,4.4841,4.3525,4.3849,4.4391,4.5066,4.5066,4.5797,4.699,4.7798,4.8625,4.951,5.0375,5.0702,5.0702,2.2514,2.338,2.4841,2.712,2.8201,2.9354,3.1203,3.1482,3.1482,3.1482,3.1697,3.2256,3.3479,3.3786,3.435,3.5515,3.5622,3.5622,3.5622,3.5622,3.5622,3.5622,3.6097,3.6374,3.6374,3.6921,3.6945,3.636,3.5267,3.4449,3.3927,3.349,3.3692,3.4449,3.4767,3.4988,3.516,3.5998,3.6026,3.5493,3.5493,3.5493,3.5526,3.5603,3.5603,3.5545,3.5622,3.5603,3.5545,3.5526,3.5493,3.5493,3.5493,3.5304,3.5219,3.5774,3.5794,3.5736,3.6315,3.7091,3.8137,3.9756,4.0774,4.1883,4.3762,4.4455,4.4849,4.518,4.5438,4.5586,4.5586,4.5086,4.4874,4.549,4.5066,4.4893,4.5509,4.5586,4.549,4.524,4.4662,4.4297,4.4297,4.3797,4.3451,4.3451,4.3775,4.391,4.3782,4.4406,4.4837,4.5,4.5605,4.5918,4.5918,4.7031,4.7598,4.7617,4.8476,4.7988,4.6289,4.5898,4.5445,4.4975,4.4909,4.518,4.5643,4.5605,4.624,4.7317,4.7875,4.8798,4.9856,5.0471,5.0702,5.0702,2.3195,2.4583,2.6271,2.8611,2.9676,3.0569,3.1336,3.1482,3.1482,3.1482,3.2104,3.2841,3.3547,3.4186,3.4847,3.5515,3.5622,3.5622,3.5622,3.5622,3.5622,3.5622,3.6097,3.6374,3.6374,3.6921,3.719,3.721,3.6378,3.5988,3.5935,3.4411,3.3661,3.3632,3.3889,3.4421,3.5122,3.5403,3.5526,3.5493,3.5493,3.5493,3.5526,3.5661,3.5661,3.5622,3.568,3.5661,3.5603,3.5526,3.5493,3.5493,3.5493,3.5304,3.5105,3.5124,3.5496,3.5899,3.5918,3.7065,3.8686,4.0382,4.1442,4.2517,4.4202,4.4849,4.5201,4.5513,4.5586,4.5586,4.5586,4.5586,4.5586,4.5586,4.5586,4.5586,4.5586,4.5586,4.5278,4.4412,4.4316,4.4297,4.4297,4.4297,4.4297,4.4297,4.5218,4.5449,4.4732,4.4707,4.4799,4.498,4.5019,4.5019,4.5019,4.6738,4.7598,4.7617,4.8476,4.7988,4.6269,4.5273,4.5273,4.6072,4.5873,4.5796,4.5796,4.5643,4.6586,4.8086,4.8105,4.9163,5.0683,5.0702,5.0702,5.0702,2.4925,2.5975,2.7196,2.8894,2.9915,3.0686,3.1407,3.1482,3.1482,3.1482,3.2516,3.3339,3.3582,3.4186,3.4894,3.5515,3.5622,3.5622,3.5622,3.5941,3.6139,3.6139,3.6981,3.7415,3.7415,3.7929,3.8201,3.8201,3.6543,3.5457,3.4885,3.3844,3.3998,3.5146,3.4695,3.4794,3.5383,3.546,3.5493,3.5493,3.5493,3.5545,3.5584,3.5622,3.5647,3.565,3.563,3.5616,3.5603,3.5526,3.5493,3.5493,3.5493,3.5446,3.5369,3.5369,3.5362,3.5476,3.6026,3.6821,3.8033,4.0297,4.1486,4.2591,4.4516,4.5201,4.5476,4.5586,4.5586,4.5586,4.5586,4.5586,4.5586,4.5586,4.5586,4.5586,4.5586,4.5586,4.549,4.522,4.5182,4.5182,4.5182,4.5182,4.4932,4.4335,4.4605,4.4506,4.3852,4.4982,4.5444,4.5019,4.5586,4.6172,4.6777,4.791,4.8789,4.9375,5.0215,4.9726,4.8027,4.6504,4.5918,4.6093,4.5944,4.5833,4.5796,4.5643,4.6586,4.8105,4.8105,4.9163,5.0702,5.0702,5.0702,5.0702,2.5895,2.6612,2.7482,2.8712,2.9318,3.0007,3.0989,3.1362,3.1622,3.1864,3.313,3.3987,3.3987,3.4592,3.5144,3.556,3.5766,3.5898,3.5898,3.6416,3.6684,3.6684,3.7452,3.7893,3.7893,3.8433,3.856,3.8248,3.6663,3.5436,3.4618,3.4109,3.4426,3.5428,3.492,3.4999,3.5493,3.5493,3.5493,3.5493,3.5493,3.5545,3.5597,3.5628,3.5697,3.5766,3.5666,3.5648,3.5622,3.5545,3.5493,3.5493,3.5493,3.5493,3.5493,3.5493,3.5595,3.5793,3.6307,3.7181,3.8385,4.0288,4.1618,4.2955,4.486,4.5438,4.5586,4.5586,4.5586,4.5586,4.5586,4.5586,4.5586,4.5586,4.5586,4.5586,4.5586,4.5586,4.547,4.5143,4.5105,4.5105,4.5105,4.5105,4.5009,4.4797,4.4853,4.4735,4.435,4.5113,4.5561,4.5488,4.6016,4.6719,4.7598,4.8457,4.9336,5.0195,5.0371,4.9902,4.8848,4.709,4.625,4.6172,4.6019,4.592,4.5834,4.5719,4.6624,4.8105,4.8105,4.9163,5.0702,5.0702,5.0702,5.0702,2.624,2.661,2.7232,2.8126,2.8367,2.8866,3.0272,3.1129,3.1856,3.2486,3.3705,3.4526,3.4576,3.5207,3.5622,3.5667,3.6097,3.6416,3.6457,3.6943,3.7248,3.7248,3.7685,3.7946,3.7946,3.841,3.8193,3.7342,3.6578,3.5771,3.4917,3.4926,3.4853,3.4694,3.4714,3.5035,3.5493,3.5493,3.5493,3.5493,3.5526,3.5565,3.5611,3.5687,3.5786,3.5893,3.576,3.5699,3.568,3.5565,3.5493,3.5493,3.5493,3.5545,3.557,3.557,3.6122,3.6738,3.6853,3.8065,3.9508,4.0373,4.1893,4.3585,4.5143,4.5547,4.5586,4.5586,4.5586,4.5586,4.5586,4.5586,4.5586,4.5586,4.5586,4.5586,4.5586,4.5586,4.5297,4.4489,4.4393,4.4393,4.4393,4.4393,4.4701,4.5451,4.5695,4.5806,4.5819,4.5115,4.5196,4.6269,4.6367,4.6816,4.7676,4.8555,4.9433,5.0273,4.9336,4.8906,4.8848,4.709,4.6308,4.6289,4.6152,4.6027,4.5918,4.589,4.6759,4.8125,4.8163,4.9221,5.0702,5.0702,5.0702,5.0702,2.6335,2.6503,2.7032,2.8287,2.8914,2.9526,3.037,3.1013,3.1718,3.2415,3.3243,3.3983,3.4526,3.5207,3.5783,3.6182,3.635,3.6563,3.6981,3.7452,3.772,3.772,3.8234,3.8496,3.8496,3.8053,3.7055,3.5605,3.5394,3.4908,3.4082,3.4289,3.4498,3.4694,3.4926,3.519,3.5493,3.5493,3.5493,3.5493,3.5565,3.5622,3.5694,3.581,3.5907,3.5958,3.5774,3.5699,3.568,3.5565,3.5493,3.5493,3.5493,3.593,3.643,3.643,3.6546,3.6988,3.8315,3.8988,3.9642,4.1123,4.2758,4.4124,4.4509,4.5124,4.5586,4.5586,4.5586,4.5586,4.5586,4.5586,4.5586,4.5586,4.5586,4.5586,4.5586,4.5586,4.5509,4.5316,4.5278,4.5278,4.5278,4.5278,4.5086,4.4643,4.4737,4.4877,4.4977,4.4892,4.5298,4.6269,4.6953,4.7715,4.8574,4.9453,5.0293,5.1094,4.9609,4.8906,4.8848,4.709,4.6308,4.6289,4.6152,4.6088,4.6099,4.653,4.7335,4.8297,4.8856,4.974,5.0702,5.0702,5.0702,5.0702,2.7312,2.7174,2.7395,2.8762,2.902,2.9335,3.03,3.0959,3.1639,3.2384,3.3238,3.392,3.4324,3.4873,3.5404,3.5945,3.6461,3.6981,3.7506,3.7998,3.8267,3.8267,3.8546,3.8524,3.8157,3.7716,3.667,3.499,3.4623,3.4229,3.3807,3.4074,3.4379,3.4714,3.4981,3.5239,3.5493,3.5493,3.5493,3.5526,3.5584,3.5637,3.5715,3.5843,3.5943,3.5976,3.5763,3.5699,3.568,3.5565,3.5738,3.6065,3.6065,3.6622,3.7373,3.7777,3.7892,3.8104,3.9027,3.9565,4.0162,4.147,4.2489,4.3355,4.4124,4.4662,4.5124,4.5509,4.5586,4.5586,4.5586,4.5586,4.5586,4.5586,4.5259,4.5143,4.5528,4.5259,4.5143,4.5547,4.5586,4.5586,4.5586,4.5586,4.5432,4.5009,4.5084,4.5198,4.5331,4.5462,4.5772,4.6289,4.7148,4.8027,4.8894,5.0071,5.0653,5.0653,4.9391,4.8594,4.8164,4.6894,4.6308,4.6308,4.6211,4.6152,4.6151,4.6814,4.7565,4.8374,4.9106,4.9933,5.0702,5.0702,5.0702,5.0702,2.8559,2.8222,2.8207,2.9225,2.9042,2.9155,3.0206,3.0936,3.1636,3.2365,3.3318,3.3986,3.4168,3.4493,3.4906,3.5465,3.6381,3.7167,3.7636,3.8099,3.834,3.834,3.834,3.801,3.7312,3.7184,3.6376,3.4807,3.4137,3.3815,3.3868,3.4165,3.4445,3.4774,3.5034,3.5289,3.5493,3.5493,3.5493,3.5526,3.5584,3.5646,3.5709,3.5852,3.5956,3.5976,3.5802,3.5805,3.5892,3.5743,3.6238,3.6911,3.6911,3.7488,3.8334,3.9084,3.9392,3.9469,3.9469,3.9969,4.0681,4.1412,4.17,4.2181,4.3605,4.4124,4.4509,4.524,4.5509,4.5586,4.5586,4.5586,4.5547,4.5432,4.4893,4.4701,4.5316,4.4874,4.4759,4.5509,4.5586,4.5586,4.5586,4.5586,4.5643,4.5796,4.5847,4.596,4.6084,4.6235,4.6357,4.6484,4.7336,4.8249,4.9221,5.0414,5.0587,4.978,4.8928,4.8119,4.7363,4.6641,4.6308,4.6308,4.6308,4.623,4.6191,4.7067,4.7779,4.8414,4.9298,5.0067,5.0702,5.0702,5.0702,5.0702,2.9225,2.918,2.918,2.9361,2.9761,3.007,3.0271,3.0825,3.1636,3.2767,3.3062,3.3515,3.4515,3.464,3.4906,3.5465,3.5666,3.5991,3.6515,3.6641,3.667,3.667,3.667,3.6615,3.6486,3.5771,3.4945,3.399,3.3862,3.3928,3.4147,3.4486,3.4774,3.5053,3.532,3.546,3.5493,3.5493,3.5493,3.5526,3.5641,3.5684,3.5717,3.5907,3.5992,3.5996,3.5896,3.6268,3.6786,3.6704,3.7166,3.7796,3.7796,3.8392,3.9123,3.9258,3.9777,4.0296,4.0296,4.0392,4.0527,4.0662,4.1258,4.1873,4.2143,4.3278,4.4335,4.447,4.5086,4.5586,4.5586,4.5586,4.5355,4.4624,4.5009,4.5182,4.4586,4.5009,4.5451,4.5566,4.5586,4.5586,4.5586,4.5586,4.5643,4.5796,4.5848,4.5963,4.6082,4.6224,4.6633,4.7363,4.8252,4.9386,5.0837,5.0298,4.9931,4.9787,4.8307,4.7534,4.7363,4.6641,4.6308,4.6308,4.6308,4.6289,4.6387,4.7868,4.8474,4.8606,5.0087,5.0664,5.0702,5.0702,5.0702,5.0702,2.9805,2.9629,2.9685,3.0525,3.0647,3.0807,3.1405,3.1716,3.2089,3.2651,3.2964,3.3324,3.3827,3.4105,3.4322,3.4557,3.4586,3.4759,3.5132,3.5883,3.6352,3.6527,3.6527,3.6366,3.6106,3.5094,3.4482,3.4284,3.4284,3.4353,3.4486,3.4774,3.4981,3.5105,3.5383,3.5493,3.5493,3.5493,3.5493,3.5526,3.5661,3.5704,3.582,3.6964,3.7402,3.7519,3.8359,3.8819,3.9042,3.897,3.945,4.0046,4.0046,4.0642,4.1239,4.0777,4.0585,4.0489,4.0489,4.0489,4.0489,4.0489,4.0796,4.1219,4.17,4.2412,4.322,4.4105,4.4624,4.5028,4.5509,4.5586,4.547,4.5066,4.4932,4.4913,4.4989,4.4932,4.5066,4.5528,4.5586,4.5586,4.5586,4.568,4.5757,4.5853,4.5954,4.6065,4.6197,4.627,4.6915,4.8253,4.9084,4.9817,5.0452,4.9951,4.9201,4.822,4.7604,4.7049,4.6592,4.6381,4.6308,4.6308,4.6308,4.6308,4.6426,4.8047,4.8665,4.8769,5.0303,5.0875,5.0818,5.0721,5.0702,5.0702,3.0435,3.0285,3.0468,3.1608,3.1519,3.1558,3.2366,3.2484,3.255,3.2648,3.2983,3.3243,3.3332,3.3625,3.3815,3.3876,3.3902,3.3993,3.4311,3.5317,3.6014,3.6229,3.6229,3.6031,3.5635,3.4764,3.4445,3.4694,3.4694,3.4734,3.4812,3.4999,3.5122,3.5207,3.5417,3.5493,3.5493,3.5526,3.5641,3.5853,3.6194,3.6455,3.6822,3.8541,3.9199,3.9375,4.0605,4.1091,4.114,4.1098,4.153,4.2143,4.2143,4.2566,4.297,4.2297,4.1489,4.0758,4.0546,4.0489,4.0489,4.0489,4.0489,4.0681,4.1354,4.1662,4.2162,4.3451,4.4028,4.4489,4.5163,4.5451,4.5528,4.5316,4.4913,4.4759,4.522,4.4893,4.4855,4.5509,4.5586,4.5586,4.5586,4.5719,4.583,4.5889,4.6037,4.6157,4.6288,4.6308,4.6986,4.8499,4.9461,4.9791,4.9451,4.9124,4.8278,4.6913,4.6895,4.6549,4.5907,4.6175,4.6308,4.6308,4.6308,4.6308,4.6426,4.8066,4.873,4.8846,5.037,5.0941,5.0895,5.0779,5.0721,5.0702,3.1213,3.1733,3.2178,3.1861,3.2127,3.24,3.2484,3.2484,3.2648,3.3075,3.3184,3.3332,3.3707,3.3762,3.3902,3.4147,3.4171,3.4311,3.4653,3.4745,3.4821,3.4842,3.4842,3.4843,3.4788,3.4711,3.4674,3.4694,3.4694,3.4832,3.507,3.5088,3.5223,3.546,3.5493,3.5493,3.5493,3.5584,3.6059,3.6881,3.7814,3.8684,3.9521,4.0597,4.1016,4.1016,4.1133,4.1621,4.2192,4.2182,4.2593,4.3088,4.3088,4.3104,4.3085,4.3028,4.2393,4.1527,4.0719,4.0489,4.0489,4.0489,4.0489,4.0508,4.0566,4.1219,4.1854,4.197,4.322,4.4316,4.4374,4.5047,4.5336,4.4528,4.5009,4.524,4.4489,4.5028,4.5528,4.5586,4.5586,4.5586,4.5586,4.5719,4.5823,4.5891,4.6018,4.6157,4.6288,4.6308,4.6674,4.7482,4.9019,4.9368,4.8411,4.7547,4.7028,4.6894,4.6278,4.5945,4.5907,4.6175,4.6308,4.6308,4.6308,4.6308,4.6426,4.8164,4.8808,4.8867,5.0525,5.1053,5.0914,5.0895,5.0818,5.0702,3.2056,3.2282,3.255,3.2631,3.2809,3.3014,3.3255,3.3314,3.3439,3.3776,3.3828,3.3956,3.4307,3.4371,3.4398,3.4508,3.4508,3.4634,3.4926,3.4944,3.4944,3.4944,3.4944,3.5035,3.519,3.5016,3.5016,3.5207,3.5207,3.5258,3.5354,3.5354,3.5398,3.5493,3.5493,3.5815,3.6406,3.6972,3.7738,3.8656,3.9625,4.0216,4.0681,4.2178,4.2754,4.2891,4.3965,4.4492,4.4663,4.4663,4.4722,4.4805,4.4826,4.4739,4.4528,4.3989,4.2874,4.1739,4.1393,4.0912,4.0489,4.0489,4.0489,4.0489,4.0489,4.0758,4.1143,4.17,4.2316,4.2912,4.3451,4.3835,4.3932,4.3605,4.3835,4.3932,4.3605,4.3835,4.4047,4.4047,4.4047,4.4066,4.4124,4.4241,4.435,4.4462,4.455,4.4636,4.4687,4.5703,4.6355,4.6465,4.7591,4.7994,4.7563,4.7123,4.6624,4.6086,4.5969,4.5902,4.5907,4.6175,4.6308,4.6308,4.6308,4.6601,4.7207,4.8398,4.9199,4.9726,5.0781,5.1154,5.1089,5.1051,5.0952,5.0894,3.2517,3.2713,3.2965,3.3184,3.3302,3.3504,3.3858,3.3928,3.4037,3.4311,3.4357,3.4445,3.4674,3.4694,3.4734,3.4832,3.4832,3.4944,3.5207,3.5223,3.5223,3.5223,3.5223,3.5304,3.5493,3.532,3.5304,3.5493,3.5493,3.5493,3.5493,3.5493,3.5641,3.5892,3.6213,3.6843,3.7742,3.8689,3.9603,4.0537,4.1461,4.2005,4.243,4.393,4.4512,4.4668,4.5879,4.623,4.615,4.6164,4.6035,4.5877,4.5828,4.5719,4.5432,4.4566,4.3489,4.247,4.195,4.1354,4.0835,4.0566,4.0489,4.0489,4.0489,4.0489,4.0662,4.1277,4.1604,4.1989,4.2585,4.2912,4.3104,4.3104,4.3104,4.3104,4.3104,4.3104,4.3104,4.3104,4.3104,4.3143,4.3184,4.332,4.347,4.3592,4.3663,4.3828,4.4082,4.546,4.6138,4.5899,4.6462,4.6718,4.6621,4.6546,4.6201,4.5643,4.5815,4.5924,4.5964,4.6202,4.6308,4.6328,4.6582,4.7051,4.7695,4.8848,4.9668,5.0273,5.0976,5.123,5.1228,5.1454,5.142,5.1391,3.2616,3.3225,3.3662,3.3273,3.355,3.3902,3.4152,3.42,3.4334,3.4653,3.4694,3.4694,3.4713,3.4713,3.4813,3.5088,3.5105,3.5223,3.5493,3.5526,3.5526,3.5526,3.5526,3.5493,3.5493,3.5493,3.5493,3.5493,3.5493,3.5493,3.5526,3.5526,3.5949,3.6776,3.7775,3.8676,3.949,4.0568,4.1517,4.2409,4.3345,4.4238,4.5098,4.5976,4.6308,4.6308,4.6308,4.6308,4.6308,4.6308,4.6212,4.6082,4.593,4.5757,4.5432,4.4566,4.4316,4.3932,4.2277,4.1816,4.1585,4.0719,4.0489,4.0489,4.0489,4.0489,4.0489,4.0489,4.1181,4.1797,4.1797,4.2508,4.3085,4.3085,4.3085,4.3085,4.3085,4.3085,4.3085,4.3085,4.3085,4.3104,4.3165,4.3303,4.3427,4.3568,4.3643,4.4062,4.4941,4.5703,4.6027,4.5909,4.5829,4.5738,4.5586,4.5586,4.568,4.5796,4.5873,4.5969,4.61,4.6245,4.6308,4.6348,4.7226,4.7598,4.7734,4.9473,5.0195,5.0293,5.1094,5.1328,5.1328,5.2187,5.2336,5.2235,3.3556,3.3606,3.3823,3.388,3.4,3.4171,3.4508,3.4551,3.4655,3.4944,3.4981,3.5034,3.5239,3.5273,3.5289,3.5369,3.5383,3.5648,3.6301,3.6911,3.7257,3.7257,3.6142,3.5493,3.5493,3.5493,3.5493,3.5493,3.5493,3.5834,3.6496,3.7107,3.7872,3.8772,3.9678,4.0593,4.1503,4.2419,4.3355,4.4263,4.5173,4.5683,4.5937,4.6191,4.6308,4.6308,4.6308,4.6308,4.6308,4.6308,4.6217,4.6073,4.595,4.5834,4.5699,4.543,4.4836,4.4182,4.3682,4.2701,4.1585,4.0719,4.0489,4.0489,4.0489,4.0489,4.0489,4.0489,4.07,4.0893,4.0893,4.1104,4.1277,4.1277,4.1277,4.1277,4.1277,4.1277,4.1277,4.1277,4.1354,4.1447,4.1508,4.1649,4.1776,4.1914,4.2451,4.3437,4.4922,4.521,4.5488,4.5892,4.5883,4.5776,4.5586,4.5586,4.568,4.5796,4.586,4.5976,4.61,4.6245,4.6308,4.6348,4.7226,4.7949,4.8594,4.9726,5.0527,5.1074,5.1308,5.1758,5.2285,5.2539,5.2918,5.3398,3.4618,3.446,3.4451,3.4409,3.4401,3.4489,3.4813,3.487,3.4963,3.5223,3.5541,3.5799,3.5955,3.6276,3.6488,3.6488,3.6488,3.6719,3.7257,3.7791,3.8099,3.8123,3.7142,3.6603,3.6565,3.6565,3.6579,3.6612,3.6953,3.7409,3.7982,3.8856,3.9738,4.0621,4.1564,4.2469,4.3385,4.4287,4.4997,4.5566,4.6094,4.6308,4.6308,4.6308,4.6308,4.6308,4.6308,4.6308,4.6308,4.6308,4.6211,4.609,4.5994,4.5917,4.5829,4.5808,4.5372,4.4797,4.4412,4.3566,4.2585,4.1774,4.1024,4.0508,4.0581,4.0543,4.0508,4.06,4.0562,4.0508,4.0581,4.0581,4.0581,4.0581,4.06,4.062,4.062,4.062,4.062,4.062,4.0696,4.0773,4.087,4.0947,4.1183,4.1639,4.2441,4.3516,4.4922,4.5224,4.5521,4.5891,4.5822,4.5719,4.5586,4.5643,4.5738,4.5834,4.5883,4.5988,4.6182,4.6264,4.6484,4.6855,4.7734,4.8613,4.9473,5.0332,5.0957,5.1426,5.1777,5.2246,5.2773,5.3476,5.3981,5.4411,3.5764,3.5645,3.5497,3.5052,3.4885,3.4926,3.52,3.5253,3.5337,3.5575,3.6315,3.6815,3.6815,3.7526,3.8007,3.8027,3.8084,3.8195,3.8325,3.8469,3.8579,3.8637,3.8714,3.8739,3.8671,3.845,3.8356,3.8421,3.9283,3.9766,3.9868,4.0733,4.1578,4.2403,4.3402,4.4279,4.5092,4.5941,4.6308,4.6308,4.6308,4.6308,4.6308,4.6308,4.6308,4.6308,4.6308,4.6308,4.6308,4.6308,4.6211,4.6113,4.6113,4.6023,4.5909,4.5844,4.5808,4.5622,4.4682,4.4393,4.4162,4.3503,4.2036,4.0781,4.0827,4.0669,4.0573,4.0754,4.065,4.0554,4.0677,4.0716,4.0712,4.0703,4.0761,4.08,4.08,4.08,4.08,4.08,4.0808,4.087,4.0985,4.108,4.1538,4.2557,4.3379,4.4199,4.5078,4.5645,4.5916,4.591,4.5718,4.5605,4.5586,4.5738,4.5834,4.5892,4.5917,4.6047,4.6308,4.6387,4.6855,4.7656,4.8594,4.9473,5.0273,5.1152,5.1523,5.1601,5.248,5.2851,5.3125,5.4707,5.5259,5.5317,3.6968,3.682,3.685,3.6958,3.6424,3.6056,3.6309,3.6339,3.6373,3.6435,3.7199,3.7719,3.7719,3.7892,3.8027,3.8157,3.8825,3.9283,3.9302,4.0533,4.1266,4.1286,4.1927,4.2349,4.2429,4.0361,3.9302,3.933,4.0193,4.0985,4.173,4.2615,4.3506,4.4409,4.5316,4.5818,4.601,4.6209,4.6308,4.6308,4.6308,4.6308,4.6308,4.6308,4.6308,4.6308,4.6308,4.6308,4.6308,4.6308,4.6289,4.6269,4.6269,4.615,4.6044,4.6046,4.5949,4.5834,4.5622,4.5086,4.4568,4.4395,4.3576,4.2595,4.1957,4.1248,4.074,4.0795,4.0764,4.074,4.0776,4.0773,4.0781,4.0791,4.0781,4.0801,4.0801,4.0801,4.0801,4.0801,4.0887,4.0966,4.0985,4.1669,4.2759,4.4316,4.4609,4.5098,4.5976,4.6149,4.6125,4.592,4.5866,4.5757,4.5586,4.5738,4.5834,4.5892,4.6012,4.6134,4.6328,4.7012,4.7422,4.7695,4.9238,5.0039,5.0312,5.1797,5.2422,5.25,5.3379,5.4141,5.4785,5.5156,5.5701,5.6278,3.929,3.9161,3.9127,3.9004,3.8616,3.8361,3.8493,3.8507,3.8507,3.8507,3.933,3.9923,3.9923,4.0308,4.0607,4.0676,4.1133,4.1441,4.1489,4.2331,4.2819,4.2852,4.3308,4.3578,4.3659,4.2686,4.1972,4.155,4.2428,4.311,4.3603,4.4487,4.5148,4.5644,4.6094,4.6308,4.6308,4.6308,4.6308,4.6308,4.6308,4.6308,4.6308,4.6308,4.6308,4.6308,4.6308,4.6308,4.6308,4.6308,4.6308,4.6308,4.6308,4.625,4.6172,4.6113,4.605,4.5979,4.5912,4.5589,4.5297,4.5349,4.4708,4.3853,4.3003,4.2404,4.2074,4.2163,4.1774,4.1443,4.1494,4.1183,4.0906,4.0905,4.0953,4.0992,4.0992,4.0992,4.0992,4.0992,4.1046,4.126,4.163,4.2494,4.3574,4.4902,4.5,4.5371,4.625,4.623,4.6113,4.5906,4.5857,4.5796,4.5699,4.5796,4.6103,4.6602,4.6275,4.6391,4.6933,4.7383,4.8262,4.9453,5.0371,5.123,5.207,5.2969,5.332,5.3418,5.4277,5.4902,5.5351,5.5762,5.6172,5.6482,4.1685,4.1609,4.1456,4.1014,4.0816,4.0719,4.0719,4.0754,4.0754,4.0754,4.1617,4.2241,4.2242,4.2946,4.3432,4.3433,4.344,4.3506,4.3608,4.377,4.3857,4.3916,4.4059,4.4148,4.415,4.4847,4.4809,4.3926,4.4805,4.5215,4.5234,4.5957,4.6308,4.6308,4.6308,4.6308,4.6308,4.6308,4.6308,4.6308,4.6308,4.6308,4.6308,4.6308,4.6308,4.6308,4.6308,4.6308,4.6308,4.6308,4.6308,4.6308,4.6308,4.6308,4.6289,4.6172,4.6133,4.611,4.5994,4.5974,4.5996,4.6121,4.5586,4.4886,4.4214,4.3744,4.3509,4.367,4.2998,4.2412,4.2518,4.1831,4.1242,4.1242,4.1226,4.1191,4.1191,4.1191,4.1191,4.1191,4.1328,4.1777,4.2754,4.3496,4.4277,4.5156,4.5215,4.5547,4.6269,4.6191,4.6058,4.5907,4.5849,4.5815,4.5796,4.5998,4.6632,4.7619,4.7075,4.7242,4.8047,4.8183,4.9473,5.1621,5.1777,5.2656,5.4004,5.416,5.4219,5.4316,5.5176,5.5527,5.5605,5.6328,5.6523,5.6426,4.2862,4.2862,4.2821,4.2758,4.2124,4.1623,4.1623,4.1732,4.1805,4.1805,4.2618,4.3202,4.3199,4.3428,4.3563,4.3583,4.3637,4.3667,4.3681,4.4384,4.4817,4.4821,4.5544,4.5953,4.5946,4.6063,4.5699,4.4824,4.5703,4.6113,4.6133,4.623,4.6308,4.6308,4.6308,4.6308,4.6308,4.6308,4.6308,4.6308,4.6308,4.6308,4.6308,4.6308,4.6308,4.6308,4.6308,4.6308,4.6308,4.6308,4.6308,4.6308,4.6308,4.6308,4.6308,4.6289,4.6269,4.6269,4.6248,4.6247,4.6257,4.6274,4.618,4.6066,4.5952,4.4741,4.367,4.3691,4.3573,4.3494,4.3515,4.2809,4.2216,4.2216,4.1638,4.1191,4.1191,4.1191,4.1191,4.1191,4.1816,4.2871,4.4492,4.4746,4.5195,4.6055,4.6113,4.6172,4.6289,4.6289,4.6156,4.5907,4.5902,4.5853,4.5796,4.6603,4.7527,4.854,4.9281,4.9722,4.9863,5.0566,5.1484,5.2578,5.332,5.3789,5.4062,5.4805,5.5117,5.5215,5.6074,5.6426,5.6445,5.6562,5.6582,5.6562,4.4489,4.4489,4.4509,4.4586,4.4278,4.4047,4.4066,4.4141,4.418,4.4187,4.4607,4.49,4.4904,4.5026,4.5105,4.5105,4.5141,4.5156,4.5156,4.5508,4.5723,4.5723,4.6094,4.6308,4.6308,4.6308,4.6113,4.5723,4.6113,4.6308,4.6308,4.6308,4.6308,4.6308,4.6308,4.6308,4.6308,4.6308,4.6308,4.6308,4.6308,4.6308,4.6308,4.6308,4.6308,4.6308,4.6308,4.6308,4.6308,4.6308,4.6308,4.6308,4.6308,4.6308,4.6308,4.6308,4.6308,4.6308,4.6308,4.6308,4.6305,4.6294,4.629,4.6294,4.6306,4.5703,4.5156,4.5156,4.4766,4.4433,4.4433,4.3711,4.3125,4.3125,4.3242,4.332,4.332,4.373,4.4043,4.4043,4.4785,4.5605,4.6387,4.6894,4.7344,4.7715,4.7754,4.7754,4.7754,4.7691,4.7552,4.7368,4.7283,4.7258,4.7313,4.8196,4.9178,5.0214,5.1146,5.1601,5.1601,5.1953,5.2871,5.418,5.4551,5.5,5.5488,5.5879,5.6035,5.6055,5.6445,5.6601,5.6601,5.6601,5.6601,5.6601]},{"header":{"parameterUnit":"m.s-1","parameterCategory":1,"la1":30.6,"la2":28.766,"lo1":-90.7593,"lo2":-88.6598,"dy":0.0162,"dx":0.0183,"nx":116,"ny":114,"refTime":"2023-02-28T06:00:00:Z","depth":0,"parameterNumber":3,"parameterNumberName":"V-component_of_WINDS"},"data":[0.0,0.0,0.0,0.0,0.0,0.0,0.0,0.0,0.0,0.0,0.0,0.0,0.0,0.0,0.0,0.0,0.0,0.0,0.0,0.0,0.0,0.0,0.0,0.0,0.0,0.0,0.0,0.0,0.0,0.0,0.0,0.0,0.0,0.0,0.0,0.0,0.0,0.0,0.0,0.0,0.0,0.0,0.0,0.0,0.0,0.0,0.0,0.0,0.0,0.0,0.0,0.0,0.0,0.0,0.0,0.0,0.0,0.0,0.0,0.0,0.0,0.0,0.0,0.0,0.0,0.0,0.0,0.0,0.0,0.0,0.0,0.0,0.0,0.0,0.0,0.0,0.0,0.0,0.0,0.0,0.0,0.0,0.0,0.0,0.0,0.0,0.0,0.0,0.0,0.0,0.0,0.0,0.0,0.0,0.0,0.0,0.0,0.0,0.0,0.0,0.0,0.0,0.0,0.0,0.0,0.0,0.0,0.0,0.0,0.0,0.0,0.0,0.0,0.0,0.0,0.0,0.0,0.0,0.0,0.0,0.0,0.0,0.0,0.0,0.0,0.0,0.0,0.0,0.0,0.0,0.0,0.0,0.0,0.0,0.0,0.0,0.0,0.0,0.0,0.0,0.0,0.0,0.0,0.0,0.0,0.0,0.0,0.0,0.0,0.0,0.0,0.0,0.0,0.0,0.0,0.0,0.0,0.0,0.0,0.0,0.0,0.0,0.0,0.0,0.0,0.0,0.0,0.0,0.0,0.0,0.0,0.0,0.0,0.0,0.0,0.0,0.0,0.0,0.0,0.0,0.0,0.0,0.0,0.0,0.0,0.0,0.0,0.0,0.0,0.0,0.0,0.0,0.0,0.0,0.0,0.0,0.0,0.0,0.0,0.0,0.0,0.0,0.0,0.0,0.0,0.0,0.0,0.0,0.0,0.0,0.0,0.0,0.0,0.0,0.0,0.0,0.0,0.0,0.0,0.0,0.0,0.0,0.0,0.0,0.0,0.0,0.0,0.0,0.0,0.0,0.0,0.0,0.0,0.0,0.0,0.0,0.0,0.0,0.0,0.0,0.0,0.0,0.0,0.0,0.0,0.0,0.0,0.0,0.0,0.0,0.0,0.0,0.0,0.0,0.0,0.0,0.0,0.0,0.0,0.0,0.0,0.0,0.0,0.0,0.0,0.0,0.0,0.0,0.0,0.0,0.0,0.0,0.0,0.0,0.0,0.0,0.0,0.0,0.0,0.0,0.0,0.0,0.0,0.0,0.0,0.0,0.0,0.0,0.0,0.0,0.0,0.0,0.0,0.0,0.0,0.0,0.0,0.0,0.0,0.0,0.0,0.0,0.0,0.0,0.0,0.0,0.0,0.0,0.0,0.0,0.0,0.0,0.0,0.0,0.0,0.0,0.0,0.0,0.0,0.0,0.0,0.0,0.0,0.0,0.0,0.0,0.0,0.0,0.0,0.0,0.0,0.0,0.0,0.0,0.0,0.0,0.0,0.0,0.0,0.0,0.0,0.0,0.0,0.0,0.0,0.0,0.0,0.0,0.0,0.0,0.0,0.0,0.0,0.0,0.0,0.0,0.0,0.0,0.0,0.0,0.0,0.0,0.0,0.0,0.0,0.0,0.0,0.0,0.0,0.0,0.0,0.0,0.0,0.0,0.0,0.0,0.0,0.0,0.0,0.0,0.0,0.0,0.0,0.0,0.0,0.0,0.0,0.0,0.0,0.0,0.0,0.0,0.0,0.0,0.0,0.0,0.0,0.0,0.0,0.0,0.0,0.0,0.0,0.0,0.0,0.0,0.0,0.0,0.0,0.0,0.0,0.0,0.0,0.0,0.0,0.0,0.0,0.0,0.0,0.0,0.0,0.0,0.0,0.0,0.0,0.0,0.0,0.0,0.0,0.0,0.0,0.0,0.0,0.0,0.0,0.0,0.0,0.0,0.0,0.0,0.0,0.0,0.0,0.0,0.0,0.0,0.0,0.0,0.0,0.0,0.0,0.0,0.0,0.0,0.0,0.0,0.0,0.0,0.0,0.0,0.0,0.0,0.0,0.0,0.0,0.0,0.0,0.0,0.0,0.0,0.0,0.0,0.0,0.0,0.0,0.0,0.0,0.0,0.0,0.0,0.0,0.0,0.0,0.0,0.0,0.0,0.0,0.0,0.0,0.0,0.0,0.0,0.0,0.0,0.0,0.0,0.0,0.0,0.0,0.0,0.0,0.0,0.0,0.0,0.0,0.0,0.0,0.0,0.0,0.0,0.0,0.0,0.0,0.0,0.0,0.0,0.0,0.0,0.0,0.0,0.0,0.0,0.0,0.0,0.0,0.0,0.0,0.0,0.0,0.0,0.0,0.0,0.0,0.0,0.0,0.0,0.0,0.0,0.0,0.0,0.0,0.0,0.0,0.0,0.0,0.0,0.0,0.0,0.0,0.0,0.0,0.0,0.0,0.0,0.0,0.0,0.0,0.0,0.0,0.0,0.0,0.0,0.0,0.0,0.0,0.0,0.0,0.0,0.0,0.0,0.0,0.0,0.0,0.0,0.0,0.0,0.0,0.0,0.0,0.0,0.0,0.0,0.0,0.0,0.0,0.0,0.0,0.0,0.0,0.0,0.0,0.0,0.0,0.0,0.0,0.0,0.0,0.0,0.0,0.0,0.0,0.0,0.0,0.0,0.0,0.0,0.0,0.0,0.0,0.0,0.0,0.0,0.0,0.0,0.0,0.0,0.0,0.0,0.0,0.0,0.0,0.0,0.0,0.0,0.0,0.0,0.0,0.0,0.0,0.0,0.0,0.0,0.0,0.0,0.0,0.0,0.0,0.0,0.0,0.0,0.0,0.0,0.0,0.0,0.0,0.0,0.0,0.0,0.0,0.0,0.0,0.0,0.0,0.0,0.0,0.0,0.0,0.0,0.0,0.0,0.0,0.0,0.0,0.0,0.0,0.0,0.0,0.0,0.0,0.0,0.0,0.0,0.0,0.0,0.0,0.0,0.0,0.0,0.0,0.0,0.0,0.0,0.0,0.0,0.0,0.0,0.0,0.0,0.0,0.0,0.0,0.0,0.0,0.0,0.0,0.0,0.0,0.0,0.0,0.0,0.0,0.0,0.0,0.0,0.0,0.0,0.0,0.0,0.0,0.0,0.0,0.0,0.0,0.0,0.0,0.0,0.0,0.0,0.0,0.0,0.0,0.0,0.0,0.0,0.0,0.0,0.0,0.0,0.0,0.0,0.0,0.0,0.0,0.0,0.0,0.0,0.0,0.0,0.0,0.0,0.0,0.0,0.0,0.0,0.0,0.0,0.0,0.0,0.0,0.0,0.0,0.0,0.0,0.0,0.0,0.0,0.0,0.0,0.0,0.0,0.0,0.0,0.0,0.0,0.0,0.0,0.0,0.0,0.0,0.0,0.0,0.0,0.0,0.0,0.0,0.0,0.0,0.0,0.0,0.0,0.0,0.0,0.0,0.0,0.0,0.0,0.0,0.0,0.0,0.0,0.0,0.0,0.0,0.0,0.0,0.0,0.0,0.0,0.0,0.0,0.0,0.0,0.0,0.0,0.0,0.0,0.0,0.0,0.0,0.0,0.0,0.0,0.0,0.0,0.0,0.0,0.0,0.0,0.0,0.0,0.0,0.0,0.0,0.0,0.0,0.0,0.0,0.0,0.0,0.0,0.0,0.0,0.0,0.0,0.0,0.0,0.0,0.0,0.0,0.0,0.0,0.0,0.0,0.0,0.0,0.0,0.0,0.0,0.0,0.0,0.0,0.0,0.0,0.0,0.0,0.0,0.0,0.0,0.0,0.0,0.0,0.0,0.0,0.0,0.0,0.0,0.0,0.0,0.0,0.0,0.0,0.0,0.0,0.0,0.0,0.0,0.0,0.0,0.0,0.0,0.0,0.0,0.0,0.0,0.0,0.0,0.0,0.0,0.0,0.0,0.0,0.0,0.0,0.0,0.0,0.0,0.0,0.0,0.0,0.0,0.0,0.0,0.0,0.0,0.0,0.0,0.0,0.0,0.0,0.0,0.0,0.0,0.0,0.0,0.0,0.0,0.0,0.0,0.0,0.0,0.0,0.0,0.0,0.0,0.0,0.0,0.0,0.0,0.0,0.0,0.0,0.0,0.0,0.0,0.0,0.0,0.0,0.0,0.0,0.0,0.0,0.0,0.0,0.0,0.0,0.0,0.0,0.0,0.0,0.0,0.0,0.0,0.0,0.0,0.0,0.0,0.0,0.0,0.0,0.0,0.0,0.0,0.0,0.0,0.0,0.0,0.0,0.0,0.0,0.0,0.0,0.0,0.0,0.0,0.0,0.0,0.0,0.0,0.0,0.0,0.0,0.0,0.0,0.0,0.0,0.0,0.0,0.0,0.0,0.0,0.0,0.0,0.0,0.0,0.0,0.0,0.0,0.0,0.0,0.0,0.0,0.0,0.0,0.0,0.0,0.0,0.0,0.0,0.0,0.0,0.0,0.0,0.0,0.0,0.0,0.0,0.0,0.0,0.0,0.0,0.0,0.0,0.0,0.0,0.0,0.0,0.0,0.0,0.0,0.0,0.0,0.0,0.0,0.0,0.0,0.0,0.0,0.0,0.0,0.0,0.0,0.0,0.0,0.0,0.0,0.0,0.0,0.0,0.0,0.0,0.0,0.0,0.0,0.0,0.0,0.0,0.0,0.0,0.0,0.0,0.0,0.0,0.0,0.0,0.0,0.0,0.0,0.0,0.0,0.0,0.0,0.0,0.0,0.0,0.0,0.0,0.0,0.0,0.0,0.0,0.0,0.0,0.0,0.0,0.0,0.0,0.0,0.0,0.0,0.0,0.0,0.0,0.0,0.0,0.0,0.0,0.0,0.0,0.0,0.0,0.0,0.0,0.0,0.0,0.0,0.0,0.0,0.0,0.0,0.0,0.0,0.0,0.0,0.0,0.0,0.0,0.0,0.0,0.0,0.0,0.0,0.0,0.0,0.0,0.0,0.0,0.0,0.0,0.0,0.0,0.0,0.0,0.0,0.0,0.0,0.0,0.0,0.0,0.0,0.0,0.0,0.0,0.0,0.0,0.0,0.0,0.0,0.0,0.0,0.0,0.0,0.0,0.0,0.0,0.0,0.0,0.0,0.0,0.0,0.0,0.0,0.0,0.0,0.0,0.0,0.0,0.0,0.0,0.0,0.0,0.0,0.0,0.0,0.0,0.0,0.0,0.0,0.0,0.0,0.0,0.0,0.0,0.0,0.0,0.0,0.0,0.0,0.0,0.0,0.0,0.0,0.0,0.0,0.0,0.0,0.0,0.0,0.0,0.0,0.0,0.0,0.0,0.0,0.0,0.0,0.0,0.0,0.0,0.0,0.0,0.0,0.0,0.0,0.0,0.0,0.0,0.0,0.0,0.0,0.0,0.0,0.0,0.0,0.0,0.0,0.0,0.0,0.0,0.0,0.0,0.0,0.0,0.0,0.0,0.0,0.0,0.0,0.0,0.0,0.0,0.0,0.0,0.0,0.0,0.0,0.0,0.0,0.0,0.0,0.0,0.0,0.0,0.0,0.0,0.0,0.0,0.0,0.0,0.0,0.0,0.0,0.0,0.0,0.0,0.0,0.0,0.0,0.0,0.0,0.0,0.0,0.0,0.0,0.0,0.0,0.0,0.0,0.0,0.0,0.0,0.0,0.0,0.0,0.0,0.0,0.0,0.0,0.0,0.0,0.0,0.0,0.0,0.0,0.0,0.0,0.0,0.0,0.0,0.0,0.0,0.0,0.0,0.0,0.0,0.0,0.0,0.0,0.0,0.0,0.0,0.0,0.0,0.0,0.0,0.0,0.0,0.0,0.0,0.0,0.0,0.0,0.0,0.0,0.0,0.0,0.0,0.0,0.0,0.0,0.0,0.0,0.0,0.0,0.0,0.0,0.0,0.0,0.0,0.0,0.0,0.0,0.0,0.0,0.0,0.0,0.0,0.0,0.0,0.0,0.0,0.0,0.0,0.0,0.0,0.0,0.0,0.0,0.0,0.0,0.0,0.0,0.0,0.0,0.0,0.0,0.0,0.0,0.0,0.0,0.0,0.0,0.0,0.0,0.0,0.0,0.0,0.0,0.0,0.0,0.0,-4.2844,-4.1915,0.0,0.0,0.0,0.0,0.0,0.0,0.0,0.0,0.0,0.0,0.0,0.0,0.0,0.0,0.0,0.0,0.0,0.0,0.0,0.0,0.0,0.0,0.0,0.0,0.0,0.0,0.0,0.0,0.0,0.0,0.0,0.0,0.0,0.0,0.0,0.0,0.0,0.0,0.0,0.0,0.0,0.0,0.0,0.0,0.0,0.0,0.0,0.0,0.0,0.0,0.0,0.0,0.0,0.0,0.0,0.0,0.0,0.0,0.0,0.0,0.0,0.0,0.0,0.0,0.0,0.0,0.0,0.0,0.0,0.0,0.0,0.0,0.0,0.0,0.0,0.0,0.0,0.0,0.0,0.0,0.0,0.0,0.0,0.0,0.0,0.0,0.0,0.0,0.0,0.0,0.0,0.0,0.0,0.0,0.0,0.0,0.0,0.0,0.0,0.0,0.0,0.0,0.0,0.0,0.0,0.0,0.0,0.0,0.0,0.0,0.0,0.0,0.0,0.0,-4.3361,-4.2864,0.0,0.0,0.0,0.0,0.0,0.0,0.0,0.0,0.0,0.0,0.0,0.0,0.0,0.0,0.0,0.0,0.0,0.0,0.0,0.0,0.0,0.0,0.0,0.0,0.0,0.0,0.0,0.0,0.0,0.0,0.0,0.0,0.0,0.0,0.0,0.0,0.0,0.0,0.0,0.0,0.0,0.0,0.0,0.0,0.0,0.0,0.0,0.0,0.0,0.0,0.0,0.0,0.0,0.0,0.0,0.0,0.0,0.0,0.0,0.0,0.0,0.0,0.0,0.0,0.0,0.0,0.0,0.0,0.0,0.0,0.0,0.0,0.0,0.0,0.0,0.0,0.0,0.0,0.0,0.0,0.0,0.0,0.0,0.0,0.0,0.0,0.0,0.0,0.0,0.0,0.0,0.0,0.0,0.0,0.0,0.0,0.0,0.0,0.0,0.0,0.0,0.0,0.0,0.0,0.0,0.0,0.0,0.0,-4.3407,-4.3445,-4.3445,-4.3405,-4.375,-4.4418,-4.3805,-4.3897,-4.4352,-4.2854,0.0,0.0,0.0,0.0,0.0,0.0,0.0,0.0,0.0,0.0,0.0,0.0,0.0,0.0,0.0,0.0,0.0,0.0,0.0,0.0,0.0,0.0,0.0,0.0,0.0,0.0,0.0,0.0,0.0,0.0,0.0,0.0,0.0,0.0,0.0,0.0,0.0,0.0,-3.7373,-3.8003,-3.8478,-3.8619,-3.6481,0.0,0.0,0.0,0.0,0.0,0.0,0.0,0.0,0.0,0.0,0.0,0.0,0.0,0.0,0.0,0.0,0.0,0.0,0.0,0.0,0.0,0.0,0.0,0.0,0.0,0.0,0.0,0.0,0.0,0.0,0.0,0.0,0.0,0.0,0.0,0.0,0.0,0.0,0.0,0.0,0.0,0.0,0.0,-4.0966,-4.1148,0.0,0.0,0.0,0.0,0.0,0.0,0.0,0.0,0.0,0.0,0.0,0.0,0.0,-4.2481,-4.2181,-4.2943,-4.3302,-4.3321,-4.4064,-4.4405,-4.4405,-4.4405,-4.463,-4.5008,-4.4872,0.0,-4.4297,-4.4066,0.0,0.0,0.0,0.0,0.0,0.0,0.0,0.0,0.0,0.0,0.0,0.0,0.0,0.0,0.0,0.0,0.0,0.0,0.0,0.0,0.0,0.0,0.0,0.0,0.0,0.0,0.0,0.0,0.0,0.0,0.0,0.0,0.0,0.0,0.0,0.0,-3.5673,-3.7153,-3.8201,-3.8947,-3.9423,-3.9633,-3.873,-3.8165,-3.7905,-3.8148,0.0,0.0,0.0,0.0,0.0,0.0,0.0,0.0,0.0,0.0,0.0,0.0,0.0,0.0,0.0,0.0,0.0,0.0,0.0,0.0,0.0,0.0,0.0,0.0,0.0,0.0,0.0,0.0,0.0,0.0,0.0,0.0,0.0,0.0,0.0,0.0,0.0,0.0,0.0,-4.0682,-4.148,-4.1515,-4.1666,-4.1606,0.0,0.0,0.0,0.0,0.0,0.0,0.0,0.0,0.0,-4.1665,-4.1684,-4.1808,-4.2052,-4.2429,-4.2642,-4.2642,-4.3001,-4.319,-4.319,-4.319,-4.3264,-4.3407,-4.3407,-4.3395,-4.3388,-4.4034,-4.3874,-4.3162,0.0,0.0,0.0,0.0,-4.2566,-4.2739,0.0,0.0,0.0,0.0,0.0,0.0,0.0,0.0,0.0,0.0,0.0,0.0,0.0,0.0,0.0,-2.5787,0.0,0.0,0.0,0.0,0.0,0.0,0.0,0.0,0.0,0.0,0.0,-3.4515,-3.6004,-3.7411,-3.8706,-3.96,-4.0094,-4.0288,-4.0593,-4.0419,-3.9835,-3.9984,-3.9805,0.0,0.0,0.0,0.0,0.0,0.0,0.0,0.0,0.0,0.0,0.0,0.0,0.0,0.0,0.0,0.0,0.0,0.0,0.0,0.0,0.0,0.0,0.0,0.0,0.0,0.0,0.0,0.0,0.0,0.0,0.0,0.0,0.0,0.0,0.0,0.0,0.0,0.0,-4.1563,-4.2238,-4.203,-4.2401,-4.2329,0.0,0.0,0.0,0.0,0.0,0.0,-4.1661,-4.1123,-4.089,-4.1067,-4.1067,-4.1343,-4.1841,-4.1841,-4.1841,-4.1841,-4.1841,-4.1841,-4.1841,-4.1841,-4.1893,-4.1977,-4.1977,-4.2214,-4.2658,-4.3521,-4.3918,-4.3932,-4.3335,-4.3104,-4.3124,-4.3335,-4.3412,-4.3547,0.0,0.0,0.0,0.0,0.0,0.0,0.0,0.0,0.0,0.0,0.0,0.0,0.0,0.0,-2.4092,-2.4117,-2.3615,-2.3288,0.0,0.0,0.0,0.0,0.0,0.0,0.0,0.0,0.0,-3.424,-3.638,-3.7947,-3.9014,-4.012,-4.0983,-4.1537,-4.1796,-4.1372,-4.0474,-4.0922,-4.1184,-4.1222,0.0,0.0,0.0,0.0,0.0,0.0,0.0,0.0,0.0,0.0,0.0,0.0,0.0,0.0,0.0,0.0,0.0,0.0,0.0,0.0,0.0,0.0,0.0,0.0,0.0,0.0,0.0,0.0,0.0,0.0,0.0,0.0,0.0,0.0,0.0,0.0,0.0,0.0,0.0,-4.3227,-4.3962,0.0,0.0,0.0,0.0,-4.221,-4.1393,-4.1235,-4.2014,-4.1321,-4.108,-4.1568,-4.1558,-4.1441,-4.1158,-4.1158,-4.1158,-4.1158,-4.1158,-4.1158,-4.1158,-4.1158,-4.1323,-4.1614,-4.1614,-4.1996,-4.2601,-4.2658,-4.2871,-4.3162,-4.3124,-4.3104,-4.3181,-4.3951,-4.4239,-4.4355,0.0,0.0,0.0,0.0,0.0,0.0,0.0,0.0,0.0,0.0,0.0,0.0,0.0,-2.4644,-2.4519,-2.4519,-2.4732,-2.4561,-2.3715,0.0,0.0,0.0,0.0,0.0,0.0,0.0,-3.2874,-3.3414,-3.5456,-3.663,-3.7038,-3.8704,-3.9595,-3.9823,-4.0652,-4.1168,-4.1377,-4.2203,-4.2398,-4.2143,-4.2576,-4.2252,0.0,0.0,0.0,0.0,0.0,0.0,0.0,0.0,0.0,0.0,0.0,0.0,0.0,0.0,0.0,0.0,0.0,0.0,0.0,0.0,0.0,0.0,0.0,0.0,0.0,0.0,0.0,0.0,0.0,0.0,0.0,0.0,0.0,0.0,0.0,0.0,0.0,-4.3549,-4.3931,0.0,-4.208,-4.2151,-4.2063,-4.1425,-4.1327,-4.1072,-4.0513,-4.0335,-3.9937,-3.9241,-3.9534,-3.9669,-3.957,-3.957,-3.957,-3.957,-3.957,-3.957,-3.957,-3.957,-3.9626,-3.9741,-3.9741,-4.0093,-4.0669,-4.0669,-4.1627,-4.3104,-4.3104,-4.3104,-4.3124,-4.3412,-4.3528,-4.3566,0.0,0.0,0.0,0.0,0.0,0.0,0.0,0.0,0.0,0.0,0.0,-2.4418,-2.4782,-2.482,-2.4745,-2.4556,-2.482,-2.4709,-2.4144,0.0,0.0,0.0,0.0,0.0,0.0,-3.1529,-3.2273,-3.2824,-3.4622,-3.5605,-3.5809,-3.7548,-3.8518,-3.8842,-3.9701,-4.0566,-4.1434,-4.2389,-4.2766,-4.2738,-4.333,-4.3024,-4.2184,0.0,0.0,0.0,0.0,0.0,0.0,0.0,0.0,0.0,0.0,0.0,0.0,0.0,0.0,0.0,0.0,0.0,0.0,0.0,0.0,0.0,0.0,0.0,0.0,0.0,0.0,0.0,0.0,0.0,0.0,0.0,0.0,0.0,0.0,-4.3802,-4.4316,-4.3195,-4.3615,-4.3289,-4.1449,-4.1669,-4.1661,-4.1004,-4.0837,-4.0357,-3.9497,-3.9305,-3.8813,-3.7911,-3.8415,-3.8707,-3.8707,-3.8707,-3.8707,-3.8707,-3.8707,-3.8707,-3.8707,-3.8707,-3.8707,-3.8707,-3.8707,-3.9036,-3.9599,-3.9599,-4.063,-4.2239,-4.2547,-4.2835,-4.3104,-4.3104,-4.3104,-4.3104,0.0,0.0,0.0,0.0,0.0,0.0,0.0,0.0,0.0,0.0,-2.4494,-2.4833,-2.4845,-2.4833,-2.4594,-2.4054,-2.3464,-2.3484,-2.4234,-2.5007,0.0,0.0,0.0,0.0,-3.119,-3.1603,-3.2057,-3.2517,-3.4055,-3.5051,-3.5491,-3.686,-3.7946,-3.8747,-3.9125,-3.9719,-4.0508,-4.1393,-4.2258,-4.3028,-4.3085,-4.3085,-4.297,0.0,0.0,0.0,0.0,0.0,0.0,0.0,0.0,0.0,0.0,0.0,0.0,0.0,0.0,0.0,0.0,0.0,0.0,0.0,0.0,0.0,0.0,0.0,0.0,0.0,0.0,0.0,0.0,0.0,0.0,0.0,0.0,0.0,-4.3534,-4.4219,-4.4107,-4.2242,-4.3158,-4.3107,-4.099,-4.1247,-4.1412,-4.1052,-3.9797,-3.9065,-3.9065,-3.8308,-3.7893,-3.7893,-3.8415,-3.8707,-3.8707,-3.8689,-3.867,-3.867,-3.8652,-3.8634,-3.8634,-3.8634,-3.8634,-3.8634,-3.8615,-3.8962,-3.9524,-3.9547,-3.9888,-4.0508,-4.1412,-4.2277,-4.3028,-4.3028,-4.3028,-4.3028,0.0,0.0,0.0,0.0,0.0,0.0,0.0,0.0,0.0,0.0,-2.4732,-2.4971,-2.5335,-2.5046,-2.4594,-2.4054,-2.3996,-2.406,-2.4292,0.0,0.0,0.0,0.0,0.0,-3.1623,-3.2074,-3.255,-3.3014,-3.4166,-3.4805,-3.4948,-3.6303,-3.7053,-3.7341,-3.8689,-3.9411,-3.9681,-4.0508,-4.0989,-4.1316,-4.2585,-4.272,-4.2143,0.0,0.0,0.0,0.0,0.0,0.0,0.0,0.0,0.0,0.0,0.0,0.0,0.0,0.0,0.0,0.0,0.0,0.0,0.0,0.0,0.0,0.0,0.0,0.0,0.0,0.0,0.0,0.0,0.0,0.0,0.0,-4.2587,-4.2982,-4.3359,-4.4161,-4.4187,-4.2756,-4.2617,-4.207,-4.0648,-4.0418,-4.0081,-3.9405,-3.867,-3.8218,-3.8218,-3.802,-3.7893,-3.7893,-3.8415,-3.8707,-3.8707,-3.812,-3.7826,-3.7808,-3.7239,-3.6964,-3.6964,-3.6964,-3.6964,-3.6993,-3.7165,-3.7443,-3.7791,-3.8,-3.8323,-3.8834,-4.0296,-4.0989,-4.12,-4.12,-4.12,-4.12,0.0,0.0,0.0,0.0,0.0,0.0,0.0,0.0,0.0,0.0,-2.482,-2.5021,-2.5536,-2.5322,-2.4933,-2.4393,-2.4525,-2.4766,-2.5101,0.0,0.0,0.0,0.0,-3.0534,-3.1771,-3.2264,-3.2773,-3.3375,-3.4251,-3.4754,-3.4889,-3.5783,-3.6392,-3.6738,-3.7757,-3.8623,-3.9315,-3.9796,-4.0181,-4.0585,-4.1604,-4.1931,-4.1797,-4.1797,-4.1797,-4.1797,-4.1797,-4.1797,-4.1838,-4.2024,0.0,0.0,0.0,0.0,0.0,0.0,0.0,0.0,0.0,0.0,0.0,0.0,0.0,0.0,0.0,0.0,0.0,0.0,0.0,0.0,0.0,0.0,0.0,0.0,-4.2536,-4.2767,-4.2844,-4.3562,-4.3611,-4.2312,-4.1825,-4.1136,-3.9954,-3.9575,-3.9203,-3.8744,-3.8216,-3.7749,-3.7442,-3.7406,-3.7262,-3.6919,-3.7411,-3.7698,-3.7698,-3.7221,-3.6982,-3.6982,-3.6505,-3.6303,-3.6303,-3.6303,-3.637,-3.6473,-3.6623,-3.6921,-3.7278,-3.7433,-3.7687,-3.8104,0.0,0.0,0.0,0.0,-3.945,-3.945,0.0,0.0,0.0,0.0,0.0,0.0,0.0,0.0,0.0,0.0,0.0,-2.4981,-2.549,-2.5569,-2.5385,-2.487,-2.4906,-2.5329,0.0,0.0,0.0,-2.9473,-2.9454,-3.0168,-3.1844,-3.2282,-3.2893,-3.3684,-3.4364,-3.4851,-3.5105,-3.5369,-3.5892,-3.6584,-3.6661,-3.7565,-3.9008,-3.9219,-3.97,-4.0354,-4.045,-4.095,-4.1662,-4.1662,-4.172,-4.1816,-4.1764,-4.1745,-4.179,-4.22,0.0,0.0,0.0,0.0,0.0,0.0,0.0,0.0,0.0,0.0,0.0,0.0,0.0,0.0,0.0,0.0,0.0,0.0,0.0,0.0,0.0,0.0,0.0,0.0,-4.28,-4.2941,-4.1956,-4.2364,-4.2362,-4.1284,-4.0919,-4.0277,-3.9096,-3.8726,-3.8524,-3.845,-3.7911,-3.7334,-3.6681,-3.6612,0.0,0.0,0.0,-3.6303,-3.6303,-3.6193,-3.6156,-3.6156,-3.6064,-3.6009,-3.6009,-3.6009,-3.6168,-3.6428,-3.6454,-3.6754,-3.7222,-3.7258,-3.7453,-3.7738,-3.793,-3.8007,-3.8007,-3.8007,-3.8007,-3.8007,0.0,0.0,0.0,0.0,0.0,0.0,0.0,0.0,0.0,-2.3556,-2.4329,-2.4855,-2.5105,-2.5376,-2.5385,-2.487,-2.4432,-2.4801,0.0,0.0,-2.8966,-3.0161,-2.971,-3.0344,-3.2298,-3.2451,-3.3015,-3.4086,-3.4489,-3.4851,-3.5105,-3.5369,-3.557,-3.5757,-3.6411,-3.6892,-3.7296,-3.87,-3.9392,-3.9585,-4.0239,-4.0585,-4.0739,-4.0739,-4.1181,-4.1764,-4.1494,-4.1399,-4.138,-4.1241,-4.1165,-4.1099,-4.0858,0.0,0.0,0.0,0.0,0.0,0.0,0.0,0.0,0.0,0.0,0.0,0.0,0.0,0.0,0.0,0.0,0.0,0.0,0.0,0.0,-4.1382,-4.1367,-4.1042,-4.0193,-4.0077,-4.0137,-4.0311,-4.0044,-3.9387,-3.8238,-3.7876,-3.7459,-3.6798,-3.6259,-3.6091,-3.6358,-3.596,-3.5856,-3.615,-3.6256,-3.6303,-3.6303,-3.5605,-3.5247,-3.5229,-3.4596,0.0,-3.4284,-3.4284,-3.4434,-3.4703,-3.4974,-3.5266,-3.5581,-3.5799,-3.5926,-3.6122,-3.7469,-3.8007,-3.8007,-3.8007,-3.8007,-3.8007,0.0,0.0,0.0,0.0,0.0,0.0,0.0,0.0,0.0,0.0,-2.4075,-2.4526,-2.4854,-2.5108,-2.5109,-2.4845,-2.4912,0.0,0.0,-2.7637,-2.8875,-2.977,-3.0212,-3.1161,-3.2717,-3.2967,-3.3499,-3.4441,-3.4611,-3.4851,-3.5105,-3.5369,-3.5493,-3.5526,-3.593,-3.6334,-3.6796,-3.8084,-3.8892,-3.9373,-4.0181,-4.0489,-4.0489,-4.0356,-4.0572,-4.0958,-4.1068,-4.1095,-4.1127,-4.1237,-4.1215,-4.1162,-4.1008,-4.1249,-4.1398,0.0,0.0,0.0,0.0,0.0,0.0,0.0,0.0,0.0,0.0,0.0,0.0,0.0,0.0,-4.0627,-4.0392,0.0,-3.9721,-3.9794,-3.9648,-3.9392,-3.8959,-3.8753,-3.87,-3.8784,-3.8527,-3.807,-3.7373,-3.7064,-3.6725,-3.6321,-3.6072,-3.5811,-3.565,-3.5403,-3.5173,-3.5055,-3.5055,-3.5055,-3.5055,-3.4633,-3.4412,-3.4394,-3.399,-3.385,-3.4012,-3.4012,-3.4242,-3.4656,-3.4832,-3.5034,-3.5304,-3.5446,-3.5493,-3.5584,-3.643,-3.6757,-3.6757,-3.6757,-3.6757,-3.6757,0.0,0.0,0.0,0.0,0.0,0.0,0.0,0.0,0.0,0.0,-2.3867,-2.4142,-2.4486,-2.4678,-2.4782,0.0,0.0,0.0,0.0,-2.7625,-2.8753,-2.9372,-3.0596,-3.1785,-3.2789,-3.3235,-3.3841,-3.4563,-3.4667,-3.4842,-3.5097,-3.5264,-3.5335,-3.5335,-3.5335,-3.5699,-3.637,-3.7386,-3.8306,-3.9188,-4.0166,-4.0645,-4.0764,-4.0498,-4.0267,-4.0138,-4.0443,-4.0551,-4.0591,-4.0943,-4.1136,-4.1208,-4.0933,-4.0983,-4.0928,-3.9955,-4.0139,0.0,0.0,0.0,0.0,0.0,0.0,0.0,0.0,-3.9493,-3.9411,-3.9838,-3.9672,-3.9339,-3.9,-3.882,-3.8747,-3.8883,-3.8711,-3.8462,-3.8232,-3.7945,-3.7602,-3.7158,-3.7147,-3.7009,-3.659,-3.6295,-3.6057,-3.5826,-3.5807,-3.5514,-3.4789,-3.4752,-3.4495,-3.3913,-3.3876,-3.3902,-3.3979,-3.3979,-3.3979,-3.3979,-3.3979,-3.4087,-3.4311,-3.4311,-3.4595,-3.5105,-3.5174,-3.5304,-3.5493,-3.5493,-3.5526,-3.5526,-3.5526,-3.5641,-3.5776,-3.5603,-3.5526,-3.5526,0.0,0.0,0.0,0.0,0.0,0.0,0.0,0.0,0.0,0.0,0.0,0.0,0.0,0.0,0.0,0.0,0.0,0.0,-2.61,-2.8022,-2.9464,-3.0056,-3.0424,-3.1082,-3.2097,-3.2748,-3.3429,-3.4164,-3.4516,-3.4829,-3.5099,-3.4896,-3.4774,-3.4774,-3.4774,-3.4831,-3.502,-3.6553,-3.7667,-3.8553,-4.014,-4.1175,-4.1812,-4.1518,-4.0871,-4.0041,-3.9502,-3.9309,-3.9275,-3.9084,-3.9485,-4.0073,-4.006,-4.0524,-4.0818,-3.9276,0.0,-3.8597,-3.693,-3.7031,-3.7954,-3.9343,-3.8975,-3.9046,0.0,-4.0896,-3.9777,-4.1437,-4.0623,-3.9852,-4.0723,-4.0246,-3.9949,-4.061,-3.9995,-3.9154,-3.832,-3.7425,-3.657,-3.5811,-3.6755,-3.7072,-3.6071,-3.5759,-3.518,-3.4164,-3.4082,-3.4045,-3.3935,-3.3935,-3.3994,-3.4147,-3.4171,-3.4288,-3.4591,-3.4612,-3.4612,-3.4612,-3.4612,-3.4612,-3.4653,-3.4653,-3.4813,-3.5105,-3.5354,-3.546,-3.5493,-3.5493,-3.5545,-3.5603,-3.5603,-3.6098,-3.6727,-3.5892,-3.5603,-3.5603,0.0,0.0,0.0,0.0,0.0,0.0,0.0,0.0,0.0,0.0,0.0,0.0,0.0,0.0,0.0,0.0,0.0,0.0,-2.5358,-2.7233,-2.8477,-2.8733,-2.9682,-3.0639,-3.1576,-3.2128,-3.2934,-3.414,-3.4305,-3.4614,-3.5111,-3.519,-3.5217,-3.5217,-3.5217,-3.538,-3.5722,-3.6887,-3.8019,-3.91,-4.0306,-4.1286,-4.1971,-4.1707,-4.084,-3.972,-3.9081,-3.8588,0.0,0.0,-3.8212,-3.8652,-3.9588,-3.9808,-3.957,-3.8909,-3.8707,-3.8695,-3.8625,-3.8265,-3.8191,-3.9339,-3.9547,-3.9515,-3.9823,-3.9199,-3.8642,-3.9012,-3.9356,-3.9591,-3.9568,-4.0176,-4.0737,-4.0967,-4.0679,-3.9894,-3.8411,-3.7839,-3.7055,-3.568,-3.5978,-3.6102,-3.5495,-3.5036,-3.4561,-3.4062,-3.3876,-3.3807,-3.3807,-3.3807,-3.391,-3.4176,-3.42,-3.4357,-3.4694,-3.4694,-3.4694,-3.4694,-3.4694,-3.4774,-3.4926,-3.4926,-3.5088,-3.5354,-3.5446,-3.5526,-3.5565,-3.5565,-3.5603,-3.5707,-3.6228,-3.6649,-3.6939,-3.6563,-3.674,-3.7182,0.0,0.0,0.0,0.0,0.0,0.0,0.0,0.0,0.0,0.0,0.0,0.0,0.0,0.0,0.0,0.0,0.0,0.0,0.0,-2.6453,-2.7578,-2.7657,-2.9018,-3.0021,-3.0616,-3.111,-3.2029,-3.3416,-3.3457,-3.3869,-3.455,-3.4912,-3.5083,-3.5083,-3.5281,-3.5533,-3.5936,-3.7011,-3.8124,-3.9259,-4.0317,-4.1226,-4.1883,-4.1488,-4.0463,-3.921,-3.8702,-3.7904,0.0,0.0,-3.6961,-3.7192,-3.8493,-3.8505,-3.7991,-3.7753,-3.7533,-3.7573,-3.8581,-3.8427,-3.8215,-3.9071,-3.9661,-3.9742,-3.8642,-3.8377,-3.8277,-3.8007,-3.898,-3.9821,-3.9528,-4.0586,-4.1543,-4.1699,-4.152,-4.0881,-3.9475,-3.8878,-3.8001,-3.6439,-3.604,-3.5701,-3.5242,-3.4736,-3.4405,-3.4357,-3.4141,-3.4055,-3.4055,-3.4055,-3.4165,-3.4427,-3.4449,-3.4595,-3.4926,-3.4926,-3.4926,-3.4926,-3.4926,-3.5016,-3.5207,-3.5226,-3.5339,-3.5545,-3.5565,-3.5584,-3.5622,-3.563,-3.5695,-3.5842,-3.6706,-3.7211,-3.7467,-3.7711,-3.8025,-3.833,0.0,0.0,0.0,0.0,0.0,0.0,0.0,0.0,0.0,0.0,0.0,0.0,0.0,0.0,0.0,0.0,0.0,0.0,0.0,-2.6142,-2.7155,-2.771,-2.8556,-2.9052,-2.9052,-2.975,-3.047,-3.1384,-3.1753,-3.2385,-3.3176,-3.3588,-3.3757,-3.3813,-3.4461,-3.4748,-3.4836,-3.6447,-3.758,-3.8468,-3.9992,-4.1073,-4.1718,-4.0996,-3.9771,-3.8407,-3.8131,0.0,0.0,0.0,-3.5648,-3.5729,-3.6241,-3.6376,0.0,-3.5339,-3.4578,0.0,-3.4945,-3.5943,-3.7044,-3.8158,-3.8645,-3.9127,-4.0172,-3.9815,-3.9508,-4.0408,-4.0631,-4.0986,-4.1984,-4.2226,-4.2539,-4.3379,-4.2812,-4.2195,-4.2011,-4.0591,-3.9204,-3.8232,-3.7357,-3.6516,-3.557,-3.5239,-3.4963,-3.4694,-3.4674,-3.4674,-3.4674,-3.4674,-3.4793,-3.5051,-3.5069,-3.5207,-3.546,-3.5479,-3.5479,-3.5479,-3.5479,-3.5493,-3.5493,-3.5551,-3.5589,-3.5603,-3.568,-3.5699,-3.5707,-3.5706,-3.5766,-3.5982,-3.6837,-3.7741,-3.8641,-3.9495,-3.9204,-3.8414,0.0,0.0,0.0,0.0,0.0,0.0,0.0,0.0,0.0,0.0,0.0,0.0,0.0,0.0,0.0,0.0,0.0,0.0,0.0,-2.3629,-2.4312,-2.4491,-2.566,-2.6599,-2.7233,-2.8023,-2.9115,-3.047,-3.0597,-3.0996,-3.1743,-3.2437,-3.2756,-3.2805,-3.3606,-3.4413,-3.5194,-3.6249,-3.7586,-3.9138,-4.0186,-4.0539,-4.0429,-4.0612,-3.8929,-3.6471,0.0,0.0,0.0,0.0,0.0,0.0,-3.5154,0.0,0.0,-3.3966,0.0,0.0,0.0,0.0,-3.7636,-3.8252,-3.8877,-3.9347,-3.9411,-3.9656,-3.9961,-4.0473,-4.1097,-4.1682,-4.2031,-4.3149,-4.4121,-4.4414,-4.4746,-4.4511,-4.3266,-4.2112,-4.083,-3.9304,-3.8373,-3.7486,-3.6573,-3.5653,-3.507,-3.4963,-3.4793,-3.4694,-3.4694,-3.4694,-3.4813,-3.5088,-3.5105,-3.5223,-3.5493,-3.5493,-3.5493,-3.5493,-3.5565,-3.5584,-3.5584,-3.5641,-3.5674,-3.5678,-3.5697,-3.5742,-3.5886,-3.6458,-3.6753,-3.6972,-3.8439,-3.9181,-3.9574,-4.0446,-4.055,-4.0266,0.0,0.0,0.0,0.0,0.0,0.0,0.0,0.0,0.0,0.0,0.0,0.0,0.0,0.0,0.0,0.0,0.0,0.0,0.0,0.0,-2.243,-2.2669,-2.356,-2.4259,-2.482,-2.5455,-2.6518,-2.8118,-2.8339,-2.8989,-3.0003,-3.0989,-3.1505,-3.152,-3.2904,-3.3889,-3.4642,-3.5728,-3.6935,-3.8145,-3.8675,-3.8657,-3.8336,-3.8505,-3.7132,0.0,0.0,0.0,0.0,0.0,0.0,0.0,0.0,0.0,0.0,0.0,0.0,0.0,0.0,-3.6361,-3.7084,-3.7989,-3.8606,-3.9091,-3.948,-4.0289,-4.1093,-4.1586,-4.2302,-4.2829,-4.2864,-4.3898,-4.466,-4.441,-4.5138,-4.5314,-4.4156,-4.3024,-4.1853,-4.0636,-3.9481,-3.844,-3.7553,-3.6723,-3.5974,-3.5331,-3.5126,-3.5,-3.4981,-3.5,-3.5089,-3.5239,-3.5239,-3.5339,-3.5493,-3.5526,-3.5565,-3.5584,-3.5622,-3.565,-3.5643,-3.5734,-3.5758,-3.5775,-3.58,-3.6027,-3.6433,-3.7005,-3.7439,-3.791,-3.9336,-3.9902,-4.0,-4.0816,-4.1134,-4.1145,0.0,0.0,0.0,0.0,0.0,0.0,0.0,0.0,0.0,0.0,0.0,0.0,0.0,0.0,0.0,0.0,0.0,0.0,0.0,0.0,0.0,-2.2002,-2.2115,-2.2127,-2.2127,-2.2195,-2.303,-2.4683,-2.5146,-2.6336,-2.7988,-2.9153,-2.9743,-2.9921,-3.2053,-3.3085,-3.3208,-3.477,-3.5537,-3.5568,-3.5662,-3.57,-3.5604,-3.4947,0.0,0.0,0.0,0.0,0.0,0.0,0.0,0.0,0.0,0.0,0.0,0.0,0.0,-3.337,-3.4145,-3.4691,-3.5487,-3.731,-3.7865,-3.8447,-4.034,-4.1692,-4.2745,-4.3605,-4.4001,-4.4239,-4.4328,-4.4388,-4.4206,-4.351,-4.4156,-4.4751,-4.4772,-4.3372,-4.2301,-4.2175,-4.0747,-3.9389,-3.8462,-3.8357,-3.763,-3.5868,-3.5707,-3.5622,-3.5534,-3.5565,-3.5584,-3.5526,-3.5526,-3.5526,-3.5526,-3.5578,-3.5649,-3.5707,-3.5713,-3.5709,-3.5702,-3.5847,-3.5907,-3.5907,-3.6013,-3.6543,-3.7305,-3.7402,-3.7929,-3.8748,-3.9627,-3.994,-4.0033,-4.0734,-4.0997,-4.1012,0.0,0.0,0.0,0.0,0.0,0.0,0.0,0.0,0.0,0.0,0.0,0.0,0.0,0.0,0.0,0.0,0.0,0.0,0.0,0.0,0.0,0.0,0.0,0.0,0.0,0.0,0.0,0.0,-2.3036,-2.3633,-2.4713,-2.5652,-2.6711,-2.771,-2.8947,-3.0015,-3.0888,-3.1838,-3.2915,-3.4038,0.0,-3.4603,-3.4242,0.0,0.0,0.0,0.0,0.0,0.0,0.0,0.0,0.0,0.0,-3.2792,-3.2303,0.0,0.0,-3.3231,-3.375,-3.4775,-3.5836,-3.6108,-3.7512,-3.9077,-4.0235,-4.1649,-4.2852,-4.334,-4.318,-4.2794,-4.2221,-4.2885,-4.3477,-4.3284,-4.4564,-4.5597,-4.5583,-4.4169,-4.3109,-4.3072,-4.1562,-4.0193,-3.9353,-3.9172,-3.8708,-3.7697,-3.7007,-3.6349,-3.5676,-3.5666,-3.568,-3.5661,-3.5661,-3.5661,-3.5661,-3.5669,-3.5685,-3.5704,-3.5809,-3.5849,-3.5852,-3.5943,-3.5962,-3.6001,-3.6676,-3.709,-3.7402,-3.8691,-3.9321,-3.9511,-4.0374,-4.0664,-4.0584,-4.0779,-4.0854,-4.0862,0.0,0.0,0.0,0.0,0.0,0.0,0.0,0.0,0.0,0.0,0.0,0.0,0.0,0.0,0.0,0.0,0.0,0.0,0.0,0.0,0.0,0.0,0.0,0.0,0.0,0.0,0.0,0.0,0.0,0.0,-2.2875,-2.3601,-2.4725,-2.6127,-2.7223,-2.8369,-2.9506,-3.0255,0.0,0.0,0.0,0.0,0.0,0.0,0.0,0.0,0.0,0.0,0.0,0.0,0.0,-3.2413,-3.319,-3.2911,-3.2286,-3.2093,0.0,-3.3115,-3.3335,-3.4147,-3.5084,-3.5595,-3.7023,-3.8545,-3.9593,-4.0954,-4.2084,-4.2471,-4.2162,-4.1667,-4.1212,-4.2125,-4.2811,-4.243,-4.3955,-4.5194,-4.5194,-4.3794,-4.2911,-4.3276,-4.1823,-4.061,-4.0164,-4.0061,-3.9694,-3.8933,-3.771,-3.6794,-3.6307,-3.596,-3.5764,-3.5706,-3.5706,-3.5736,-3.5795,-3.5789,-3.5795,-3.5838,-3.5911,-3.5939,-3.5947,-3.5979,-3.6211,-3.6582,-3.7025,-3.7644,-3.8436,-3.9384,-3.9935,-4.023,-4.0718,-4.0866,-4.0796,-4.0776,-4.0752,-4.0754,0.0,0.0,0.0,0.0,0.0,0.0,0.0,0.0,0.0,0.0,0.0,0.0,0.0,0.0,0.0,0.0,0.0,0.0,0.0,0.0,0.0,0.0,0.0,0.0,0.0,0.0,0.0,0.0,0.0,0.0,0.0,0.0,0.0,0.0,0.0,0.0,0.0,0.0,0.0,0.0,0.0,0.0,0.0,0.0,0.0,0.0,0.0,0.0,0.0,0.0,-3.3107,-3.2697,-3.3324,-3.309,-3.2508,-3.2252,-3.2479,-3.2779,-3.2779,-3.3196,-3.3932,-3.534,-3.6491,-3.755,-3.8636,-3.9792,-4.0712,-4.0919,-4.0787,-4.0632,-4.0519,-4.1529,-4.2177,-4.1589,-4.3043,-4.4263,-4.4297,-4.303,-4.2302,-4.2876,-4.1574,-4.0655,-4.0655,-4.0672,-4.0419,-3.9742,-3.8209,-3.7238,-3.7001,-3.6392,-3.5943,-3.571,-3.571,-3.5755,-3.5878,-3.5878,-3.5891,-3.5955,-3.5955,-3.5955,-3.5955,-3.6071,-3.6559,-3.7278,-3.7383,-3.8281,-3.9696,-3.9741,-4.0168,-4.0791,-4.0789,-4.0773,-4.0754,-4.0696,-4.0677,-4.0658,0.0,0.0,0.0,0.0,0.0,0.0,0.0,0.0,0.0,0.0,-2.0498,-2.0312,0.0,0.0,0.0,0.0,0.0,0.0,0.0,0.0,0.0,0.0,0.0,0.0,0.0,0.0,0.0,0.0,0.0,0.0,0.0,0.0,0.0,0.0,0.0,0.0,0.0,0.0,0.0,0.0,0.0,0.0,0.0,0.0,0.0,0.0,0.0,0.0,0.0,0.0,-3.3163,-3.408,-3.4322,-3.3909,-3.309,-3.1887,-3.1625,-3.1656,-3.1656,-3.2603,-3.3701,-3.4406,-3.6059,-3.7528,-3.7605,-3.8546,0.0,-3.7871,-3.8578,-3.9205,-3.8532,-3.9938,-4.1449,-4.2255,-4.3271,-4.4059,-4.428,-4.3254,-4.2278,-4.1686,-4.0532,-3.9813,-3.9813,-4.006,-4.0192,-4.0108,-3.9412,-3.8404,-3.7069,-3.6879,-3.6469,-3.5724,-3.5704,-3.5713,-3.5731,-3.5731,-3.5732,-3.5747,-3.5747,-3.5747,-3.5786,-3.6489,-3.6911,-3.7125,-3.8555,-3.9336,-3.9665,-4.0314,-4.0631,-4.0728,-4.0727,-4.0658,-4.0562,-4.0543,-4.0543,-4.0543,0.0,0.0,0.0,0.0,0.0,0.0,0.0,-2.0566,-2.0566,-2.0566,-2.0566,-2.0488,-2.0273,-2.0254,-2.0176,0.0,0.0,0.0,0.0,0.0,0.0,0.0,0.0,0.0,0.0,0.0,-1.9058,-1.8461,0.0,0.0,0.0,-2.0252,-2.099,0.0,0.0,0.0,0.0,0.0,0.0,0.0,0.0,0.0,0.0,0.0,0.0,0.0,0.0,0.0,0.0,0.0,-3.2251,-3.3952,-3.4831,-3.4352,-3.3354,-3.2708,-3.2251,-3.1948,-3.1948,-3.2449,-3.3113,-3.3758,-3.4998,-3.5987,-3.5797,0.0,0.0,-3.5969,-3.6714,-3.7453,-3.7356,-3.8915,-4.051,-4.1329,-4.2295,-4.3003,-4.3151,-4.2322,-4.1551,-4.1152,-4.0223,-3.9599,-3.9599,-3.9754,-3.9844,-3.989,-3.9662,-3.8963,-3.7738,-3.6811,-3.6133,-3.5716,-3.5697,-3.5697,-3.5697,-3.5697,-3.5697,-3.5697,-3.5697,-3.5697,-3.5736,-3.6605,-3.724,-3.7742,-3.8965,-3.976,-4.02,-4.0508,-4.054,-4.04,-4.04,-4.0252,-4.0024,-4.0024,-4.0024,-4.0024,0.0,0.0,0.0,0.0,0.0,0.0,0.0,-2.0566,-2.0566,-2.0566,-2.0566,-2.0566,-2.0566,-2.0566,-2.0566,0.0,0.0,0.0,0.0,0.0,0.0,0.0,0.0,0.0,0.0,0.0,0.0,-1.7649,-1.8489,0.0,0.0,0.0,0.0,0.0,-2.1735,-2.2113,0.0,0.0,0.0,0.0,0.0,0.0,0.0,0.0,0.0,0.0,0.0,0.0,0.0,0.0,-3.0867,-3.2477,-3.402,-3.4044,-3.3383,-3.2936,-3.2578,-3.2289,-3.2289,-3.2392,-3.2673,-3.3248,-3.3887,-3.4281,-3.3784,-3.4253,-3.4644,-3.4161,-3.4836,-3.567,-3.6265,-3.7715,-3.9048,-3.9748,-4.0578,-4.1203,-4.1261,-4.0754,-4.0353,-4.0195,-3.9626,-3.92,-3.9085,-3.9144,-3.917,-3.917,-3.8995,-3.8656,-3.8079,-3.6427,-3.5492,-3.5492,-3.5537,-3.5537,-3.5492,-3.5537,-3.5537,-3.5492,-3.5492,-3.5492,-3.5511,-3.6549,-3.7395,-3.8104,-3.904,-3.9842,-4.0454,-4.0358,-4.0176,-4.0002,-4.0002,-3.9819,-3.9599,-3.9599,-3.9599,-3.9599,0.0,0.0,0.0,0.0,0.0,0.0,0.0,-2.0566,-2.0566,-2.0566,-2.0566,-2.0566,-2.0566,-2.0566,-2.0566,0.0,0.0,0.0,0.0,0.0,0.0,0.0,0.0,0.0,0.0,0.0,0.0,-1.7315,-1.7476,0.0,0.0,0.0,0.0,0.0,0.0,-2.0789,-2.0934,0.0,0.0,0.0,0.0,0.0,0.0,0.0,0.0,0.0,0.0,0.0,0.0,0.0,0.0,-2.9376,-3.0968,-3.2396,-3.314,-3.1159,0.0,0.0,-3.1592,-3.2069,-3.2617,-3.268,-3.3198,-3.3331,-3.2064,-3.2519,-3.2831,-3.1545,-3.2682,-3.411,-3.4836,-3.5723,-3.6702,-3.786,-3.8122,-3.8295,-3.8512,-3.8662,-3.8523,-3.7947,-3.8005,-3.7891,-3.747,-3.7626,-3.7772,-3.7772,-3.7109,-3.6855,-3.7173,-3.5681,-3.4793,-3.4793,-3.5018,-3.5035,-3.4793,-3.5035,-3.5035,-3.4793,-3.4793,-3.4793,-3.4849,-3.64,-3.7137,-3.7308,-3.8896,-3.9633,-3.9709,-3.969,-3.9668,-3.9645,-3.9645,-3.9622,-3.9599,-3.9599,-3.9599,-3.9599,0.0,0.0,0.0,0.0,0.0,0.0,-2.0566,-2.0566,-2.0566,-2.0566,-2.0566,-2.0566,-2.0566,-2.0566,-2.0323,-1.9678,0.0,0.0,0.0,0.0,0.0,0.0,0.0,0.0,0.0,0.0,-1.7009,-1.6355,-1.7009,0.0,0.0,0.0,0.0,0.0,0.0,-2.0001,-2.0644,0.0,0.0,0.0,0.0,0.0,0.0,0.0,0.0,0.0,0.0,0.0,-2.6559,0.0,0.0,0.0,-2.8394,-2.9706,0.0,0.0,-3.0332,-3.0097,-3.0406,-3.0831,-3.1203,-3.1203,-3.1793,-3.2107,-3.1149,-3.1197,-3.1204,-3.0222,-3.0933,-3.1958,-3.2576,-3.3613,-3.461,-3.5402,-3.5811,-3.6088,-3.6215,-3.6684,-3.6892,-3.6666,-3.7131,-3.7396,-3.7228,-3.7288,-3.7362,-3.7362,-3.6152,-3.552,-3.572,-3.5067,-3.4694,-3.4694,-3.4793,-3.4812,-3.4694,-3.4812,-3.4812,-3.4694,-3.4694,-3.4958,-3.5447,-3.6581,-3.7354,-3.7879,-3.909,-3.9599,-3.9599,-3.9599,-3.9462,-3.9289,-3.9289,-3.9197,-3.9064,-3.9064,-3.9064,-3.9064,0.0,0.0,0.0,0.0,0.0,-2.0566,-2.0566,-2.0566,-2.0566,-2.0566,-2.0566,-2.0566,-2.0566,-2.0566,-2.0001,-1.8638,-1.8798,0.0,0.0,0.0,0.0,0.0,0.0,0.0,0.0,0.0,-1.5959,-1.522,-1.5959,-1.6527,0.0,0.0,-1.7415,-1.8479,0.0,0.0,0.0,0.0,0.0,0.0,0.0,0.0,0.0,0.0,0.0,0.0,0.0,0.0,0.0,0.0,0.0,0.0,0.0,0.0,0.0,0.0,-2.9594,-2.9256,-2.9504,-2.9841,-3.0116,-2.9931,-3.028,-3.0418,-2.9702,-2.972,-2.9674,-2.8951,-2.9529,-3.0341,-3.0947,-3.1862,-3.258,-3.2893,-3.3343,-3.3588,-3.3588,-3.4192,-3.4627,-3.4696,-3.5335,-3.5809,-3.5832,-3.6015,-3.6153,-3.6153,-3.4805,-3.4091,-3.4239,-3.3971,-3.384,-3.403,-3.4255,-3.4338,-3.4246,-3.4338,-3.4383,-3.442,-3.4311,-3.4741,-3.5652,-3.648,-3.7304,-3.8103,-3.8971,-3.9327,-3.9327,-3.9327,-3.9197,-3.8971,-3.882,-3.873,-3.8676,-3.8515,-3.8546,-3.8676,0.0,0.0,0.0,0.0,0.0,0.0,-2.0566,-2.0566,-2.0566,-2.0566,-2.0566,-2.0566,-2.0566,-2.0566,-1.9678,-1.7496,-1.831,0.0,0.0,0.0,0.0,0.0,0.0,0.0,0.0,0.0,-1.4173,-1.4088,-1.4173,-1.465,-1.5696,-1.5696,-1.6273,-1.7334,0.0,0.0,0.0,0.0,0.0,0.0,0.0,0.0,0.0,0.0,0.0,0.0,0.0,0.0,0.0,0.0,0.0,0.0,0.0,0.0,0.0,0.0,-2.8729,-2.9697,-2.9168,-2.938,-2.9683,-2.9154,-2.8609,-2.8061,-2.7391,-2.7847,-2.8255,-2.7545,-2.8466,-2.963,-3.0394,-3.0523,-3.0523,-3.0523,-3.0523,-3.0523,-3.0523,-3.1013,-3.1435,-3.1628,-3.2122,-3.2504,-3.261,-3.3283,-3.3633,-3.3633,-3.2704,-3.2409,-3.2976,-3.2152,-3.19,-3.25,-3.3245,-3.346,-3.3214,-3.3478,-3.3687,-3.3788,-3.339,-3.3855,-3.5055,-3.5899,-3.6754,-3.7562,-3.834,-3.8707,-3.8707,-3.8707,-3.8707,-3.8658,-3.8132,-3.8234,-3.8627,-3.8099,-3.8249,-3.8627,0.0,0.0,0.0,0.0,0.0,0.0,0.0,-2.0566,-2.0566,-2.0566,-2.0566,-2.0566,-2.0566,-2.0566,-1.9678,-1.7496,-1.7658,0.0,0.0,0.0,0.0,0.0,0.0,0.0,0.0,0.0,-1.4088,-1.4088,-1.4088,-1.425,-1.4573,-1.4573,-1.5137,-1.6191,-1.6191,-1.6846,0.0,0.0,0.0,0.0,0.0,0.0,0.0,0.0,0.0,0.0,0.0,0.0,0.0,0.0,0.0,0.0,0.0,0.0,0.0,0.0,0.0,0.0,-2.7816,-2.7815,-2.7755,-2.7632,-2.7257,-2.6937,-2.6685,-2.6484,-2.6292,-2.6094,-2.6357,-2.6715,-2.6957,-2.7358,-2.7634,-2.7634,-2.7989,-2.8253,-2.8253,-2.9123,-2.9805,-2.9879,-3.0819,-3.1451,-3.1512,-3.2253,-3.2692,-3.2692,-3.2059,-3.1769,-3.1955,-3.0762,-3.0842,-3.2451,-3.2741,-3.2805,-3.2713,-3.2805,-3.2849,-3.2903,-3.2777,-3.3455,-3.4855,-3.5157,-3.6018,-3.7309,-3.756,-3.7667,-3.7667,-3.7667,-3.7667,-3.7667,-3.747,-3.7524,-3.7632,-3.747,-3.7524,-3.7632,0.0,0.0,0.0,0.0,0.0,0.0,0.0,-2.0566,-2.0566,-2.0566,-2.0566,-2.0566,-2.0566,-2.0245,-1.9274,-1.7496,-1.6927,0.0,0.0,0.0,0.0,0.0,0.0,0.0,-1.4088,-1.4088,-1.4088,-1.4088,-1.4088,-1.4088,-1.4088,-1.4088,-1.4496,-1.5137,-1.5137,-1.5711,0.0,0.0,0.0,0.0,0.0,0.0,-2.0634,0.0,0.0,0.0,0.0,0.0,0.0,0.0,0.0,0.0,0.0,0.0,0.0,0.0,0.0,0.0,0.0,-2.6784,-2.6455,-2.6388,-2.6104,-2.5775,-2.5547,0.0,0.0,0.0,-2.5231,-2.5398,-2.5398,-2.5727,-2.5941,-2.5941,-2.6256,-2.6599,-2.6794,-2.749,-2.8057,-2.8289,-2.8929,-2.943,-2.9798,-3.0586,-3.1038,-3.1038,-3.0316,-3.0094,-3.0619,-2.9389,-2.9484,-3.1261,-3.1685,-3.1881,-3.1881,-3.2109,-3.2298,-3.2484,-3.2615,-3.3424,-3.4801,-3.5102,-3.5951,-3.719,-3.719,-3.719,0.0,-3.719,-3.719,-3.7173,-3.6999,-3.702,-3.719,-3.6981,-3.7038,-3.7173,0.0,0.0,0.0,0.0,0.0,0.0,0.0,-2.0566,-2.0566,-2.0566,-2.0566,-2.0566,-2.0566,-1.9599,-1.8559,-1.7415,0.0,0.0,0.0,0.0,0.0,0.0,0.0,0.0,-1.4088,-1.4088,-1.4088,-1.4088,-1.4088,-1.4088,-1.4088,-1.4088,-1.4088,-1.4088,-1.4088,-1.4734,0.0,0.0,0.0,0.0,0.0,0.0,0.0,0.0,0.0,0.0,0.0,0.0,0.0,0.0,0.0,0.0,0.0,0.0,0.0,0.0,0.0,0.0,0.0,-2.5968,-2.5541,-2.5419,-2.5,-2.4464,-2.3916,0.0,0.0,0.0,0.0,0.0,-2.5036,-2.5106,-2.5106,-2.5036,-2.5036,-2.524,-2.5782,-2.5887,-2.6131,-2.6647,-2.6466,-2.667,-2.7569,-2.8379,-2.8771,-2.873,-2.7795,-2.7723,-2.8956,-2.7877,-2.7807,-2.9057,-3.0112,-3.0723,-3.0802,-3.135,-3.1861,-3.2335,-3.2696,-3.3534,-3.4728,-3.5486,-3.6262,-3.7097,-3.7097,-3.7097,-3.7097,-3.7097,-3.7097,-3.7038,-3.6539,-3.6643,-3.7038,-3.6539,-3.6643,-3.702,0.0,0.0,0.0,0.0,0.0,0.0,0.0,0.0,0.0,0.0,-2.0566,-2.0566,-2.0566,-1.9599,-1.8559,0.0,0.0,0.0,0.0,0.0,0.0,0.0,0.0,0.0,-1.4088,-1.4088,-1.4088,-1.4088,-1.4088,-1.4088,-1.4088,-1.4088,-1.4088,-1.4088,-1.4088,-1.4734,0.0,0.0,0.0,0.0,0.0,0.0,0.0,0.0,0.0,0.0,-2.0566,-2.0566,0.0,0.0,0.0,0.0,0.0,0.0,0.0,0.0,-2.2328,0.0,-2.3879,0.0,-2.3424,-2.3408,-2.2972,-2.2467,0.0,0.0,0.0,0.0,0.0,0.0,0.0,-2.225,-2.2506,-2.1868,-2.1732,-2.1847,-2.2291,-2.3046,-2.36,-2.3866,-2.405,-2.4202,-2.4103,-2.5827,-2.6773,-2.6309,-2.6822,-2.7162,-2.7074,-2.6313,-2.5997,-2.6357,-2.7534,-2.87,-2.974,-2.9886,-3.0277,-3.0888,-3.149,-3.2469,-3.3839,-3.4508,-3.5249,-3.5968,-3.5968,-3.5968,-3.5968,-3.5968,-3.5968,-3.5968,-3.5854,-3.5854,-3.5968,-3.581,-3.5854,-3.5968,0.0,0.0,0.0,0.0,0.0,0.0,0.0,0.0,0.0,0.0,0.0,-2.0566,-2.0566,-1.9195,0.0,0.0,0.0,0.0,0.0,0.0,0.0,0.0,0.0,-1.4088,-1.4088,-1.4088,-1.4088,-1.4088,-1.4088,-1.4088,-1.4088,-1.4088,-1.4088,-1.4088,-1.4088,-1.4412,-1.4977,-1.4977,0.0,0.0,-1.6601,0.0,0.0,0.0,0.0,0.0,-2.0401,-2.0566,0.0,-2.0566,-2.0566,-2.0566,0.0,0.0,0.0,0.0,-2.1375,-2.1451,-2.2048,-2.2296,-2.2415,-2.2628,-2.2444,-2.2065,-2.1341,0.0,0.0,0.0,0.0,0.0,0.0,-2.0736,-2.0792,-2.0624,-2.0094,-1.9944,-2.0698,-2.0983,-2.1553,-2.2764,-2.2266,-2.2261,-2.3061,-2.4259,-2.4811,-2.4285,-2.4607,-2.4959,-2.5203,-2.4633,-2.4627,-2.5398,-2.6321,-2.755,-2.8916,-2.9531,-3.0192,-3.0895,-3.1593,-3.2284,-3.3048,-3.3773,-3.4325,-3.4704,-3.4704,-3.4704,-3.4704,-3.4704,-3.4704,-3.4704,-3.4704,-3.4704,-3.4704,-3.4704,-3.4704,-3.4704,0.0,0.0,0.0,0.0,0.0,0.0,0.0,0.0,0.0,0.0,0.0,0.0,0.0,0.0,0.0,0.0,0.0,0.0,0.0,0.0,0.0,0.0,-1.4088,-1.4088,-1.4088,-1.4088,-1.4088,-1.4088,-1.4088,-1.4088,-1.4088,-1.4088,-1.4088,-1.4088,-1.4088,-1.4088,-1.4088,-1.4088,-1.4657,-1.5455,-1.5455,0.0,0.0,0.0,0.0,0.0,0.0,0.0,0.0,-2.0489,-2.0479,-2.0401,-2.0566,0.0,0.0,0.0,0.0,0.0,-2.0323,-2.0876,-2.1552,-2.2215,-2.2396,-2.2144,-2.1101,0.0,0.0,0.0,0.0,0.0,0.0,-1.9561,-1.9297,-1.979,-1.8904,-1.861,-1.9716,-1.9321,-1.9727,-2.1696,-2.0535,-2.0292,-2.2189,-2.275,-2.2721,-2.2242,-2.2032,-2.2292,-2.3281,-2.2886,-2.3335,-2.4946,-2.5548,-2.6609,-2.8135,-2.9296,-3.0284,-3.1105,-3.1839,-3.2304,-3.2549,-3.3275,-3.3582,-3.3582,-3.3582,-3.3582,-3.3582,-3.3582,-3.3582,-3.3582,-3.3582,-3.3582,-3.3582,-3.3582,-3.3582,-3.3582,0.0,0.0,0.0,0.0,0.0,0.0,0.0,0.0,0.0,0.0,0.0,0.0,0.0,0.0,0.0,0.0,0.0,0.0,0.0,0.0,0.0,-1.4088,-1.4088,-1.4088,-1.4088,-1.4088,-1.4088,-1.4088,-1.4088,-1.4088,-1.4088,-1.4088,-1.4088,-1.4088,-1.4088,-1.4088,-1.4088,-1.4088,-1.4166,-1.4334,-1.4334,0.0,0.0,0.0,0.0,0.0,0.0,0.0,0.0,-2.0001,-2.0001,-1.9362,-2.0323,0.0,0.0,0.0,0.0,0.0,-1.9283,-1.886,-1.8848,-2.0537,-2.0911,-2.0681,-1.9803,-1.9603,0.0,0.0,0.0,0.0,0.0,-1.7195,-1.6778,-1.6401,-1.6516,-1.675,-1.7227,-1.749,-1.7601,-1.7631,-1.7672,-1.7638,-1.7334,-1.9155,-2.0012,-1.9203,-2.0622,-2.1339,-2.1099,-2.0996,-2.1654,-2.3079,-2.3803,-2.5091,-2.7112,-2.7412,-2.8226,-2.9607,-3.0283,-3.132,-3.2594,-3.3292,-3.3582,-3.3582,-3.3582,-3.3582,-3.3582,-3.3582,-3.3582,-3.3582,-3.3582,-3.3582,-3.3582,-3.3582,-3.3582,-3.3582,0.0,0.0,0.0,0.0,0.0,0.0,0.0,0.0,0.0,0.0,0.0,0.0,0.0,0.0,0.0,0.0,0.0,0.0,0.0,0.0,-1.4088,-1.4088,-1.4088,-1.4088,-1.4088,-1.4088,-1.4088,-1.4088,-1.4088,-1.4088,-1.4088,-1.4088,-1.4088,-1.4088,-1.4088,-1.4088,-1.4088,-1.4088,-1.4088,-1.4088,0.0,0.0,0.0,0.0,0.0,0.0,0.0,0.0,0.0,0.0,-1.847,-1.8149,-1.863,0.0,0.0,0.0,0.0,0.0,-1.8069,-1.7784,-1.7713,-1.8594,-1.895,-1.8905,-1.81,-1.7921,0.0,0.0,0.0,0.0,-1.6323,-1.5299,-1.4336,-1.3863,-1.455,-1.5072,-1.4866,-1.4903,-1.5128,-1.5692,-1.5873,-1.6142,-1.6533,-1.7943,-1.8516,-1.7834,-1.9063,-1.9917,-1.9911,-2.0117,-2.0754,-2.1835,-2.3293,-2.4484,-2.5415,-2.6323,-2.7561,-2.9144,-2.9437,-2.9999,-3.0675,-3.1474,-3.1814,-3.183,-3.2266,-3.2461,-3.2461,-3.2461,-3.2461,-3.2461,-3.2461,-3.2461,-3.2461,-3.2461,-3.2461,-3.2461,0.0,0.0,0.0,0.0,0.0,0.0,0.0,0.0,0.0,0.0,0.0,0.0,0.0,0.0,0.0,0.0,0.0,0.0,0.0,-1.4088,-1.4088,-1.4088,-1.4088,-1.4088,-1.4088,-1.4088,-1.4088,-1.4088,-1.4088,-1.4088,-1.4088,-1.4088,-1.4088,-1.4088,-1.4088,-1.4088,-1.4088,-1.4088,-1.4088,-1.4088,0.0,0.0,0.0,0.0,0.0,0.0,0.0,0.0,0.0,0.0,0.0,0.0,0.0,0.0,0.0,-1.7342,-1.709,-1.6927,-1.6927,-1.6828,-1.6605,-1.644,0.0,-1.7392,-1.6826,-1.6455,-1.6004,0.0,0.0,-1.4584,-1.4591,-1.3256,-1.2061,-1.1824,-1.2575,-1.3087,-1.2682,-1.2419,-1.2632,-1.378,-1.3966,-1.4465,-1.5475,-1.6421,-1.6872,-1.6416,-1.725,-1.8072,-1.8795,-1.9099,-1.9848,-2.1169,-2.2753,-2.3712,-2.405,-2.5235,-2.6786,-2.8684,-2.8684,-2.8812,-2.9002,-2.969,-3.0011,-3.0011,-3.0644,-3.0896,-3.0896,-3.0896,-3.0896,-3.0896,-3.1161,-3.1351,-3.1482,-3.1482,-3.1482,-3.1482,0.0,0.0,0.0,0.0,0.0,0.0,0.0,0.0,0.0,0.0,0.0,0.0,0.0,0.0,0.0,0.0,0.0,0.0,0.0,-1.4088,-1.4088,-1.4088,-1.4088,-1.4088,-1.4088,-1.4088,-1.4088,-1.4088,-1.4088,-1.4088,-1.4088,-1.4088,-1.4088,-1.4088,-1.4088,-1.4088,-1.4088,-1.4088,-1.4088,-1.4088,-1.4088,0.0,0.0,0.0,0.0,0.0,0.0,0.0,0.0,0.0,0.0,0.0,0.0,0.0,-1.7342,-1.7342,-1.6601,-1.5779,-1.5779,-1.5268,-1.4606,-1.3966,-1.5423,-1.6917,-1.6702,-1.5607,0.0,-1.4436,0.0,-1.1532,-1.1702,-1.0867,-1.011,-1.006,-1.0115,-1.0335,-1.0569,-1.05,-1.0444,-1.0536,-1.1335,-1.1805,-1.1654,-1.3369,-1.4283,-1.395,-1.4848,-1.5979,-1.726,-1.7378,-1.8586,-2.1302,-2.1543,-2.2215,-2.3543,-2.3649,-2.5063,-2.7802,-2.7802,-2.8247,-2.9002,-2.9066,-2.9066,-2.9129,-2.9129,-2.9192,-2.9192,-2.9192,-2.9192,-2.9254,-3.0072,-3.0837,-3.1482,-3.1482,-3.1482,-3.1482,0.0,0.0,0.0,0.0,0.0,0.0,0.0,0.0,0.0,0.0,0.0,0.0,0.0,0.0,0.0,0.0,0.0,0.0,0.0,-1.4088,-1.4088,-1.4088,-1.4088,-1.4088,-1.4088,-1.4088,-1.4088,-1.4088,-1.4088,-1.3737,-1.3027,-1.3737,-1.373,-1.3027,-1.3737,-1.4088,-1.4088,-1.4088,-1.4088,-1.4088,-1.4088,-1.4088,0.0,0.0,0.0,0.0,0.0,0.0,0.0,0.0,-1.5061,-1.4817,0.0,0.0,-1.5311,-1.5311,-1.4977,-1.4734,-1.4734,-1.3959,-1.3095,-1.2729,-1.2625,0.0,0.0,-1.3299,-1.2593,-1.1774,-1.1075,-1.0336,-0.9548,-0.9912,-1.006,-0.9262,-0.916,-0.9187,-0.9349,-0.9183,-0.9055,-0.9055,-0.9912,-1.0667,-1.1128,-1.2231,-1.3191,-1.368,-1.4593,-1.5757,-1.7162,-1.7488,-1.8544,-2.0396,-2.1342,-2.2009,-2.2553,-2.322,-2.4013,-2.5063,-2.573,-2.6514,-2.7484,-2.7986,-2.8182,-2.8247,-2.8748,-2.9002,-2.9002,-2.9002,-2.9002,-2.9002,-2.938,-2.969,-2.995,-2.995,-2.995,-2.995,0.0,0.0,0.0,0.0,0.0,0.0,0.0,0.0,0.0,0.0,0.0,0.0,0.0,0.0,0.0,0.0,0.0,0.0,-1.4088,-1.4088,-1.4088,-1.4088,-1.4088,-1.4088,-1.4088,-1.4088,-1.4088,-1.4088,-1.4088,-1.347,-1.2328,-1.3555,-1.347,-1.2328,-1.3555,-1.4088,-1.4088,-1.4088,-1.4088,-1.4088,-1.4088,-1.4088,0.0,0.0,0.0,0.0,0.0,0.0,0.0,0.0,0.0,0.0,0.0,0.0,0.0,0.0,-1.3887,-1.3611,-1.3611,-1.2747,-1.169,-1.1618,0.0,0.0,-1.0642,-1.072,-1.0496,-0.9742,-0.9308,-0.8826,-0.7947,-0.8624,-0.9077,-0.8219,-0.8106,-0.8082,-0.8026,-0.7865,-0.7753,-0.7753,-0.8514,-0.9369,-1.0065,-1.1103,-1.2024,-1.2705,-1.3723,-1.4937,-1.6374,-1.6721,-1.7774,-1.9554,-2.0582,-2.1201,-2.1517,-2.2264,-2.2713,-2.2999,-2.3745,-2.4779,-2.6025,-2.6595,-2.7002,-2.7351,-2.792,-2.8247,-2.8247,-2.8247,-2.8363,-2.862,-2.862,-2.8748,-2.9002,-2.9002,-2.9002,-2.9002,0.0,0.0,0.0,0.0,0.0,0.0,0.0,0.0,0.0,0.0,0.0,0.0,0.0,0.0,0.0,0.0,0.0,0.0,-1.4088,-1.4088,-1.4088,-1.4088,-1.4088,-1.4088,-1.4088,-1.4088,-1.4088,-1.4088,-1.4088,-1.347,-1.2328,-1.3555,-1.347,-1.2328,-1.3555,-1.4088,-1.4088,-1.4088,-1.4088,-1.4088,-1.4088,-1.4088,-1.4088,0.0,0.0,0.0,0.0,0.0,0.0,0.0,0.0,0.0,0.0,0.0,0.0,-1.4088,-1.3404,-1.2633,-1.2539,-1.1565,-1.0524,-1.0443,0.0,0.0,-0.8649,-0.8301,-0.8355,-0.8814,-0.7812,-0.6853,-0.6847,-0.6761,-0.6629,-0.6729,-0.6702,-0.6647,-0.6495,-0.6349,-0.6338,-0.6338,-0.7176,-0.7783,-0.7783,-0.9583,-1.0783,-1.0783,-1.17,-1.3002,-1.4687,-1.4802,-1.6116,-1.893,-1.8957,-1.952,-2.0566,-2.0566,-2.1088,-2.1952,-2.1952,-2.3073,-2.5016,-2.5016,-2.5511,-2.6465,-2.6465,-2.6465,-2.6533,-2.6533,-2.6973,-2.767,-2.767,-2.8247,-2.9002,-2.9002,-2.9002,-2.9002,0.0,0.0,0.0,0.0,0.0,0.0,0.0,0.0,0.0,0.0,0.0,0.0,0.0,0.0,0.0,0.0,0.0,0.0,-1.4088,-1.4088,-1.4088,-1.4088,-1.4088,-1.4088,-1.4088,-1.4088,-1.4088,-1.4088,-1.3294,-1.2248,-1.1123,-1.2248,-1.2248,-1.1214,-1.3209,-1.4088,-1.4088,-1.4088,-1.4088,-1.4088,-1.4088,-1.4088,-1.4088,0.0,0.0,0.0,0.0,0.0,0.0,0.0,0.0,0.0,0.0,0.0,-1.3913,-1.3118,-1.2643,-1.2232,-1.1283,-1.0287,-0.9338,-0.9056,0.0,0.0,0.0,-0.8005,0.0,0.0,-0.7149,-0.626,-0.4851,-0.5886,-0.686,-0.6696,-0.6736,-0.6685,-0.6613,-0.6455,-0.6274,-0.6274,-0.657,-0.7022,-0.7706,-0.8309,-0.9286,-1.0708,-1.1268,-1.2446,-1.4694,-1.502,-1.5975,-1.773,-1.8559,-1.9116,-1.9441,-2.0245,-2.0712,-2.1011,-2.1011,-2.2038,-2.3963,-2.3963,-2.448,-2.5441,-2.5441,-2.5873,-2.6533,-2.6533,-2.6658,-2.685,-2.685,-2.704,-2.7229,-2.7229,-2.7229,-2.7229,0.0,0.0,0.0,0.0,0.0,0.0,0.0,0.0,0.0,0.0,0.0,0.0,0.0,0.0,0.0,0.0,0.0,0.0,0.0,-1.4088,-1.4088,-1.4088,-1.4088,-1.4088,-1.4088,-1.4088,-1.4088,-1.4088,-1.2857,-1.1724,-1.0611,-1.1815,-1.1724,-1.0697,-1.3039,-1.4088,-1.4088,-1.4088,-1.4088,-1.4088,-1.4088,-1.4088,-1.4088,0.0,0.0,0.0,0.0,0.0,0.0,0.0,0.0,0.0,0.0,0.0,-1.3228,-1.2629,-1.1782,-1.0896,-1.0159,-0.9091,-0.8173,-0.8029,-0.7386,-0.68,-0.6867,-0.685,-0.6592,-0.5894,-0.6319,-0.6177,-0.4037,-0.3963,-0.4548,-0.5328,-0.551,-0.5434,-0.5308,-0.5375,-0.564,-0.6197,-0.6268,-0.6567,-0.7176,-0.7553,-0.8461,-1.0115,-1.0812,-1.2079,-1.4024,-1.4496,-1.5294,-1.6593,-1.7738,-1.8559,-1.9036,-2.0079,-2.0566,-2.0566,-2.0566,-2.1231,-2.2339,-2.2702,-2.3672,-2.5004,-2.5441,-2.5734,-2.5955,-2.6314,-2.6533,-2.6533,-2.6533,-2.6533,-2.6533,-2.6533,-2.6533,-2.6533,0.0,0.0,0.0,0.0,0.0,0.0,0.0,0.0,0.0,0.0,0.0,0.0,0.0,0.0,0.0,0.0,0.0,0.0,0.0,-1.4088,-1.4088,-1.4088,-1.4088,-1.4088,-1.4088,-1.4088,-1.4088,-1.4088,-1.2766,-1.1643,-1.0783,-1.1724,-1.1638,-1.0869,-1.3124,-1.4088,-1.4088,-1.4088,-1.4088,-1.4088,-1.4088,-1.4088,-1.4088,-1.4088,0.0,0.0,0.0,0.0,0.0,0.0,0.0,0.0,-1.3997,-1.3203,-1.2289,-1.2266,-1.0751,-0.91,-0.9054,-0.8083,-0.7042,-0.7057,-0.691,-0.6595,-0.5919,-0.4119,-0.2765,-0.3213,-0.4935,-0.576,-0.3664,-0.1493,-0.0688,-0.2944,-0.3289,-0.3132,-0.2821,-0.3357,-0.4453,-0.6119,-0.6271,-0.6264,-0.6338,-0.7099,-0.8089,-0.9074,-1.0374,-1.1648,-1.2949,-1.3433,-1.42,-1.553,-1.6601,-1.7658,-1.8709,-1.9844,-2.0479,-2.0479,-2.0557,-2.0566,-2.0644,-2.1441,-2.2925,-2.4779,-2.5804,-2.5721,-2.4933,-2.5943,-2.6383,-2.6383,-2.6452,-2.6533,-2.6533,-2.6533,-2.6533,-2.6533,0.0,0.0,0.0,0.0,0.0,0.0,0.0,0.0,0.0,0.0,0.0,0.0,0.0,0.0,0.0,0.0,0.0,0.0,0.0,-1.4088,-1.4088,-1.4088,-1.4088,-1.4088,-1.4088,-1.4088,-1.4088,-1.4088,-1.1992,-1.1295,-1.1895,-1.1295,-1.1295,-1.198,-1.347,-1.4088,-1.4088,-1.4088,-1.4088,-1.4088,-1.4088,-1.4088,-1.4088,-1.4088,-1.4088,0.0,0.0,0.0,0.0,0.0,0.0,0.0,-1.3027,-1.2498,-1.1992,-1.0241,-0.9602,-0.9144,-0.7749,-0.7217,-0.6578,-0.4513,-0.5499,-0.5092,0.2325,0.4397,0.3765,-0.0,-0.1167,-0.1347,-0.0897,-0.0353,-0.0173,-0.0675,-0.0742,-0.0725,-0.0708,-0.0783,-0.2268,-0.5892,-0.6281,-0.6271,-0.6264,-0.649,-0.7022,-0.8008,-0.9508,-1.0878,-1.1988,-1.3283,-1.4099,-1.4412,-1.5462,-1.6191,-1.6437,-1.8381,-1.9362,-1.9362,-2.0167,-2.0566,-2.0644,-2.0789,-2.1527,-2.2702,-2.3734,-2.4036,-2.3891,-2.4933,-2.53,-2.537,-2.6164,-2.6533,-2.6533,-2.6533,-2.6533,-2.6596,0.0,0.0,0.0,0.0,0.0,0.0,0.0,0.0,0.0,0.0,0.0,0.0,0.0,0.0,0.0,0.0,0.0,0.0,0.0,0.0,-1.4088,-1.4088,-1.4088,-1.4088,-1.4088,-1.4088,-1.4088,-1.4088,-1.1735,-1.0864,-1.1466,-1.0869,-1.0956,-1.1552,-1.33,-1.4088,-1.4088,-1.4088,-1.4088,-1.4088,-1.4088,-1.4088,-1.4088,-1.4088,-1.4088,-1.4088,-1.4088,0.0,0.0,0.0,0.0,0.0,0.0,0.0,-1.1149,-0.9513,-0.8718,-0.8151,-0.7344,-0.7101,-0.5649,0.0264,0.0709,0.0715,0.4572,0.6296,0.6391,0.3946,0.1613,0.0,0.0,0.0,0.0,0.0,0.0,0.0,0.0,0.0,-0.0783,-0.3052,-0.5093,-0.6278,-0.6271,-0.6264,-0.6718,-0.7706,-0.8754,-1.0034,-1.1582,-1.2652,-1.347,-1.4088,-1.5137,-1.5696,-1.5696,-1.7334,-1.823,-1.823,-1.9274,-2.0079,-2.0644,-2.1088,-2.1298,-2.1451,-2.285,-2.322,-2.285,-2.3891,-2.4264,-2.4337,-2.485,-2.5063,-2.5134,-2.5581,-2.5804,-2.5959,0.0,0.0,0.0,0.0,0.0,0.0,0.0,0.0,0.0,0.0,0.0,0.0,0.0,0.0,0.0,0.0,0.0,0.0,0.0,0.0,0.0,-1.4088,-1.4088,-1.4088,-1.4088,-1.4088,-1.3997,-1.3822,-1.1649,-1.0611,-1.0611,-1.0611,-1.0697,-1.0956,-1.3124,-1.4088,-1.4088,-1.4088,-1.4088,-1.4088,-1.4088,-1.4088,-1.4088,-1.4088,-1.4088,-1.4088,-1.4088,-1.4088,-1.4088,-1.4088,0.0,0.0,0.0,0.0,-1.0125,-0.9059,-0.7952,-0.7041,-0.6809,-0.5714,-0.279,0.5097,0.7131,0.6576,0.465,0.573,0.7098,0.7098,0.3666,0.0626,0.0628,0.0608,0.0591,0.0505,0.0244,0.0,0.0,0.0,0.0,0.0,-0.3049,-0.5485,-0.6197,-0.6271,-0.6655,-0.7521,-0.8053,-0.9232,-1.107,-1.1908,-1.2766,-1.3737,-1.4887,-1.5462,-1.5462,-1.6519,-1.7009,-1.7009,-1.8149,-1.9274,-2.0323,-2.1125,-2.1135,-2.0722,-2.2264,-2.2553,-2.1811,-2.285,-2.322,-2.3294,-2.3441,-2.3514,-2.3588,-2.4409,-2.4707,-2.4945,0.0,0.0,0.0,0.0,0.0,0.0,0.0,0.0,0.0,0.0,0.0,0.0,0.0,0.0,0.0,0.0,0.0,0.0,0.0,0.0,0.0,-1.4088,-1.4088,-1.4088,-1.4088,-1.4088,-1.3555,-1.2504,-1.1214,-1.0611,-1.0611,-1.0611,-1.1128,-1.2151,-1.347,-1.4088,-1.4088,-1.4088,-1.4088,-1.4088,-1.4088,-1.4088,-1.4088,-1.4088,-1.4088,-1.4088,-1.4088,-1.4088,-1.4088,-1.4088,-1.3379,0.0,0.0,0.0,-0.8894,-0.7687,-0.7252,-0.6688,-0.4651,0.0434,0.5521,0.6824,0.7121,0.7012,0.6723,0.6903,0.7088,0.7088,0.5006,0.3124,0.3126,0.3155,0.3001,0.2773,0.1148,0.0,0.0,0.0,0.0,0.0,-0.047,-0.2267,-0.596,-0.6278,-0.64,-0.6672,-0.772,-0.8639,-0.9061,-1.1149,-1.2413,-1.2504,-1.3717,-1.4328,-1.4328,-1.5379,-1.5944,-1.5944,-1.7009,-1.8149,-1.9204,-1.9344,-1.9825,-2.0644,-2.0857,-2.0934,-2.0857,-2.1811,-2.2178,-2.2253,-2.3147,-2.3514,-2.3514,-2.3672,-2.3672,-2.3869,0.0,0.0,0.0,0.0,0.0,0.0,0.0,0.0,0.0,0.0,0.0,0.0,0.0,0.0,0.0,0.0,0.0,0.0,0.0,0.0,0.0,-1.4088,-1.4088,-1.4088,-1.4088,-1.4088,-1.347,-1.2328,-1.1128,-1.0269,0.0,-1.0265,-1.1209,-1.2328,-1.3555,-1.4088,-1.4088,-1.4088,-1.4088,-1.4088,-1.4088,-1.4182,-1.4309,-1.4148,-1.4188,-1.4309,-1.4142,-1.4088,-1.4088,-1.4088,-1.3294,-1.2072,-1.095,0.0,0.0,0.0,-0.7061,-0.6319,-0.2564,0.2666,0.7121,0.7084,0.7104,0.7088,0.7071,0.7068,0.7068,0.7068,0.6251,0.5536,0.5549,0.5553,0.5438,0.5147,0.4203,0.2736,0.0314,0.0,0.0,0.0,0.0,-0.1173,-0.4222,-0.5562,-0.6332,-0.6461,-0.7093,-0.7832,-0.8679,-1.0404,-1.1638,-1.2242,-1.347,-1.4088,-1.4088,-1.4573,-1.5137,-1.5703,-1.6191,-1.7009,-1.8069,-1.8718,-1.9599,-2.0566,-2.0566,-2.0566,-2.0644,-2.1078,-2.1231,-2.1221,-2.168,-2.1897,-2.1973,-2.2478,-2.2627,-2.295,0.0,0.0,0.0,0.0,0.0,0.0,0.0,0.0,0.0,0.0,0.0,0.0,0.0,0.0,0.0,0.0,0.0,0.0,0.0,0.0,0.0,0.0,-1.4088,-1.4088,-1.4088,-1.4088,-1.3385,-1.1901,-1.1042,-1.0183,-0.9323,-1.0183,-1.1386,-1.2766,-1.373,-1.4088,-1.4088,-1.4088,-1.4088,-1.4095,-1.4168,-1.4322,-1.4502,-1.4362,-1.4442,-1.4596,-1.4302,-1.4195,-1.4182,-1.4115,-1.3118,-1.1724,-1.0869,-0.9575,0.0,0.0,0.0,-0.5087,0.0167,0.3804,0.6215,0.6906,0.7031,0.7027,0.7048,0.7139,0.7139,0.7139,0.7139,0.7061,0.7084,0.7095,0.7063,0.682,0.6516,0.5052,0.1347,0.0315,0.0,0.0,0.0,-0.0863,-0.2994,-0.5137,-0.6489,-0.6576,-0.6695,-0.7238,-0.8243,-0.9751,-1.0956,-1.1809,-1.3294,-1.4088,-1.4088,-1.4088,-1.4489,-1.5296,-1.5296,-1.5869,-1.6927,-1.7738,-1.8789,-1.9756,-2.0323,-2.0566,-2.0566,-2.0566,-2.0566,-2.0566,-2.0566,-2.0566,-2.0712,-2.1375,-2.1814,-2.2252,0.0,0.0,0.0,0.0,0.0,0.0,0.0,0.0,0.0,0.0,0.0,0.0,-1.4088,-1.4088,-1.4088,-1.4088,-1.4088,-1.4088,-1.4088,-1.4088,-1.4088,-1.4088,-1.4088,0.0,-1.4088,-1.4088,-1.2954,-1.0697,-1.0611,0.0,-1.0524,-1.0611,-1.1826,-1.3997,-1.4088,-1.4088,-1.4088,-1.4088,-1.4088,-1.4115,-1.4389,-1.4502,-1.4549,-1.4816,-1.493,-1.4903,-1.4603,-1.4496,-1.4456,-1.4182,-1.2601,-1.0697,-1.0611,-0.9052,-0.7112,0.0,0.0,0.0,0.4162,0.4651,0.386,0.619,0.6863,0.6976,0.7109,0.7139,0.7139,0.7139,0.7139,0.7139,0.7143,0.7136,0.7085,0.6943,0.6736,0.5838,0.3324,0.1271,0.0,0.0,0.0,-0.0949,-0.3306,-0.5436,-0.6706,-0.6885,-0.6912,-0.698,-0.7207,-0.9392,-1.0611,-1.0697,-1.2869,-1.4088,-1.4088,-1.4088,-1.4173,-1.4166,-1.4166,-1.4734,-1.5779,-1.5861,-1.6437,-1.7577,-1.9678,-2.0566,-2.0566,-2.0566,-2.0566,-2.0566,-2.0566,-2.0566,-2.0644,-2.0634,-2.1173,-2.1967,0.0,0.0,0.0,0.0,0.0,0.0,0.0,0.0,0.0,0.0,0.0,0.0,0.0,-1.4088,-1.4088,-1.4088,-1.3915,-1.3721,-1.3534,-1.3527,-1.3527,-1.3527,-1.3527,-1.3527,-1.3527,-1.3527,-1.277,-1.1178,-1.1333,-1.1074,-1.0319,-1.131,-1.2157,-1.2942,-1.3737,-1.4088,-1.4088,-1.4088,-1.4088,-1.4115,-1.4402,-1.4636,-1.4796,-1.471,-1.491,-1.5177,-1.4689,0.0,-1.4502,-1.4402,-1.2659,-1.0585,-1.0524,-0.8871,-0.6959,-0.6822,-0.4188,-0.0162,0.4897,0.5711,0.5403,0.6418,0.6783,0.6943,0.6993,0.7075,0.7139,0.7139,0.7139,0.7139,0.7139,0.7139,0.7007,0.6873,0.6915,0.6534,0.5363,0.2165,0.0,0.0,0.0,-0.0329,-0.124,-0.4731,-0.692,-0.684,-0.6847,-0.699,-0.7132,-0.8623,-0.9492,-0.9492,-1.1735,-1.3294,-1.4088,-1.4088,-1.4088,-1.4088,-1.4088,-1.4334,-1.4734,-1.5379,-1.5944,-1.6355,-1.7811,-1.8868,-1.9599,-1.9599,-2.0001,-2.0566,-2.0566,-2.0566,-2.0635,-2.1201,-2.1611,-2.206,0.0,0.0,0.0,0.0,0.0,0.0,0.0,0.0,0.0,-1.4573,0.0,0.0,0.0,0.0,-1.4061,-1.4282,-1.4311,-1.4186,-1.3673,-1.3666,-1.3516,-1.3206,-1.3213,-1.3213,-1.3213,-1.3213,-1.2632,-1.1484,-1.1653,-1.1407,-1.0672,-1.1572,-1.229,-1.2806,-1.3587,-1.3995,0.0,0.0,0.0,-1.4122,-1.4509,-1.473,-1.4816,-1.4816,-1.4997,-1.5204,-1.481,0.0,-1.4429,-1.4067,-1.2464,-1.0484,-1.001,-0.8434,-0.6742,-0.6739,-0.4036,-0.024,0.3216,0.5234,0.6318,0.6453,0.6632,0.6803,0.6905,0.7,0.7082,0.7129,0.7139,0.7139,0.7139,0.7139,0.7041,0.7004,0.644,0.5818,0.5416,0.2267,0.0,0.0,0.0,0.0,0.0,-0.3601,-0.623,-0.684,-0.692,-0.7041,-0.7136,-0.8281,-0.9235,-1.0009,-1.1466,-1.2851,-1.4088,-1.4088,-1.4088,-1.4088,-1.4088,-1.4088,-1.4088,-1.481,-1.5137,-1.522,-1.5959,-1.709,-1.847,-1.8877,-1.9441,-2.0079,-2.0479,-2.0566,-2.0674,-2.1562,-2.207,-2.2519,0.0,0.0,0.0,0.0,0.0,0.0,0.0,0.0,-1.4573,-1.5538,0.0,0.0,0.0,0.0,0.0,-1.4506,-1.538,-1.5526,-1.4617,-1.4539,-1.4165,-1.318,-1.3186,-1.3186,-1.3186,-1.3186,-1.2606,-1.1541,-1.1552,-1.1552,-1.1552,-1.1564,-1.2283,-1.3627,-1.3627,-1.3794,-1.4062,0.0,-1.4088,-1.4135,-1.473,-1.4783,-1.4583,-1.5164,-1.5211,0.0,-1.495,-1.4763,-1.4328,-1.3161,-1.1832,-1.0378,-0.907,-0.7687,-0.6551,-0.6673,-0.4949,-0.2655,0.0,0.0,0.0,0.6301,0.6401,0.6552,0.6848,0.6922,0.6966,0.7105,0.7136,0.7139,0.7139,0.7139,0.719,0.7353,0.5343,0.369,0.3493,0.1455,0.0,0.0,0.0,0.0,0.0,-0.2147,-0.4565,-0.6917,-0.7074,-0.7146,-0.7146,-0.8193,-0.9836,-1.2151,-1.2242,-1.2766,-1.3997,-1.4082,-1.4088,-1.4088,-1.4088,-1.4088,-1.4088,-1.4088,-1.4088,-1.4088,-1.4088,-1.5311,-1.7253,-1.839,-1.8957,-1.9036,-2.0079,-2.0489,-2.0674,-2.1582,-2.2441,-2.3291,0.0,0.0,0.0,0.0,0.0,-1.6116,-1.5379,-1.5951,-1.5959,0.0,0.0,0.0,-1.5538,-1.538,-1.5026,-1.4403,-1.4517,-1.4494,-1.3955,-1.328,-1.2845,-1.2552,-1.2552,-1.2552,-1.2552,-1.2552,-1.2395,-1.208,-1.2293,-1.2473,-1.2473,-1.2615,-1.2922,-1.3327,-1.3327,-1.338,-1.348,-1.3908,0.0,-1.4135,-1.473,-1.4783,-1.4563,0.0,0.0,0.0,0.0,-1.4456,-1.4058,-1.31,-1.2122,-1.0909,-0.8824,-0.7882,-0.7324,-0.6574,-0.48,-0.2653,-0.0546,0.0,0.0,0.0,0.0,0.0,0.6583,0.677,0.6939,0.698,0.7068,0.7139,0.7139,0.7139,0.7141,0.7406,0.6875,0.5191,0.153,0.0379,0.0,0.0,0.0,0.0,0.0,-0.2336,-0.4862,-0.7326,-0.7387,-0.7309,-0.7309,-0.7464,-0.8277,-0.9753,-0.9836,-1.0783,-1.2766,-1.2766,-1.3203,-1.4088,-1.4088,-1.4088,-1.4088,-1.4088,-1.4088,-1.4088,-1.4088,-1.4412,-1.5061,-1.6198,-1.7082,-1.7819,-1.8069,-1.8709,-1.9608,-2.1117,-2.232,-2.3379,0.0,0.0,0.0,0.0,0.0,-1.6927,-1.5861,-1.6157,-1.6145,0.0,0.0,0.0,-1.4751,-1.6005,-1.6366,-1.5275,-1.5549,-1.5538,-1.4958,-1.4371,-1.3939,-1.352,-1.352,-1.3302,-1.2879,-1.2879,-1.2659,-1.2305,-1.2478,-1.2559,-1.2565,-1.2746,-1.2899,-1.3019,-1.3019,-1.3093,-1.3233,0.0,0.0,0.0,-1.4362,0.0,0.0,-1.4623,-1.4703,0.0,0.0,0.0,-1.3952,-1.3076,-1.1945,-1.0487,-0.8751,-0.7985,-0.7633,-0.6581,-0.5404,-0.375,-0.078,0.0,0.0625,0.3049,0.0,0.0,0.6394,0.6636,0.68,0.6927,0.7064,0.7075,0.7075,0.7125,0.7152,0.7295,0.7377,0.6441,0.3752,0.1375,0.0,0.0,0.0,0.0,0.0,-0.2405,-0.5086,-0.756,-0.7633,-0.7465,-0.7465,-0.7322,-0.7767,-0.8911,-0.8928,-0.9753,-1.1552,-1.2066,-1.2674,-1.3379,-1.3822,-1.4088,-1.4088,-1.4088,-1.4088,-1.4088,-1.4088,-1.4088,-1.4173,-1.4734,-1.5621,-1.6683,-1.7098,-1.7759,-1.8719,-2.0718,-2.1983,-2.3005,0.0,0.0,-1.9186,-1.914,-1.824,-1.7179,-1.6083,-1.5821,-1.5945,0.0,-1.4874,-1.3804,-1.4366,-1.6581,-1.7647,-1.6706,-1.7354,-1.7501,-1.6636,-1.6498,-1.607,-1.5234,-1.5234,-1.4807,-1.3882,-1.3745,-1.3317,-1.2445,-1.2378,-1.2305,-1.2305,-1.2305,-1.2445,-1.2775,-1.2775,-1.2852,-1.3106,0.0,0.0,-1.3048,-1.3629,-1.3708,0.0,0.0,-1.4137,-1.3946,-1.4289,-1.4282,-1.3899,-1.3139,-1.164,-0.9963,-0.8869,-0.8321,-0.7837,-0.6666,-0.6288,-0.5503,-0.1721,-0.0391,0.0,0.0,0.2813,0.0,0.6217,0.629,0.6295,0.6637,0.6725,0.6832,0.6832,0.7028,0.6969,0.6716,0.6964,0.734,0.7899,0.3334,0.0,0.0,0.0,-0.01,-0.0395,-0.2553,-0.5072,-0.7811,-0.7749,-0.7614,-0.76,-0.7472,-0.7843,-0.8919,-0.886,-0.9288,-1.0386,-1.1591,-1.218,-1.2328,-1.3555,-1.4088,-1.4088,-1.4088,-1.4088,-1.4088,-1.4088,-1.4088,-1.4088,-1.4088,-1.465,-1.5621,-1.6601,-1.7236,-1.7926,-2.0263,-2.14,-2.2095,0.0,0.0,-2.0139,-1.9783,-1.9573,-1.8907,-1.7515,-1.8013,-1.795,-1.6335,-1.618,-1.6259,-1.6157,-1.7263,-1.7647,-1.6706,-1.6784,-1.6784,-1.6627,-1.586,-1.5376,-1.5234,-1.5234,-1.5092,-1.4879,-1.4099,-1.36,-1.3455,-1.2659,-1.2305,-1.2305,-1.2305,-1.2331,-1.2385,-1.2385,-1.2425,0.0,0.0,0.0,-1.1462,-1.2161,-1.2419,-1.2318,-1.282,-1.282,-1.2772,-1.3796,-1.3981,-1.3619,-1.327,-1.2412,-1.1303,-0.9876,-0.9508,-0.903,-0.6947,-0.6277,-0.6109,-0.5277,-0.2579,0.0,0.0,0.0625,0.0,0.5562,0.4991,0.3781,0.3898,0.464,0.5213,0.5213,0.6236,0.6485,0.4558,0.5894,0.7327,0.7885,0.3334,0.0,0.0,0.0,-0.0807,-0.3019,-0.3707,-0.5094,-0.7806,-0.7862,-0.7719,-0.7604,-0.757,-0.7646,-0.7923,-0.7894,-0.8356,-0.9366,-1.0524,-1.1488,-1.2328,-1.3555,-1.4088,-1.4088,-1.4088,-1.4088,-1.4088,-1.4088,-1.4088,-1.4088,-1.4088,-1.425,-1.4412,-1.4657,-1.5416,-1.6644,-1.8029,-1.9358,-2.0559,0.0,-2.0212,-1.9863,-1.9639,-1.96,-1.9151,-1.7886,-1.7981,-1.7843,-1.6641,-1.7054,-1.7232,-1.6664,-1.7432,-1.7794,-1.7354,-1.7285,-1.7285,-1.7285,-1.6862,-1.6585,-1.6585,-1.6585,-1.6367,-1.5939,-1.5367,-1.4657,-1.3673,-1.3237,-1.2732,-1.2305,-1.2305,-1.2378,-1.2518,-1.2365,-1.2385,0.0,0.0,-1.1776,-1.1024,-1.2209,0.0,-1.1975,-1.3018,-1.33,-1.3294,-1.3906,-1.3988,-1.3841,-1.3694,-1.3127,0.0,-1.1289,-1.0354,-0.9419,0.0,-0.6817,-0.6374,-0.6315,-0.4774,0.0,-0.0547,0.0,0.0,0.0,0.3969,0.4059,0.1987,0.2044,0.3087,0.5471,0.6545,0.6328,0.3935,0.5558,0.6346,0.4319,0.1696,0.0,0.0,-0.2326,-0.4556,-0.5879,-0.4736,-0.5125,-0.7762,-0.7977,-0.7892,-0.7824,-0.7746,-0.7706,-0.7706,-0.7638,-0.7837,-0.8394,-0.9384,-1.0173,-1.068,-1.1791,-1.2687,-1.3203,-1.3203,-1.3555,-1.4088,-1.4088,-1.4088,-1.4088,-1.4088,-1.4088,-1.4088,-1.4088,-1.4685,-1.5746,-1.71,-1.831,-1.9541,0.0,0.0,-1.9466,-1.917,-1.916,-1.8841,-1.7862,-1.7496,-1.7286,-1.7215,-1.7716,-1.7841,-1.7042,-1.776,-1.8252,-1.8252,-1.8252,-1.8223,-1.8135,-1.8135,-1.8135,-1.8135,-1.8057,-1.7686,-1.6963,-1.6742,-1.586,-1.4235,-1.3882,-1.331,-1.2592,-1.2372,-1.2432,-1.2652,-1.2472,0.0,0.0,0.0,0.0,-1.0667,0.0,-1.1992,-1.1249,-1.2523,-1.2999,-1.314,-1.3626,-1.3737,-1.3815,-1.3937,-1.3687,-1.3154,-1.2195,-1.0858,0.0,0.0,0.0,-0.6481,0.0,0.0,0.0,0.0,-0.094,-0.0555,0.0,0.0,0.0,0.0709,0.0,0.1195,0.4986,0.6479,0.6455,0.4538,0.5102,0.4359,0.057,0.0,0.0,0.0,-0.383,-0.6903,-0.7889,-0.6027,-0.5708,-0.7836,-0.8018,-0.8014,-0.8038,-0.7923,-0.7855,-0.7855,-0.7743,-0.7672,-0.7641,-0.8702,-0.9133,-0.9152,-1.0143,-1.1084,-1.198,-1.2242,-1.2851,-1.3737,-1.3997,-1.4088,-1.4088,-1.4088,-1.4088,-1.4088,-1.4088,-1.4442,-1.5176,-1.6538,-1.7529,-1.8496,-2.0716,-2.0542,0.0,-1.8911,-1.8711,-1.8514,-1.8065,-1.79,-1.7871,-1.7871,-1.829,-1.8494,-1.8344,-1.8835,-1.9141,-1.9141,-1.9141,-1.8975,-1.8594,-1.8494,-1.8494,-1.8494,-1.8213,-1.8115,-1.8334,-1.7176,-1.6489,-1.628,-1.4522,-1.3673,-1.3528,-1.2659,-1.2318,-1.2365,-1.2592,0.0,0.0,0.0,-1.0723,0.0,-1.0165,-0.9516,0.0,-0.8878,-0.9151,-0.9587,-1.1736,-1.2498,-1.2638,-1.3437,-1.3647,-1.3264,-1.1818,-1.0745,-0.9848,-0.8264,0.0,0.0,0.0,0.0,0.0,-0.5721,-0.437,-0.2664,-0.0488,0.0,0.0605,0.0087,0.0,0.018,0.0719,0.0,0.0,0.6728,0.3405,0.0651,0.0093,0.0,0.0,0.0,-0.0495,-0.2813,-0.7563,-0.7733,-0.7651,-0.7935,-0.8034,-0.8021,-0.8035,-0.8024,-0.8014,-0.8014,-0.7997,-0.7926,-0.7787,-0.8909,-0.9299,-0.9152,-1.0206,-1.0803,-1.0869,-1.1815,-1.2413,-1.2589,-1.3646,-1.4088,-1.4088,-1.4088,-1.4088,-1.4088,-1.4088,-1.4442,-1.5087,-1.5467,-1.6136,-1.7041,-2.164,-2.0941,0.0,-1.9881,-1.9323,-1.8934,-1.8751,-1.8337,-1.8008,-1.8008,-1.8164,-1.8271,-1.8271,0.0,0.0,0.0,0.0,-1.8828,0.0,-1.8562,-1.8525,-1.8281,-1.8562,-1.862,-1.8271,-1.8183,-1.7658,-1.6636,-1.579,-1.5084,-1.4522,-1.4163,-1.3769,-1.3376,-1.3586,0.0,-1.1797,0.0,-1.0343,0.0,0.0,-0.8214,0.0,-0.8989,-0.9715,-0.9971,-1.0919,-1.1295,-1.1455,-1.2469,-1.2649,-1.2407,-1.2751,-1.1861,0.0,-0.9483,0.0,0.0,0.0,0.0,-0.7148,-0.645,-0.5747,-0.4968,-0.4296,-0.2013,0.0,0.0,0.0,0.0,0.0,0.0,0.0,0.0,0.1278,0.0,0.0,-0.2338,-0.3053,-0.0286,-0.1355,-0.3231,-0.5503,-0.7042,-0.7997,-0.8035,-0.7991,-0.7984,-0.8035,-0.8038,-0.8038,-0.8038,-0.8038,-0.8007,-0.7943,-0.8337,-0.8504,-0.8363,-0.8631,-0.9118,-0.9739,-1.0149,-1.0697,-1.1381,-1.251,-1.3027,-1.3118,-1.3822,-1.4088,-1.4088,-1.4088,-1.4442,-1.4977,-1.5104,-1.5812,-1.6727,-2.2847,0.0,0.0,0.0,-2.0074,-1.9562,-1.9365,-1.8977,-1.8529,-1.8076,-1.83,-1.8448,-1.8184,-1.8389,0.0,0.0,-1.9092,-1.9111,0.0,-1.8877,-1.873,-1.8545,-1.9049,-1.9091,-1.8754,-1.9111,-1.869,-1.7316,-1.6835,-1.628,-1.5587,-1.5305,-1.48,-1.4037,0.0,-1.3133,-1.1385,0.0,-0.9888,-0.8133,-0.7942,-0.7375,-0.685,-0.8836,-0.9611,-0.9657,-1.0005,-1.0096,-1.0341,-1.1736,-1.1892,-1.1891,-1.3391,-1.2625,-1.1174,0.0,0.0,0.0,-0.7688,-0.7642,-0.7853,-0.6921,-0.6537,-0.6458,-0.6881,-0.4384,-0.1793,-0.1153,-0.0448,0.0,0.0,0.0,-0.0449,-0.1707,0.0,-0.1734,-0.1078,-0.3961,-0.5073,-0.2251,-0.3111,-0.4191,-0.4844,-0.6784,-0.795,-0.7974,-0.7984,-0.8004,-0.8038,-0.8038,-0.8038,-0.8038,-0.8038,-0.8038,-0.8038,-0.7929,-0.7851,-0.7811,-0.7594,-0.7901,-0.8615,-0.8848,-0.9371,-1.0183,-1.1381,-1.198,-1.2413,-1.3294,-1.3822,-1.4088,-1.4088,-1.4442,-1.4977,-1.5057,-1.5772,-1.6714,-2.4394,-2.2967,0.0,0.0,0.0,-2.0268,-1.9431,-2.0009,-1.9879,-1.8202,-1.9087,0.0,0.0,0.0,0.0,0.0,0.0,-2.0322,-1.9902,0.0,-1.9443,-1.9834,-1.9471,-1.9651,-2.0469,-1.9693,-1.9299,-1.9233,-1.7453,-1.6567,-1.6567,-1.5658,-1.4673,-1.3702,-1.4022,-1.3016,-1.0973,-1.0248,-0.933,-0.8344,-0.7339,-0.7,-0.7105,-0.7066,-0.7104,-0.7404,-0.854,-0.8978,-0.9291,-1.1204,-1.1863,-1.2064,-1.2987,-1.2575,-1.1876,-1.1727,-1.1002,-1.0238,-0.9731,-0.8913,-0.809,-0.7829,-0.7144,-0.6519,-0.6609,-0.6756,-0.6189,-0.3911,-0.1607,0.0,0.0,0.0,-0.1527,-0.6132,-0.6866,0.0,0.0,-0.3575,-0.4484,-0.6598,-0.4938,-0.4555,-0.7032,-0.7746,-0.7907,-0.7811,-0.7938,-0.801,-0.8031,-0.8038,-0.8038,-0.8038,-0.8038,-0.8038,-0.8038,-0.8035,-0.7957,-0.7811,-0.7801,-0.7645,-0.7461,-0.8615,-0.9051,-0.8978,-1.0183,-1.1295,-1.2328,-1.2328,-1.3027,-1.4088,-1.4088,-1.4442,-1.4997,-1.5277,-1.5945,-1.6747,0.0,0.0,0.0,0.0,0.0,-2.1175,-2.0268,-2.0398,-2.026,0.0,-1.9613,0.0,0.0,-1.9326,-1.9609,0.0,0.0,-2.0078,-1.9922,-1.9521,0.0,-1.9492,-1.9944,-1.9849,-1.9324,-2.0402,-2.0139,-1.8462,-1.8432,-1.8085,-1.7501,-1.7226,-1.6228,-1.4681,-1.5032,-1.3244,0.0,0.0,0.0,0.0,0.0,-0.6956,-0.7004,-0.7051,-0.7099,-0.7139,-0.7577,-0.7753,-0.7918,-0.9411,-1.0319,-1.0961,-1.2218,-1.2656,-1.2631,-1.2137,-1.2101,-1.1918,-1.045,-1.0353,-1.0374,-0.9291,-0.8885,-0.8567,-0.7835,-0.7224,-0.6743,-0.6036,-0.5282,-0.4206,-0.2679,-0.2412,-0.295,-0.4478,-0.6109,-0.6834,0.0,-0.5911,-0.6177,-0.6989,-0.6479,-0.6483,-0.7283,-0.7648,-0.787,-0.7807,-0.7913,-0.7994,-0.8038,-0.8038,-0.8038,-0.8038,-0.8038,-0.8038,-0.8038,-0.8038,-0.8014,-0.796,-0.7862,-0.7709,-0.7519,-0.7869,-0.7908,-0.7753,-0.8973,-0.9666,-1.0183,-1.1638,-1.2504,-1.3027,-1.3822,-1.4563,-1.5264,-1.5357,-1.5952,-1.6774,-2.604,0.0,0.0,0.0,0.0,-2.2063,-2.1175,-2.1037,0.0,0.0,-1.9902,0.0,-1.9301,0.0,-1.9619,0.0,-2.0059,-2.0078,-1.9922,-1.9668,0.0,-1.9512,-2.0191,-2.0264,0.0,-2.0653,-2.0391,-1.8692,-1.8792,-1.8529,-1.8008,-1.8008,-1.701,-1.5242,-1.5402,-1.3334,-0.9715,-0.994,-0.8835,0.0,0.0,-0.7004,-0.7014,-0.7105,-0.7109,-0.7071,-0.7122,-0.7139,-0.7316,-0.8452,-0.9238,-1.0003,-1.1764,-1.2529,-1.2883,-1.2812,-1.3162,-1.3251,-1.1822,-1.1665,-1.16,-1.0147,-0.9656,-0.916,-0.8018,-0.7301,-0.6991,-0.7187,-0.7125,-0.6668,-0.5194,-0.4876,-0.4839,-0.4966,-0.6123,-0.7094,0.0,-0.7078,-0.7068,-0.7143,-0.7241,-0.7333,-0.7387,-0.756,-0.7706,-0.7804,-0.7909,-0.7991,-0.8038,-0.8038,-0.8038,-0.8038,-0.8038,-0.8038,-0.8038,-0.8038,-0.8038,-0.8038,-0.794,-0.779,-0.7597,-0.7499,-0.7339,-0.7139,-0.7929,-0.854,-0.8978,-1.0524,-1.1558,-1.2425,-1.331,-1.435,-1.5404,-1.5511,-1.6172,-1.7074,-2.6901,0.0,0.0,0.0,-2.3767,0.0,0.0,0.0,-2.1446,0.0,-1.9965,-1.9815,-1.9442,-1.9707,-1.9941,-1.9941,-2.0322,-2.0391,-1.9971,-1.9922,0.0,0.0,-2.0359,-2.074,-2.1125,0.0,0.0,0.0,-1.8672,-1.8008,-1.8008,-1.8008,-1.701,-1.5234,-1.5234,0.0,-0.9867,-0.9705,-0.8707,-0.7139,-0.7139,-0.7136,-0.7129,-0.7136,-0.7051,-0.6949,-0.7088,-0.7139,-0.7316,-0.8452,-0.889,-0.9323,-1.1466,-1.2237,-1.2504,-1.3737,-1.4088,-1.4021,-1.3741,-1.2909,-1.1834,-1.034,-0.9469,-0.8539,-0.7275,-0.7135,-0.7197,-0.735,-0.7282,-0.7188,-0.7363,-0.7289,-0.7155,-0.7373,-0.7268,-0.7078,-0.7143,-0.7139,-0.7139,-0.7139,-0.7146,-0.7207,-0.7346,-0.7394,-0.7522,-0.778,-0.7928,-0.8004,-0.8031,-0.8035,-0.8031,-0.8038,-0.8038,-0.8038,-0.8038,-0.8038,-0.8038,-0.8038,-0.8038,-0.7885,-0.76,-0.76,-0.7431,-0.7139,-0.7139,-0.7753,-0.8803,-0.889,-1.0178,-1.218,-1.2522,-1.3783,-1.5285,-1.5684,-1.6613,-1.7582,-2.8826,-2.7822,-2.707,0.0,-2.5162,-2.393,0.0,0.0,0.0,0.0,-2.1062,-2.0677,-2.0338,-2.0332,-2.04,-2.04,-2.0498,0.0,0.0,0.0,0.0,-2.0381,-2.0533,-2.0463,-2.0257,-2.0642,-2.0243,-1.8904,0.0,-1.8654,-1.8008,-1.8008,-1.7364,-1.621,-1.5508,-1.4059,-1.2007,-1.0342,-0.8707,-0.7139,-0.7139,-0.7078,-0.6993,-0.7099,-0.7051,-0.6949,-0.7088,-0.7139,-0.7139,-0.7489,-0.8189,-0.9148,-1.0611,-1.1638,-1.2504,-1.3737,-1.4088,-1.4068,-1.3995,-1.38,-1.3213,-1.1746,-1.1288,-1.0696,-0.8723,-0.8344,-0.8249,-0.7695,-0.7516,-0.7478,-0.7441,-0.7373,-0.7299,-0.7221,-0.7177,-0.7058,-0.7139,-0.7139,-0.7139,-0.7139,-0.7241,-0.7282,-0.7207,-0.7414,-0.758,-0.7648,-0.7873,-0.8004,-0.8031,-0.8048,-0.8041,-0.8035,-0.8038,-0.8038,-0.8038,-0.8038,-0.8038,-0.8038,-0.8038,-0.7885,-0.76,-0.76,-0.7431,-0.7139,-0.7139,-0.7316,-0.7665,-0.854,-0.9235,-0.9859,-1.0947,-1.1976,-1.333,-1.5902,-1.7141,-1.7582,-2.954,0.0,0.0,-2.7951,0.0,0.0,-2.472,-2.3815,0.0,-2.2557,-2.1889,0.0,-2.0878,-2.0671,-2.0566,-2.0566,-2.0566,0.0,-2.0293,0.0,0.0,-2.0283,-2.0507,-2.0456,-2.0195,-2.0524,0.0,-1.8926,-1.8953,-1.8642,-1.8008,-1.8008,-1.7501,-1.6567,0.0,-1.4271,-1.2531,-1.0156,-0.832,-0.7054,-0.7115,-0.7054,0.0,-0.7024,-0.6963,-0.6841,-0.6926,-0.7034,-0.7139,-0.7139,-0.7577,-0.8364,-1.0091,-1.1037,-1.1901,-1.3561,-1.4088,-1.4088,-1.4088,-1.4088,-1.3613,-1.1815,-1.1527,-1.105,-0.867,-0.831,-0.8236,-0.7767,-0.7641,-0.7611,-0.7655,-0.7502,-0.7319,-0.7166,-0.7139,-0.7139,-0.7139,-0.7139,-0.7139,-0.7139,-0.7217,-0.7238,-0.7149,-0.7329,-0.751,-0.76,-0.7787,-0.7873,-0.7845,-0.7848,-0.7879,-0.7855,-0.7925,-0.7959,-0.7955,-0.7955,-0.8048,-0.8038,-0.8038,-0.7885,-0.76,-0.76,-0.7431,-0.7139,-0.7139,-0.7139,-0.7139,-0.7841,-0.8496,-0.9135,-1.0769,-1.1793,-1.2669,-1.47,-1.594,-1.6605,-2.9717,0.0,0.0,0.0,0.0,0.0,0.0,-2.4616,0.0,-2.3454,0.0,-2.1734,-2.1376,-2.0989,-2.0712,-2.0644,-2.0566,-2.041,-2.0029,-2.0352,-2.0391,-2.0019,-2.0361,-2.0566,-2.0566,-2.0137,-1.9707,-1.9287,-1.8848,-1.8418,-1.8008,-1.8008,-1.7579,-1.6706,0.0,0.0,0.0,-0.9562,-0.7916,-0.6939,-0.7041,-0.701,-0.6902,-0.7001,-0.6827,-0.6446,-0.6715,-0.6875,-0.7082,-0.7082,-0.7095,-0.7457,-0.9616,-1.0499,-1.1042,-1.3215,-1.3997,-1.4088,-1.4088,-1.4088,-1.3561,-1.1386,-1.1117,-1.0673,-0.8242,-0.7907,-0.8032,-0.7841,-0.7743,-0.7729,-0.7967,-0.7675,-0.735,-0.7193,-0.7187,-0.72,-0.72,0.0,0.0,0.0,-0.7187,0.0,-0.7143,-0.7315,-0.7483,-0.757,-0.7584,-0.7698,-0.7628,-0.7654,-0.7738,-0.7774,-0.7608,-0.7472,-0.7463,-0.7869,-0.7965,-0.8045,-0.8045,-0.7889,-0.76,-0.76,-0.7434,-0.7139,-0.7139,-0.7139,-0.7143,-0.7163,-0.7889,-0.9113,-1.097,-1.1798,-1.2132,-1.2568,-1.3588,-1.4877,-3.0935,0.0,0.0,0.0,0.0,-2.7679,-2.6785,-2.5282,-2.4121,-2.4053,-2.3569,-2.2831,-2.1976,-2.1834,-2.1441,-2.0634,-2.0566,0.0,0.0,0.0,0.0,-2.0449,-2.0527,-2.0566,-2.0566,-2.0137,-1.9707,-1.9287,-1.8848,-1.8418,-1.8008,-1.8008,-1.794,0.0,0.0,0.0,-1.0124,-0.9801,-0.8546,-0.6919,-0.6817,-0.677,-0.684,-0.6843,-0.6056,-0.5015,-0.6204,-0.6659,-0.6776,-0.6776,-0.6861,-0.7221,-0.8572,-0.9781,-1.0869,-1.2242,-1.3294,-1.4088,-1.4088,-1.4088,-1.3737,-1.2334,-1.2363,-1.1995,-0.9578,-0.9303,-0.9268,-0.8195,-0.798,-0.794,-0.7865,-0.7692,-0.7509,-0.7356,-0.7438,-0.7519,-0.7519,-0.7519,0.0,0.0,-0.7444,-0.7421,-0.7166,-0.7305,-0.7414,-0.7411,-0.7431,-0.7539,-0.7763,-0.7716,-0.7694,-0.7925,-0.5824,-0.4722,-0.472,-0.6856,-0.7985,-0.7982,-0.7982,-0.7919,-0.7708,-0.7516,-0.7346,-0.7139,-0.7139,-0.7139,-0.7149,-0.7278,-0.7581,-0.8051,-0.8721,-0.9069,-0.9245,-0.9577,-1.0566,-1.2077,0.0,0.0,0.0,0.0,0.0,0.0,-2.7026,-2.6021,-2.5313,-2.4951,-2.4662,-2.3873,-2.2542,-2.2179,-2.1593,-2.0712,-2.0566,-2.0566,-2.0566,-2.0566,-2.0566,-2.0566,-2.0566,-2.0566,-2.0566,-2.0361,-1.9932,-1.9287,-1.9072,-1.8643,-1.8008,-1.8008,-1.8008,-1.7872,0.0,-1.2662,0.0,-0.9128,-0.8078,-0.6692,-0.6698,-0.6658,-0.6508,-0.5519,-0.523,-0.5494,-0.6163,-0.6488,-0.6495,-0.6651,-0.6749,-0.6975,-0.8213,-0.935,-1.0454,-1.1842,-1.2996,-1.3895,-1.4048,-1.4088,-1.3854,-1.285,-1.2821,-1.2592,-1.0954,-1.0276,-0.9805,-0.9217,-0.8531,-0.7991,-0.7838,-0.7695,-0.7577,-0.7502,-0.7485,-0.7509,-0.759,-0.76,-0.757,0.0,0.0,0.0,-0.7275,-0.7255,-0.7285,-0.7366,-0.739,-0.7495,-0.76,-0.7393,-0.7376,-0.7579,-0.3909,-0.1911,-0.1908,-0.3217,-0.4528,-0.5942,-0.5942,-0.5922,-0.5797,-0.6941,-0.726,-0.7074,-0.7231,-0.7258,-0.7278,-0.7506,-0.7682,-0.7848,-0.8231,-0.8421,-0.852,-0.8825,-0.9375,-1.0131,0.0,-3.1079,0.0,0.0,-2.8777,-2.814,-2.691,-2.6601,-2.6302,-2.5837,-2.5657,-2.4864,-2.3074,-2.2548,-2.1886,-2.0712,-2.0566,-2.0566,-2.0566,-2.0566,-2.0566,-2.0566,-2.0566,-2.0566,-2.0566,-2.0566,-2.0185,-1.9424,-1.9336,-1.8896,-1.8144,-1.8047,-1.7794,-1.7304,-1.4872,-1.2153,-0.9311,-0.8502,-0.7511,-0.6481,-0.6569,-0.6536,-0.6271,-0.4746,-0.5089,-0.6268,-0.6288,-0.6281,-0.6295,-0.6529,-0.6627,-0.6815,-0.7698,-0.8851,-1.0136,-1.132,-1.2587,-1.3694,-1.3928,-1.4041,-1.3979,-1.328,-1.3278,-1.3179,-1.2307,-1.1207,-1.0288,-1.0096,-0.8924,-0.7991,-0.7838,-0.7746,-0.7682,-0.7651,-0.757,-0.7556,-0.7675,-0.7692,-0.7682,0.0,0.0,0.0,-0.7421,-0.7309,-0.7288,-0.7411,-0.7407,-0.7369,-0.7416,-0.678,-0.6666,-0.7302,-0.259,0.0,0.0,0.0,-0.1106,-0.3115,-0.3115,-0.3153,-0.3229,-0.6116,-0.7323,-0.7141,-0.7363,-0.7438,-0.7482,-0.7716,-0.7851,-0.7946,-0.8333,-0.8503,-0.8564,-0.8838,-0.894,-0.9044,0.0,0.0,0.0,0.0,0.0,-2.7448,-2.6799,-2.6601,-2.6508,-2.6445,-2.6377,-2.5636,-2.3666,-2.3419,-2.2638,-2.0789,-2.0566,-2.0566,-2.0566,-2.0566,-2.0566,-2.0566,-2.0566,-2.0566,-2.0566,-2.0566,-2.0332,-1.9853,-1.9473,-1.9043,-1.8574,-1.8184,-1.7079,-1.5376,-1.4188,-1.2061,-0.9418,-0.8271,-0.7297,-0.6461,-0.6346,-0.6298,-0.6298,-0.6149,-0.6139,-0.6278,-0.6291,-0.6281,-0.6342,-0.6291,-0.6386,-0.6575,-0.6652,-0.8184,-0.9943,-1.0045,-1.177,-1.3654,-1.3674,-1.3881,-1.4155,-1.4269,-1.4559,-1.4572,-1.3525,-1.2448,-1.1361,-1.0194,-0.8924,-0.7991,-0.7838,-0.7913,-0.7953,-0.7814,-0.7896,-0.798,-0.7994,-0.7997,-0.7946,-0.7807,0.0,0.0,-0.759,-0.7563,-0.7563,-0.7577,-0.7451,-0.7444,-0.7416,-0.5225,-0.519,-0.7798,-0.2753,0.0,0.0,0.0,-0.0101,-0.0404,-0.0404,-0.0395,-0.0571,-0.5255,-0.741,-0.739,-0.7436,-0.7563,-0.7773,-0.7801,-0.7977,-0.8245,-0.8414,-0.8567,-0.871,-0.8876,-0.894,-0.8937,-3.135,0.0,-2.9823,-2.9137,-2.8257,-2.7355,-2.667,-2.6506,-2.6533,-2.6533,-2.6533,-2.5721,-2.3745,-2.3514,-2.2713,-2.0789,-2.0566,-2.0566,-2.0566,-2.0566,-2.0566,-2.0566,-2.0001,-1.9599,-1.9599,-1.8957,-1.8426,-1.7949,-1.819,-1.81,-1.7611,-1.7463,-1.6045,-1.3689,-1.2452,-1.0703,-0.8426,-0.7462,-0.6759,-0.6339,-0.6285,-0.6264,-0.6271,-0.6281,-0.6278,-0.6271,-0.6281,-0.6274,-0.6338,-0.6338,-0.6298,-0.6346,-0.6346,-0.7395,-0.864,-0.8843,-1.0455,-1.2184,-1.2432,-1.3097,-1.3935,-1.4402,-1.4743,-1.4799,-1.3914,-1.2748,-1.156,-1.0293,-0.8924,-0.8021,-0.796,-0.7923,-0.7913,-0.7943,-0.7923,-0.7933,-0.8028,-0.8038,-0.8018,-0.7957,-0.7868,-0.7787,-0.7733,-0.7648,-0.76,-0.76,-0.7453,-0.746,-0.7732,-0.3745,-0.1941,-0.314,-0.1092,0.0,0.0,0.0,0.0,0.0,0.0,0.0,-0.0099,-0.2086,-0.4614,-0.7577,-0.7535,-0.7727,-0.7946,-0.7946,-0.8075,-0.8286,-0.8428,-0.8574,-0.873,-0.8882,-0.894,-0.894,-3.113,-3.0608,-2.9868,-2.9083,-2.8201,-2.7373,-2.665,-2.6533,-2.6533,-2.6533,-2.6245,-2.5429,-2.3661,-2.322,-2.2414,-2.0712,-2.0566,-2.0566,-2.0566,-2.0566,-2.0566,-2.0566,-1.9599,-1.9036,-1.9036,-1.7908,-1.713,-1.6858,-1.7201,-1.7269,-1.6915,-1.6698,-1.5177,-1.2538,-1.138,-0.9703,-0.7714,-0.6834,-0.6352,-0.6338,-0.6338,-0.6338,-0.6264,-0.6278,-0.6278,-0.6268,-0.6281,-0.6278,-0.6268,-0.6264,-0.6338,-0.6338,-0.6338,-0.7022,-0.7808,-0.8013,-0.934,-1.084,-1.1016,-1.1873,-1.276,-1.3399,-1.3742,-1.3811,-1.3379,-1.2328,-1.0974,-0.9706,-0.8627,-0.8038,-0.8038,-0.795,-0.7913,-0.8021,-0.7946,-0.7916,-0.8024,-0.8038,-0.8021,-0.7977,-0.7875,-0.7811,-0.7811,-0.7723,-0.7662,-0.7662,-0.762,-0.7644,-0.7917,-0.3592,-0.0783,-0.0,0.0,0.0,0.0,0.0,0.0,0.0,0.0,0.0,0.0,0.0,-0.1984,-0.5522,-0.7113,-0.7865,-0.8048,-0.8041,-0.8153,-0.8343,-0.8442,-0.8604,-0.8791,-0.8899,-0.894,-0.894,-3.0503,-3.0357,-2.9956,-2.9115,-2.8285,-2.7404,-2.6645,-2.6533,-2.6533,-2.6533,-2.5652,-2.4636,-2.3599,-2.2627,-2.1669,-2.0712,-2.0566,-2.0566,-2.0566,-2.0566,-2.0566,-2.0566,-1.9599,-1.9036,-1.9036,-1.7908,-1.7342,-1.7253,-1.6867,-1.6686,-1.6661,-1.5955,-1.4375,-1.2158,-1.1175,-0.9627,-0.7706,-0.6721,-0.6264,-0.6338,-0.6338,-0.6338,-0.6264,-0.6288,-0.6288,-0.6281,-0.6291,-0.6288,-0.6278,-0.6264,-0.6338,-0.6338,-0.6338,-0.7022,-0.7783,-0.7787,-0.8686,-0.9703,-0.9708,-1.0105,-1.0547,-1.1009,-1.1201,-1.1492,-1.1844,-1.0974,-0.9608,-0.8333,-0.8038,-0.8038,-0.8038,-0.8038,-0.8038,-0.8038,-0.8038,-0.8038,-0.8038,-0.8038,-0.7984,-0.7831,-0.7814,-0.7811,-0.7811,-0.7811,-0.7811,-0.7811,-0.7872,-0.7912,-0.7586,-0.5291,-0.274,-0.0098,0.0,0.0,0.0,0.0,0.0,0.0,0.0,0.0,0.0,0.0,-0.0,-0.0402,-0.5734,-0.7972,-0.7972,-0.8048,-0.8214,-0.8479,-0.8482,-0.8669,-0.8937,-0.894,-0.894,-0.894,-2.9183,-2.8597,-2.804,-2.766,-2.6818,-2.6324,-2.6471,-2.6533,-2.6533,-2.6533,-2.5063,-2.3891,-2.3514,-2.2627,-2.1593,-2.0712,-2.0566,-2.0566,-2.0566,-1.9923,-1.952,-1.952,-1.7738,-1.6756,-1.6756,-1.5711,-1.5144,-1.5144,-1.523,-1.5142,-1.4988,-1.4541,-1.2966,-1.0494,-0.9949,-0.8675,-0.6718,-0.6412,-0.6338,-0.6338,-0.6338,-0.6268,-0.6274,-0.6281,-0.5407,-0.4219,-0.4691,-0.5482,-0.6278,-0.6264,-0.6338,-0.6338,-0.6338,-0.649,-0.6795,-0.6795,-0.7516,-0.8435,-0.8483,-0.9266,-1.0191,-1.0798,-1.1116,-1.1213,-1.0687,-0.9608,-0.8531,-0.8038,-0.8038,-0.8038,-0.8038,-0.8038,-0.8038,-0.8038,-0.8038,-0.8038,-0.8038,-0.8038,-0.8021,-0.7974,-0.7967,-0.7967,-0.7967,-0.7967,-0.7923,-0.7818,-0.7865,-0.7748,-0.7634,-0.7024,-0.4676,-0.0098,0.0,0.0,0.0,0.0,0.0,0.0,0.0,0.0,0.0,0.0,0.0,-0.0201,-0.3717,-0.6339,-0.7972,-0.8048,-0.8214,-0.8482,-0.8482,-0.8669,-0.894,-0.894,-0.894,-0.894,-2.7769,-2.7437,-2.7124,-2.6658,-2.6167,-2.5855,-2.6118,-2.5853,-2.5721,-2.5918,-2.4181,-2.2925,-2.2925,-2.2038,-2.1221,-2.0634,-2.0235,-2.0001,-2.0001,-1.8957,-1.839,-1.839,-1.6675,-1.5696,-1.5696,-1.4657,-1.4035,-1.3921,-1.3982,-1.3959,-1.3636,-1.3436,-1.2022,-0.9576,-0.9357,-0.8161,-0.6338,-0.6338,-0.6338,-0.6338,-0.6338,-0.6268,-0.6197,-0.5404,-0.4779,-0.4233,-0.3906,-0.4851,-0.6281,-0.6268,-0.6338,-0.6338,-0.6338,-0.6338,-0.6338,-0.6338,-0.6758,-0.7364,-0.7387,-0.8073,-0.8862,-0.9301,-0.9704,-0.9818,-0.9331,-0.8627,-0.8038,-0.8038,-0.8038,-0.8038,-0.8038,-0.8038,-0.8038,-0.8038,-0.8038,-0.8038,-0.8038,-0.8038,-0.8018,-0.796,-0.7953,-0.7953,-0.7953,-0.7953,-0.7936,-0.7899,-0.7808,-0.7687,-0.7621,-0.6944,-0.4487,-0.0099,0.0,0.0,0.0,0.0,0.0,0.0,0.0,0.0,0.0,0.0,0.0,-0.0101,-0.1808,-0.4624,-0.7979,-0.7959,-0.8221,-0.8482,-0.8482,-0.8669,-0.894,-0.894,-0.894,-0.894,-2.624,-2.6726,-2.6877,-2.6113,-2.588,-2.5764,-2.5514,-2.465,-2.4224,-2.4815,-2.3165,-2.1996,-2.2027,-2.1155,-2.0566,-2.0489,-1.9599,-1.8957,-1.8877,-1.7819,-1.7172,-1.7172,-1.6191,-1.5621,-1.5621,-1.4552,-1.3901,-1.3499,-1.3313,-1.3019,-1.2795,-1.2712,-1.1493,-0.9296,-0.9221,-0.8089,-0.6338,-0.6338,-0.6338,-0.6338,-0.6264,-0.6271,-0.6119,-0.4066,-0.4394,-0.5605,-0.3759,-0.4462,-0.6291,-0.6271,-0.6338,-0.6338,-0.6338,-0.6268,-0.6352,-0.6352,-0.6369,-0.6478,-0.6498,-0.6712,-0.6966,-0.7119,-0.7387,-0.7685,-0.796,-0.8031,-0.8038,-0.8038,-0.8038,-0.8038,-0.8038,-0.8038,-0.8038,-0.8038,-0.8038,-0.8038,-0.8038,-0.8038,-0.7987,-0.7845,-0.7828,-0.7828,-0.7828,-0.7828,-0.7882,-0.8014,-0.7749,-0.7563,-0.7359,-0.534,-0.2962,-0.0101,0.0,0.0,0.0,0.0,0.0,0.0,0.0,0.0,0.0,0.0,0.0,0.0,0.0,-0.2815,-0.7478,-0.7885,-0.8245,-0.8486,-0.8492,-0.8679,-0.894,-0.894,-0.894,-0.894,-2.4882,-2.4932,-2.4879,-2.4589,-2.3941,-2.3591,-2.3941,-2.3264,-2.2834,-2.3336,-2.2317,-2.1649,-2.1996,-2.1155,-2.0245,-1.9441,-1.9125,-1.863,-1.7738,-1.6675,-1.6108,-1.6108,-1.5061,-1.4489,-1.4489,-1.3944,-1.3487,-1.2959,-1.297,-1.2705,-1.2405,-1.164,-1.0547,-0.9296,-0.8466,-0.748,-0.6338,-0.6338,-0.6338,-0.6338,-0.6271,-0.6281,-0.6213,-0.5752,-0.3853,-0.1649,-0.2737,-0.4462,-0.6291,-0.6271,-0.6338,-0.6338,-0.6338,-0.6335,-0.6424,-0.6424,-0.6444,-0.6522,-0.6756,-0.6875,-0.699,-0.7251,-0.7539,-0.778,-0.7848,-0.7957,-0.8038,-0.8038,-0.8038,-0.8038,-0.8038,-0.8038,-0.8038,-0.8038,-0.8038,-0.8038,-0.8038,-0.8038,-0.8024,-0.7991,-0.7984,-0.7984,-0.7984,-0.7984,-0.795,-0.7872,-0.7788,-0.6807,-0.4628,-0.5711,-0.4362,-0.0101,0.0,0.0,0.0,0.0,0.0,0.0,0.0,0.0,0.0,0.0,0.0,0.0,0.0,-0.0704,-0.2214,-0.6436,-0.824,-0.8407,-0.8615,-0.8771,-0.894,-0.894,-0.894,-0.894,-2.3327,-2.3518,-2.3501,-2.2573,-2.2369,-2.2408,-2.2523,-2.1778,-2.1341,-2.1843,-2.0669,-1.9881,-2.0118,-1.9231,-1.8234,-1.7145,-1.7783,-1.7738,-1.6601,-1.5545,-1.4977,-1.4977,-1.4412,-1.4021,-1.3888,-1.3728,-1.3347,-1.2822,-1.2688,-1.2458,-1.2305,-1.1236,-1.0265,-0.9221,-0.8237,-0.7249,-0.6338,-0.6338,-0.6338,-0.6264,-0.6274,-0.5724,-0.494,-0.5918,-0.3698,-0.0235,-0.2344,-0.4462,-0.6291,-0.6271,-0.6302,-0.6359,-0.6359,-0.6458,-0.659,-0.6661,-0.6681,-0.6719,-0.6881,-0.6976,-0.7082,-0.7312,-0.7492,-0.7645,-0.778,-0.7875,-0.7957,-0.8024,-0.8038,-0.8038,-0.8038,-0.8038,-0.8038,-0.8038,-0.798,-0.796,-0.8028,-0.798,-0.796,-0.8031,-0.8038,-0.8038,-0.8038,-0.8038,-0.8011,-0.7936,-0.7848,-0.7159,-0.5666,-0.6592,-0.4912,-0.0101,0.0,0.1363,0.4063,0.4051,0.332,0.1769,0.0539,0.0,0.0,0.0,0.0,0.0,0.0,0.0,-0.0302,-0.4714,-0.7321,-0.8421,-0.8659,-0.8804,-0.894,-0.894,-0.894,-0.894,-2.1815,-2.2249,-2.2237,-2.0846,-2.1101,-2.1377,-2.1151,-2.0283,-1.9768,-2.0224,-1.8851,-1.7787,-1.7692,-1.6917,-1.6,-1.4872,-1.6103,-1.6451,-1.5397,-1.4435,-1.3955,-1.3955,-1.3955,-1.3834,-1.3581,-1.3534,-1.324,-1.2755,-1.2425,-1.2224,-1.2077,-1.1019,-1.004,-0.8993,-0.8008,-0.7099,-0.6338,-0.6338,-0.6338,-0.6264,-0.6274,-0.501,-0.3281,-0.48,-0.3146,-0.0235,-0.2033,-0.4238,-0.6329,-0.6383,-0.639,-0.6508,-0.6508,-0.661,-0.6759,-0.6892,-0.6946,-0.6959,-0.6959,-0.7048,-0.7173,-0.7302,-0.7353,-0.7438,-0.7689,-0.778,-0.7848,-0.7977,-0.8024,-0.8038,-0.8038,-0.8038,-0.8031,-0.8011,-0.7916,-0.7882,-0.7991,-0.7913,-0.7892,-0.8024,-0.8038,-0.8038,-0.8038,-0.8038,-0.8048,-0.7972,-0.7672,-0.7588,-0.8022,-0.6704,-0.4158,-0.0101,0.0826,0.3797,0.8901,0.8889,0.7448,0.4684,0.235,0.0735,0.0,0.0,0.0,0.0,0.0,0.0,-0.0202,-0.2776,-0.5761,-0.8646,-0.8693,-0.8828,-0.894,-0.894,-0.894,-0.894,-2.0846,-2.091,-2.091,-2.0655,-2.0074,-1.9715,-1.9658,-1.889,-1.8173,-1.7791,-1.7487,-1.7169,-1.6648,-1.6523,-1.6,-1.4872,-1.5048,-1.4724,-1.3653,-1.3427,-1.3347,-1.3347,-1.3347,-1.3327,-1.328,-1.3019,-1.2719,-1.2371,-1.2325,-1.1848,-1.1013,-0.997,-0.8993,-0.8012,-0.6945,-0.6412,-0.6338,-0.6338,-0.6338,-0.6264,-0.6285,-0.5015,-0.2968,-0.1489,-0.055,-0.0079,-0.0392,-0.3173,-0.6652,-0.6555,-0.6637,-0.6664,-0.6664,-0.677,-0.6898,-0.6922,-0.7014,-0.7105,-0.7105,-0.7122,-0.7146,-0.717,-0.7275,-0.7383,-0.7431,-0.7631,-0.7818,-0.7841,-0.795,-0.8038,-0.8038,-0.8038,-0.7997,-0.7868,-0.7936,-0.7967,-0.7862,-0.7936,-0.8014,-0.8035,-0.8038,-0.8038,-0.8038,-0.8038,-0.8048,-0.7972,-0.5934,-0.5644,-0.7918,-0.3638,-0.0814,-0.0,0.4859,0.7933,0.885,0.8643,0.8356,0.7774,0.7112,0.4368,0.0,0.0,0.0,0.0,0.0,0.0,-0.0,-0.0522,-0.3921,-0.8899,-0.8832,-0.8933,-0.894,-0.894,-0.894,-0.894,-2.0009,-2.0268,-2.0117,-1.8706,-1.8506,-1.8237,-1.7229,-1.6775,-1.6438,-1.6191,-1.5635,-1.5186,-1.4972,-1.4477,-1.3954,-1.3525,-1.345,-1.2996,-1.2011,-1.2707,-1.2962,-1.2399,-1.2399,-1.208,-1.1298,-1.1572,-1.1371,-1.0645,-1.0645,-1.0421,-0.997,-0.8993,-0.8237,-0.7783,-0.6718,-0.6338,-0.6338,-0.6338,-0.6338,-0.6264,-0.6288,-0.5018,-0.2898,-0.0807,0.0,0.0,0.0,-0.2289,-0.54,-0.6521,-0.6956,-0.7061,-0.7061,-0.7166,-0.7272,-0.719,-0.7156,-0.7139,-0.7139,-0.7139,-0.7139,-0.7139,-0.7193,-0.7268,-0.7353,-0.7478,-0.7621,-0.7777,-0.7868,-0.794,-0.8024,-0.8038,-0.8018,-0.7946,-0.7923,-0.7919,-0.7933,-0.7923,-0.7946,-0.8028,-0.8038,-0.8038,-0.8038,-0.7952,-0.7965,-0.7982,-0.6868,-0.5452,-0.3737,-0.1313,0.1331,0.4222,0.7336,0.8784,0.8669,0.8583,0.8454,0.8394,0.8287,0.609,0.2136,0.0708,0.0,0.0,0.0,0.0,0.0,0.0,-0.1593,-0.4374,-0.763,-0.8856,-0.8846,-0.8944,-0.894,-0.894,-1.911,-1.9201,-1.8762,-1.6895,-1.6936,-1.678,-1.5438,-1.5234,-1.5092,-1.4879,-1.4171,-1.36,-1.3382,-1.2739,-1.2224,-1.1996,-1.1922,-1.1539,-1.049,-1.1646,-1.1963,-1.1163,-1.1163,-1.0673,-0.9632,-1.0133,-1.004,-0.9296,-0.9296,-0.9145,-0.8922,-0.8161,-0.7706,-0.7403,-0.6644,-0.6338,-0.6338,-0.6264,-0.6285,-0.6322,-0.6301,-0.5286,-0.3546,-0.1009,0.0,0.0,0.0,-0.1345,-0.3509,-0.6326,-0.7416,-0.7431,-0.7431,-0.7506,-0.7577,-0.7458,-0.7316,-0.7187,-0.7149,-0.7139,-0.7139,-0.7139,-0.7139,-0.7173,-0.7292,-0.7346,-0.7434,-0.7662,-0.7763,-0.7845,-0.7963,-0.8014,-0.8028,-0.7991,-0.7919,-0.7892,-0.7974,-0.7916,-0.7909,-0.8024,-0.8038,-0.8038,-0.8038,-0.7959,-0.7772,-0.7166,-0.7601,-0.5667,-0.0303,0.0,0.2462,0.779,0.7834,0.7998,0.8497,0.8551,0.8404,0.8272,0.8374,0.6853,0.3915,0.1209,0.0,0.0,0.0,0.0,0.0,0.0,0.0,-0.0426,-0.5072,-0.7727,-0.886,-0.8954,-0.8944,-0.894,-1.793,-1.6784,-1.5781,-1.6498,-1.593,-1.5367,-1.5234,-1.5234,-1.4879,-1.3954,-1.3745,-1.3382,-1.2519,-1.2372,-1.1922,-1.1013,-1.0938,-1.049,-0.9448,-0.9554,-0.9575,-0.9499,-0.9499,-0.9418,-0.9322,-0.9382,-0.9372,-0.9296,-0.9296,-0.8846,-0.7936,-0.7859,-0.7326,-0.6412,-0.6338,-0.6338,-0.6338,-0.6274,-0.6277,-0.6337,-0.6328,-0.6213,-0.5642,-0.1506,0.0,0.0,0.0,-0.0091,-0.1105,-0.621,-0.7798,-0.7695,-0.7695,-0.76,-0.7597,-0.7587,-0.7475,-0.7322,-0.718,-0.7139,-0.7139,-0.7139,-0.7139,-0.7143,-0.7153,-0.7268,-0.738,-0.74,-0.7621,-0.7814,-0.7824,-0.7943,-0.7994,-0.7851,-0.7936,-0.7977,-0.7845,-0.794,-0.8028,-0.8038,-0.8038,-0.8038,-0.8038,-0.7959,-0.6951,-0.452,-0.657,-0.5667,-0.0303,0.0,0.2446,0.7839,0.5585,0.5625,0.8319,0.8277,0.8292,0.8269,0.816,0.6662,0.3915,0.1209,0.0,0.0,0.0,0.0,0.0,0.0,0.0,-0.0,-0.0441,-0.4018,-0.8863,-0.886,-0.8846,-0.894,-1.6158,-1.5658,-1.5092,-1.4871,-1.4522,-1.4099,-1.352,-1.3375,-1.3004,-1.2044,-1.1896,-1.1527,-1.0571,-1.0426,-1.0271,-0.9895,-0.9895,-0.9442,-0.8466,-0.8389,-0.8389,-0.8389,-0.8389,-0.8089,-0.748,-0.8084,-0.8084,-0.7403,-0.7403,-0.7253,-0.6872,-0.6872,-0.6641,-0.6338,-0.6338,-0.6315,-0.6337,-0.627,-0.5556,-0.4404,-0.5745,-0.628,-0.5808,-0.1565,0.0,0.0,0.0,0.0,-0.0682,-0.499,-0.6385,-0.6496,-0.7501,-0.7889,-0.7851,-0.7756,-0.756,-0.736,-0.7299,-0.7214,-0.7139,-0.7139,-0.7139,-0.7139,-0.7139,-0.7187,-0.7255,-0.7353,-0.7461,-0.7567,-0.7662,-0.7729,-0.7746,-0.7689,-0.7729,-0.7746,-0.7689,-0.7729,-0.7767,-0.7767,-0.7767,-0.777,-0.778,-0.7901,-0.7621,-0.6546,-0.4388,-0.2144,-0.0097,0.0,0.172,0.5397,0.616,0.6959,0.8066,0.8203,0.8221,0.8126,0.8002,0.6553,0.3915,0.1209,0.0,0.0,0.0,0.0,0.0,0.0,0.0,0.0,0.0,-0.134,-0.3797,-0.7516,-0.887,-0.8974,-1.5163,-1.4736,-1.4163,-1.3745,-1.3455,-1.2945,-1.199,-1.1848,-1.1471,-1.049,-1.034,-1.004,-0.9372,-0.9296,-0.9145,-0.8846,-0.8846,-0.8389,-0.7403,-0.7326,-0.7326,-0.7326,-0.7326,-0.7022,-0.6338,-0.6945,-0.7022,-0.6338,-0.6338,-0.6338,-0.6338,-0.6338,-0.6285,-0.6329,-0.6304,-0.6331,-0.6401,-0.6301,-0.5478,-0.4082,-0.4266,-0.4322,-0.3992,-0.115,0.0,0.0,0.0,0.0,-0.0403,-0.2823,-0.4839,-0.6448,-0.7669,-0.7959,-0.8011,-0.7858,-0.7668,-0.7489,-0.7397,-0.7292,-0.72,-0.7153,-0.7139,-0.7139,-0.7139,-0.7139,-0.717,-0.7278,-0.7336,-0.7404,-0.7509,-0.7567,-0.76,-0.76,-0.76,-0.76,-0.76,-0.76,-0.76,-0.76,-0.76,-0.7607,-0.7712,-0.7152,-0.708,-0.7981,-0.3053,0.0,0.0,0.1588,0.2923,0.4016,0.6633,0.8028,0.8011,0.8103,0.8147,0.8048,0.7975,0.7068,0.5135,0.1613,0.0,0.0,0.0,0.0,0.0,0.0,0.0,0.0,0.0,0.0,-0.0447,-0.4615,-0.6998,-0.8139,-1.495,-1.3593,-1.2586,-1.3528,-1.2879,-1.1922,-1.0932,-1.0783,-1.0415,-0.9448,-0.9296,-0.9296,-0.9301,-0.9301,-0.8841,-0.7859,-0.7783,-0.7326,-0.6338,-0.6264,-0.6264,-0.6264,-0.6264,-0.6338,-0.6338,-0.6338,-0.6338,-0.6338,-0.6338,-0.6338,-0.6264,-0.6264,-0.6339,-0.6485,-0.6321,-0.6385,-0.6608,-0.6425,-0.6297,-0.5866,-0.1703,0.0,0.0,0.0,0.0,0.0,0.0,0.0,0.0,0.0,-0.3536,-0.7918,-0.7995,-0.7965,-0.8011,-0.7858,-0.7814,-0.7746,-0.7455,-0.7373,-0.7333,-0.718,-0.7139,-0.7139,-0.7139,-0.7139,-0.7139,-0.7139,-0.7261,-0.737,-0.737,-0.7495,-0.7597,-0.7597,-0.7597,-0.7597,-0.7597,-0.7597,-0.7597,-0.7597,-0.7597,-0.76,-0.7708,-0.5509,-0.514,-0.778,-0.3052,0.0,0.0,0.5005,0.6776,0.4117,0.6645,0.7962,0.8038,0.8038,0.7952,0.7972,0.7985,0.8002,0.7818,0.2424,0.0,0.0,0.0,0.0,0.0,0.0,0.0,0.0,0.0,0.0,0.0,0.0,-0.2628,-0.6645,-1.3134,-1.2732,-1.2144,-1.1749,-1.1459,-1.0938,-0.9895,-0.9744,-0.9367,-0.8389,-0.8237,-0.8008,-0.7249,-0.7176,-0.7099,-0.6795,-0.6718,-0.6687,-0.6482,-0.6508,-0.6569,-0.6569,-0.6373,-0.6338,-0.6338,-0.6338,-0.6338,-0.6338,-0.6338,-0.6318,-0.6271,-0.6293,-0.6338,-0.6401,-0.6551,-0.652,-0.6388,-0.634,-0.4557,-0.1739,-0.0493,0.0,0.0,0.0,0.0,0.0,0.0,0.0,0.0,0.0,-0.1109,-0.302,-0.6765,-0.7979,-0.7955,-0.7908,-0.7906,-0.779,-0.7702,-0.7529,-0.7333,-0.718,-0.7139,-0.7139,-0.7139,-0.7139,-0.7139,-0.7139,-0.7177,-0.721,-0.721,-0.7248,-0.7278,-0.7278,-0.7278,-0.7278,-0.7278,-0.7278,-0.7278,-0.7278,-0.7292,-0.7215,-0.7319,-0.6597,-0.5129,-0.2564,-0.0926,0.0,0.0,0.148,0.378,0.6756,0.7575,0.7969,0.8038,0.8038,0.7952,0.7972,0.6139,0.6155,0.7818,0.2424,0.0,0.0,0.0,0.0,0.0,0.0,0.0,0.0,0.0,0.0,0.0,0.0,-0.37,-0.8816,-1.2005,-1.1865,-1.1527,-1.0438,-1.019,-0.989,-0.8841,-0.8694,-0.8313,-0.7326,-0.7231,-0.704,-0.6421,-0.6396,-0.6434,-0.6434,-0.6434,-0.6474,-0.6569,-0.6579,-0.6632,-0.6722,-0.6549,-0.6454,-0.6447,-0.6447,-0.6368,-0.6291,-0.6267,-0.626,-0.6271,-0.5461,-0.5055,-0.5078,-0.6119,-0.6537,-0.6484,-0.4655,-0.2358,0.0,0.0,0.0,0.0,0.0,0.0,0.0,0.0,0.0,0.0,0.0,0.0,-0.0603,-0.3822,-0.5536,-0.6645,-0.7666,-0.7898,-0.7899,-0.7831,-0.7682,-0.7509,-0.7272,-0.7141,-0.7143,-0.7064,-0.7058,-0.7143,-0.7068,-0.7061,-0.7143,-0.7064,-0.7064,-0.7064,-0.7064,-0.7068,-0.7071,-0.7071,-0.7071,-0.7071,-0.7071,-0.7084,-0.7098,-0.7115,-0.7128,-0.5148,-0.0363,0.0,0.0,0.0,0.0987,0.3083,0.6348,0.7463,0.7959,0.8038,0.8048,0.7962,0.7979,0.5329,0.4327,0.4752,0.1515,0.0,0.0,0.0,0.0,0.0,0.0,0.0,0.0,0.0,0.0,0.0,0.0,-0.3302,-0.7889,-1.1276,-1.1068,-1.0684,-0.9392,-0.9185,-0.887,-0.7804,-0.7654,-0.735,-0.6433,-0.6403,-0.6491,-0.6491,-0.6617,-0.6702,-0.6705,-0.6715,-0.6649,-0.6585,-0.6437,-0.6369,-0.6379,-0.6392,-0.6483,-0.6645,-0.6434,-0.6161,-0.5999,-0.6046,-0.6121,-0.6225,-0.4281,-0.3181,-0.2872,-0.4849,-0.6026,-0.6137,-0.1805,0.0,0.0,0.0,0.0,0.0,0.0,0.0,0.0,0.0,0.0,0.0,0.0,0.0,0.0,0.0,-0.1708,-0.4117,-0.6545,-0.7666,-0.7942,-0.7879,-0.7828,-0.7787,-0.7475,-0.7129,-0.6824,-0.7015,-0.6897,-0.6881,-0.7094,-0.6894,-0.6877,-0.7081,-0.7088,-0.6996,-0.6811,-0.6821,-0.6828,-0.6828,-0.6828,-0.6828,-0.6828,-0.7012,-0.7115,-0.7135,-0.669,-0.4641,-0.0371,0.0,0.0,0.0,0.2292,0.3815,0.432,0.6731,0.8041,0.8038,0.7962,0.7979,0.7989,0.5536,0.2816,0.0,0.0,0.0,0.0,0.0,0.0,0.0,0.0,0.0,0.0,0.0,0.0,0.0,0.0,-0.193,-0.4596,-1.0165,-1.0038,-0.9702,-0.8617,-0.8325,-0.7911,-0.6976,-0.6817,-0.6741,-0.6507,-0.6559,-0.6651,-0.6651,-0.6681,-0.6705,-0.6642,-0.6671,-0.6662,-0.6665,-0.5156,-0.4246,-0.4248,-0.4314,-0.5106,-0.691,-0.4956,-0.3871,-0.3787,-0.3782,-0.467,-0.633,-0.58,-0.3806,-0.0678,-0.1187,-0.14,-0.1506,-0.0403,0.0,0.0,0.0,0.0,0.0,0.0,0.0,0.0,0.0,0.0,0.0,0.0,0.0,0.0,0.0,-0.0403,-0.1005,-0.1608,-0.4728,-0.7979,-0.7942,-0.795,-0.7959,-0.7928,-0.6124,-0.4853,-0.6645,-0.5705,-0.4912,-0.6735,-0.5638,-0.4912,-0.6732,-0.7098,-0.6459,-0.4648,-0.4376,-0.4378,-0.4378,-0.4378,-0.4378,-0.4378,-0.6019,-0.7131,-0.7135,-0.3737,-0.112,-0.0097,0.0,0.0,0.0,0.0503,0.2821,0.6965,0.7675,0.7965,0.8038,0.7962,0.7979,0.7989,0.739,0.4645,0.0,0.0,0.0,0.0,0.0,0.0,0.0,0.0,0.0,0.0,0.0,0.0,0.0,0.0,-0.0486,-0.1842,-0.9614,-0.9402,-0.9033,-0.7847,-0.7594,-0.737,-0.6874,-0.679,-0.679,-0.679,-0.6847,-0.686,-0.686,-0.6926,-0.6432,-0.5265,-0.5233,-0.5732,-0.685,-0.5855,-0.4784,-0.3655,-0.3599,-0.4676,-0.7013,-0.5714,-0.3857,-0.1632,-0.1667,-0.2165,-0.3336,-0.3306,-0.207,0.0,0.0,0.0,0.0,0.0,0.0,0.0,0.0,0.0,0.0,0.0,0.0,0.0,0.0,0.0,0.0,0.0,0.0,0.0,0.0,0.0,0.0,0.0,-0.2011,-0.4427,-0.5739,-0.6103,-0.6366,-0.769,-0.6881,-0.5968,-0.6907,-0.5301,-0.3588,-0.3689,-0.3655,-0.3626,-0.3721,-0.5605,-0.6662,-0.5476,-0.3403,-0.1879,-0.1879,-0.1879,-0.1879,-0.1879,-0.296,-0.3701,-0.3734,-0.1484,0.0,0.0,0.0,0.0,0.0,0.0,0.1913,0.5942,0.7366,0.7972,0.7955,0.7972,0.8026,0.8008,0.7951,0.5183,0.0,0.0,0.0,0.0,0.0,0.0,0.0,0.0,0.0,0.0,0.0,0.0,0.0,0.0,0.0,-0.0493,-0.9051,-0.8844,-0.8529,-0.7417,-0.7197,-0.718,-0.718,-0.7094,-0.7094,-0.7094,-0.7151,-0.6974,-0.6596,-0.6898,-0.6297,-0.4373,-0.3419,-0.3806,-0.5741,-0.586,-0.4997,-0.3071,-0.2984,-0.3862,-0.5812,-0.5904,-0.392,0.0,0.0,0.0,0.0,0.0,0.0,0.0,0.0,0.0,0.0,0.0,0.0,0.0,0.0,0.0,0.0,0.0,0.0,0.0,0.0,0.0,0.0,0.0,0.0,0.0,0.0,0.0,0.0,0.0,0.0,-0.0503,-0.2712,-0.3316,-0.4024,-0.7202,-0.8038,-0.7612,-0.6214,-0.4405,-0.2375,-0.0381,-0.1595,-0.2408,-0.0371,-0.32,-0.5888,-0.5888,-0.2612,0.0,0.0,0.0,0.0,0.0,0.0,0.0,0.0,0.0,0.0,0.0,0.0,0.0,0.0,0.0,0.1206,0.3915,0.6648,0.7975,0.7972,0.7594,0.7594,0.7969,0.7035,0.4341,0.0,0.0,0.0,0.0,0.0,0.0,0.0,0.0,0.0,0.0,0.0,0.0,0.0,0.0,0.0,0.0,-0.7847,-0.7847,-0.7743,-0.7539,-0.7428,-0.7339,-0.7339,-0.7171,-0.709,-0.709,-0.7323,-0.6649,-0.435,-0.591,-0.6997,-0.6611,-0.286,-0.0667,-0.0953,-0.0968,-0.0782,-0.0489,-0.0497,-0.0602,-0.1003,-0.1005,-0.0598,0.0,0.0,0.0,0.0,0.0,0.0,0.0,0.0,0.0,0.0,0.0,0.0,0.0,0.0,0.0,0.0,0.0,0.0,0.0,0.0,0.0,0.0,0.0,0.0,0.0,0.0,0.0,0.0,0.0,0.0,-0.0101,-0.0404,-0.0504,-0.1716,-0.6709,-0.8039,-0.6782,-0.2006,-0.0683,-0.0381,-0.0095,-0.0285,-0.038,-0.0095,-0.056,-0.0921,-0.0921,-0.0454,0.0,0.0,0.0,0.0,0.0,0.0,0.0,0.0,0.0,0.0,0.0,0.0,0.0,0.0,0.0,0.1209,0.3915,0.6553,0.7982,0.7972,0.5722,0.573,0.7905,0.3338,0.0651,0.0,0.0,0.0,0.0,0.0,0.0,0.0,0.0,0.0,0.0,0.0,0.0,0.0,0.0,0.0,0.0,-0.7845,-0.7845,-0.7848,-0.7862,-0.7807,-0.7767,-0.777,-0.7684,-0.7096,-0.5523,-0.6766,-0.7413,-0.6211,-0.4336,-0.3154,-0.3154,-0.1182,0.0,0.0,0.0,0.0,0.0,0.0,0.0,0.0,0.0,0.0,0.0,0.0,0.0,0.0,0.0,0.0,0.0,0.0,0.0,0.0,0.0,0.0,0.0,0.0,0.0,0.0,0.0,0.0,0.0,0.0,0.0,0.0,0.0,0.0,0.0,0.0,0.0,0.0,0.0,0.0,0.0,0.0,0.0,-0.0606,-0.2933,-0.3542,-0.2933,-0.0505,0.0,0.0,0.0,0.0,0.0,0.0,0.0,0.0,0.0,0.0,0.0,0.0,0.0,0.0,0.0,0.0,0.0,0.0,0.0,0.0,0.0,0.0,0.0,0.0,0.3126,0.4788,0.4248,0.6961,0.8227,0.8024,0.5385,0.5386,0.7953,0.2569,0.0,0.0,0.0,0.0,0.0,0.0,0.0,0.0,0.0,0.0,0.0,0.0,0.0,0.0,0.0,0.0,0.0]}]]